Date StartTime U_cm/s V_cm/s W_cm/s Ustd_cm/s Vstd_cm/s Wstd_cm/s Uvar_(cm/s)^2 Vvar_(cm/s)^2 Wvar_(cm/s)^2 KE_(m/s)^2 TurbulentKE_(m/s)^2 HorizWindSpeed_cm/s FrictionSpeec_cm/s DragCoef SpeedOfSound_m/s SonicTemperature_C Pressure_mb 
06/21/2013  00:00:00      -75.263       61.922       -8.780       81.915       41.143       29.087     6710.127     1692.759      846.073        0.941        0.462       97.462       38.311        0.155      341.037       15.471      861.611
06/21/2013  00:01:00     -136.841      -15.138       -8.411       78.236       52.258       36.628     6120.826     2730.866     1341.639        1.461        0.510      137.676       40.483        0.086      341.068       15.524      861.611
06/21/2013  00:02:00      -89.857       -2.043       16.148       47.007       67.730       32.737     2209.612     4587.388     1071.684        0.810        0.393       89.880       32.372        0.130      341.051       15.495      861.603
06/21/2013  00:03:00      -87.590       -3.375       10.781       55.838       43.228       25.916     3117.852     1868.678      671.640        0.673        0.283       87.655       33.441        0.146      341.051       15.496      861.604
06/21/2013  00:04:00      -69.953      -33.062       10.136       60.229       44.019       23.520     3627.557     1937.673      553.169        0.610        0.306       77.372       22.386        0.084      340.997       15.404      861.616
06/21/2013  00:05:00      -25.593       43.599       -9.740       17.403       23.419       16.570      302.848      548.430      274.552        0.189        0.056       50.555       10.986        0.047      340.981       15.380      861.619
06/21/2013  00:06:00      -19.217       42.466        5.844       27.834       20.427       17.415      774.714      417.257      303.286        0.185        0.075       46.612       18.740        0.162      340.922       15.277      861.625
06/21/2013  00:07:00      -89.781      102.591      -23.215       37.185       36.737       19.667     1382.734     1349.618      386.784        1.112        0.156      136.328       20.577        0.023      340.929       15.289      861.638
06/21/2013  00:08:00      -93.254      110.745      -20.729       27.387       33.186       22.254      750.060     1101.297      495.231        1.187        0.117      144.779       14.562        0.010      340.905       15.246      861.655
06/21/2013  00:09:00     -122.763      147.118      -31.417       45.709       57.185       26.771     2089.297     3270.137      716.679        2.189        0.304      191.610       28.937        0.023      340.919       15.270      861.668
06/21/2013  00:10:00     -109.438      131.736      -21.884       35.840       44.876       26.406     1284.478     2013.882      697.285        1.690        0.200      171.263       18.768        0.012      340.890       15.222      861.688
06/21/2013  00:11:00      -72.696       98.420      -18.614       42.116       44.137       22.117     1773.761     1948.054      489.148        0.976        0.211      122.357       26.737        0.048      340.919       15.271      861.705
06/21/2013  00:12:00      -50.282       84.684      -13.807       33.958       39.210       21.439     1153.122     1537.394      459.632        0.652        0.158       98.486       22.696        0.053      340.918       15.271      861.723
06/21/2013  00:13:00      -99.514       63.268      -14.715       43.643       46.801       25.447     1904.669     2190.296      647.550        0.943        0.237      117.923       25.144        0.045      340.909       15.254      861.744
06/21/2013  00:14:00     -104.870       90.936      -23.066       34.875       37.361       20.700     1216.237     1395.838      428.503        1.142        0.152      138.805       21.607        0.024      340.959       15.340      861.764
06/21/2013  00:15:00     -121.563       94.018      -21.108       38.509       41.923       26.038     1482.981     1757.554      677.953        1.399        0.196      153.678       21.033        0.019      340.978       15.372      861.776
06/21/2013  00:16:00     -109.778      116.105      -27.538       34.760       28.484       19.654     1208.291      811.330      386.281        1.435        0.120      159.786       17.187        0.012      341.067       15.522      861.777
06/21/2013  00:17:00      -71.199      116.338      -22.544       25.348       33.343       19.708      642.535     1111.769      388.423        1.063        0.107      136.395        9.638        0.005      341.030       15.460      861.783
06/21/2013  00:18:00      -92.084      101.679      -21.122       28.088       40.449       22.675      788.939     1636.153      514.160        1.110        0.147      137.179       21.846        0.025      341.032       15.463      861.792
06/21/2013  00:19:00     -108.360       94.626      -21.258       44.544       59.926       31.285     1984.179     3591.166      978.763        1.385        0.328      143.861       30.932        0.046      341.007       15.419      861.818
06/21/2013  00:20:00      -71.411      187.299      -15.489       33.840       49.315       32.103     1145.131     2431.982     1030.594        2.251        0.230      200.451       28.897        0.021      340.954       15.330      861.853
06/21/2013  00:21:00      -86.901      335.510      -41.382       90.288      174.456       60.092     8151.927    30434.962     3611.058        8.201        2.110      346.581       70.102        0.041      340.938       15.301      861.882
06/21/2013  00:22:00     -110.881      350.394      -54.201       87.056      104.562       40.766     7578.790    10933.271     1661.900        7.909        1.009      367.520       26.736        0.005      340.935       15.295      861.878
06/21/2013  00:23:00     -118.632      310.525      -39.626       80.858      139.268       46.450     6537.966    19395.455     2157.562        7.007        1.405      332.415       44.991        0.018      340.902       15.240      861.901
06/21/2013  00:24:00     -127.035      228.880      -34.391       94.243       91.583       57.282     8881.686     8387.405     3281.186        4.512        1.028      261.771       61.676        0.056      340.791       15.051      861.919
06/21/2013  00:25:00     -198.915      379.783      -66.803       99.814      118.858       69.754     9962.735    14127.181     4865.572       10.860        1.448      428.722       54.236        0.016      340.810       15.084      861.935
06/21/2013  00:26:00     -183.135      227.796      -41.039      152.085      138.511       73.856    23129.770    19185.325     5454.692        6.743        2.388      292.283       90.256        0.095      340.764       15.007      861.946
06/21/2013  00:27:00     -130.199      237.068      -17.258       90.387      108.129       83.236     8169.895    11691.986     6928.279        5.012        1.340      270.468       77.181        0.081      340.701       14.900      861.962
06/21/2013  00:28:00     -109.997      203.320      -30.628       71.480       99.948       51.229     5109.397     9989.591     2624.437        3.605        0.886      231.168       50.862        0.048      340.679       14.864      861.976
06/21/2013  00:29:00     -120.143      207.844      -30.873       68.562       72.888       49.145     4700.737     5312.696     2415.217        3.551        0.621      240.070       41.771        0.030      340.617       14.755      861.984
06/21/2013  00:30:00     -100.796      235.543      -23.848       81.879      102.033       60.549     6704.226    10410.786     3666.164        4.349        1.039      256.203       62.866        0.060      340.527       14.605      861.981
06/21/2013  00:31:00     -174.958      267.423      -42.427       70.200       91.220       46.425     4928.038     8321.048     2155.235        5.966        0.770      319.571       42.057        0.017      340.491       14.545      861.982
06/21/2013  00:32:00     -184.704      241.194      -41.103       96.048       92.212       59.690     9225.156     8502.978     3562.925        5.763        1.065      303.793       51.165        0.028      340.435       14.449      861.984
06/21/2013  00:33:00     -135.895      176.172      -32.427       53.983       81.142       47.530     2914.141     6584.080     2259.066        3.115        0.588      222.495       33.752        0.023      340.395       14.381      861.983
06/21/2013  00:34:00     -182.310      224.688      -49.240       76.330       96.305       45.161     5826.247     9274.662     2039.524        5.164        0.857      289.347       42.915        0.022      340.326       14.265      861.999
06/21/2013  00:35:00     -133.019      225.285      -25.602       61.639       79.933       46.318     3799.323     6389.246     2145.361        4.072        0.617      261.625       40.268        0.024      340.246       14.130      861.991
06/21/2013  00:36:00     -171.620      199.753      -36.137      104.492      112.142       61.304    10918.675    12575.774     3758.126        4.895        1.363      263.353       72.709        0.076      340.243       14.124      861.982
06/21/2013  00:37:00     -116.848      221.196      -22.760       74.495       92.500       50.378     5549.529     8556.208     2537.957        3.987        0.832      250.162       44.828        0.032      340.164       13.991      861.965
06/21/2013  00:38:00     -141.995      201.811      -37.233       52.372       88.550       44.068     2742.862     7841.048     1941.947        3.740        0.626      246.760       40.884        0.027      340.172       14.005      861.951
06/21/2013  00:39:00     -133.421      145.158      -17.587       56.573       89.304       44.246     3200.452     7975.176     1957.704        2.615        0.657      197.160       37.948        0.037      340.135       13.944      861.941
06/21/2013  00:40:00     -113.780      160.808      -22.606       73.782      131.474       53.018     5443.763    17285.387     2810.903        3.242        1.277      196.990       61.507        0.097      340.092       13.873      861.919
06/21/2013  00:41:00     -168.067      199.922      -30.862       85.174       85.152       48.366     7254.542     7250.942     2339.285        4.300        0.842      261.180       42.267        0.026      340.062       13.820      861.910
06/21/2013  00:42:00     -106.471      178.673      -13.073       64.526       72.309       49.250     4163.623     5228.635     2425.518        2.762        0.591      207.991       43.146        0.043      339.998       13.713      861.884
06/21/2013  00:43:00     -136.850      162.789      -25.598       78.963       74.566       47.851     6235.203     5560.118     2289.690        2.998        0.704      212.669       39.259        0.034      340.031       13.771      861.869
06/21/2013  00:44:00     -125.620      252.424      -35.700       80.336       75.473       46.218     6453.825     5696.172     2136.086        4.753        0.714      281.954       44.794        0.025      340.006       13.724      861.847
06/21/2013  00:45:00     -125.567      159.270      -22.659       80.977       62.792       39.936     6557.316     3942.842     1594.902        2.687        0.605      202.815       35.336        0.030      340.003       13.720      861.843
06/21/2013  00:46:00     -128.037      180.760      -31.311       57.065       77.673       38.998     3256.410     6033.149     1520.839        3.043        0.541      221.512       29.942        0.018      339.981       13.683      861.817
06/21/2013  00:47:00     -128.078      153.364      -20.381       65.084       65.177       49.264     4235.935     4248.006     2426.908        2.562        0.546      199.811       47.216        0.056      339.964       13.656      861.813
06/21/2013  00:48:00     -123.831      183.553      -27.669       50.251       57.575       31.115     2525.134     3314.878      968.130        2.830        0.340      221.418       26.369        0.014      339.984       13.688      861.794
06/21/2013  00:49:00     -155.384      138.955      -27.061       70.613       71.801       39.102     4986.206     5155.356     1528.939        2.793        0.584      208.453       20.256        0.009      340.029       13.765      861.795
06/21/2013  00:50:00     -196.942      247.094      -42.326       84.846       91.142       53.911     7198.816     8306.816     2906.450        6.002        0.921      315.977       42.788        0.018      340.039       13.780      861.787
06/21/2013  00:51:00     -204.349      182.592      -23.661      123.834      103.862       62.904    15334.900    10787.241     3956.953        5.286        1.504      274.041       60.187        0.048      340.072       13.836      861.791
06/21/2013  00:52:00     -159.912      234.729      -25.326      103.753      117.182       59.464    10764.686    13731.642     3535.980        5.467        1.402      284.024       59.797        0.044      340.030       13.766      861.790
06/21/2013  00:53:00     -189.305      184.726      -42.696      112.779       85.368       56.085    12719.143     7287.625     3145.550        4.746        1.158      264.500       62.431        0.056      340.046       13.794      861.785
06/21/2013  00:54:00     -153.996      232.592      -26.650       93.663       98.799       56.469     8772.679     9761.318     3188.695        5.012        1.086      278.952       50.304        0.033      340.019       13.746      861.770
06/21/2013  00:55:00     -188.645      188.590      -30.787       70.940       93.291       55.049     5032.446     8703.246     3030.429        4.443        0.838      266.746       48.622        0.033      340.007       13.726      861.767
06/21/2013  00:56:00     -176.789      175.240      -29.779      106.044       82.906       49.020    11245.227     6873.399     2402.955        4.168        1.026      248.924       50.808        0.042      339.982       13.685      861.750
06/21/2013  00:57:00     -183.994      191.586      -40.216       70.782       78.793       46.534     5010.094     6208.282     2165.446        4.278        0.669      265.629       41.153        0.024      339.969       13.662      861.749
06/21/2013  00:58:00     -173.342      208.876      -38.462       88.688       94.208       55.268     7865.644     8875.188     3054.528        4.747        0.990      271.434       55.327        0.042      339.949       13.629      861.736
06/21/2013  00:59:00     -162.014      178.023      -34.665       67.161       79.080       46.341     4510.575     6253.685     2147.489        3.602        0.646      240.709       47.827        0.039      339.927       13.594      861.734
06/21/2013  01:00:00     -144.646      185.923      -35.631       60.011       70.526       46.834     3601.360     4973.854     2193.418        3.376        0.538      235.563       41.514        0.031      339.919       13.579      861.722
06/21/2013  01:01:00     -102.513      196.700      -27.060       59.216       65.091       38.027     3506.495     4236.827     1446.023        2.956        0.459      221.811       26.979        0.015      339.901       13.549      861.722
06/21/2013  01:02:00     -138.112      189.460      -31.325       91.277       79.259       45.676     8331.556     6281.925     2086.272        3.632        0.835      234.456       52.560        0.050      339.915       13.572      861.725
06/21/2013  01:03:00     -139.771      229.832      -25.129       89.586      106.597       46.698     8025.589    11363.021     2180.664        4.728        1.078      268.996       57.695        0.046      339.892       13.533      861.737
06/21/2013  01:04:00     -165.540      147.390      -33.227       55.768       88.062       40.203     3110.015     7754.955     1616.302        3.135        0.624      221.647       35.661        0.026      339.923       13.586      861.739
06/21/2013  01:05:00     -135.546      213.411      -32.684       98.560       87.565       49.676     9714.113     7667.636     2467.728        4.241        0.992      252.818       58.199        0.053      339.875       13.506      861.756
06/21/2013  01:06:00     -136.056      214.187      -37.549       58.669       62.430       41.443     3442.091     3897.461     1717.481        3.743        0.453      253.746       28.907        0.013      339.867       13.490      861.762
06/21/2013  01:07:00     -110.925      240.462      -26.305       63.555       95.039       47.058     4039.209     9032.489     2214.486        4.305        0.764      264.814       49.744        0.035      339.829       13.427      861.779
06/21/2013  01:08:00     -135.671      188.564      -35.832       75.894       87.348       51.988     5759.846     7629.721     2702.777        3.567        0.805      232.299       49.646        0.046      339.825       13.421      861.788
06/21/2013  01:09:00     -134.345      141.313      -25.093       65.552       56.390       38.893     4297.053     3179.888     1512.691        2.382        0.449      194.982       30.859        0.025      339.815       13.405      861.797
06/21/2013  01:10:00      -86.924      202.324      -22.258       61.280       85.537       47.201     3755.209     7316.529     2227.908        3.114        0.665      220.206       45.109        0.042      339.786       13.355      861.789
06/21/2013  01:11:00      -68.726      148.326      -12.485       65.406       70.547       43.802     4277.912     4976.826     1918.597        1.902        0.559      163.475       40.993        0.063      339.764       13.320      861.777
06/21/2013  01:12:00     -146.253      191.467      -33.255       81.744      122.242       44.733     6682.001    14943.218     2001.001        4.139        1.181      240.935       47.467        0.039      339.790       13.363      861.777
06/21/2013  01:13:00     -130.594      192.834      -25.318       67.551       88.317       46.653     4563.160     7799.813     2176.463        3.471        0.727      232.894       39.441        0.029      339.765       13.318      861.755
06/21/2013  01:14:00     -167.179      145.881      -24.440       67.042       71.813       44.613     4494.601     5157.110     1990.312        3.073        0.582      221.879       41.465        0.035      339.771       13.328      861.753
06/21/2013  01:15:00     -199.894      185.634      -40.242       78.189       97.379       52.065     6113.549     9482.764     2710.756        4.717        0.915      272.796       53.418        0.038      339.757       13.307      861.748
06/21/2013  01:16:00     -154.323      199.553      -29.042       89.835      105.754       50.681     8070.358    11183.926     2568.605        4.315        1.091      252.263       41.360        0.027      339.736       13.271      861.724
06/21/2013  01:17:00     -163.218      141.128      -16.872      105.309       70.497       55.346    11089.955     4969.832     3063.229        3.298        0.956      215.771       47.604        0.049      339.728       13.259      861.714
06/21/2013  01:18:00     -191.651      195.744      -43.301       87.587       80.293       46.862     7671.398     6446.944     2196.053        4.661        0.816      273.945       49.816        0.033      339.769       13.327      861.700
06/21/2013  01:19:00     -164.387      181.068      -28.039       70.351      122.673       50.263     4949.332    15048.558     2526.327        4.156        1.126      244.558       50.803        0.043      339.768       13.324      861.699
06/21/2013  01:20:00     -192.874      225.471      -42.166       73.532      112.480       55.426     5406.967    12651.756     3071.994        5.547        1.057      296.712       52.102        0.031      339.759       13.309      861.685
06/21/2013  01:21:00     -158.168      171.689      -30.736       77.860       87.220       41.925     6062.129     7607.332     1757.690        3.543        0.771      233.440       35.068        0.023      339.758       13.308      861.681
06/21/2013  01:22:00     -173.609      201.666      -35.012       76.700      104.051       43.856     5882.833    10826.526     1923.321        4.533        0.932      266.100       40.999        0.024      339.754       13.301      861.688
06/21/2013  01:23:00     -192.217      244.895      -50.278       78.189       69.871       47.112     6113.576     4881.896     2219.534        5.633        0.661      311.321       46.510        0.022      339.767       13.322      861.681
06/21/2013  01:24:00     -183.116      165.218      -33.622       72.311       71.820       44.190     5228.926     5158.111     1952.781        3.715        0.617      246.634       41.230        0.028      339.748       13.293      861.689
06/21/2013  01:25:00     -215.847      173.880      -52.679       84.149       89.510       46.466     7081.074     8012.038     2159.064        4.842        0.863      277.172       49.725        0.032      339.756       13.306      861.699
06/21/2013  01:26:00     -169.868      160.894      -37.656       77.647       74.017       43.199     6029.134     5478.504     1866.134        3.476        0.669      233.970       46.909        0.040      339.716       13.238      861.708
06/21/2013  01:27:00     -147.384      170.943      -31.034       74.417       67.447       51.915     5537.905     4549.116     2695.130        3.234        0.639      225.707       44.094        0.038      339.715       13.235      861.722
06/21/2013  01:28:00     -205.029      178.880      -51.823       80.394       76.843       46.714     6463.125     5904.894     2182.163        4.563        0.728      272.094       48.309        0.032      339.699       13.210      861.721
06/21/2013  01:29:00     -165.426      169.748      -20.080       80.175       82.008       47.515     6427.966     6725.300     2257.652        3.599        0.771      237.023       36.508        0.024      339.677       13.171      861.725
06/21/2013  01:30:00     -185.883      158.366      -38.226       46.602       95.710       36.713     2171.717     9160.319     1347.834        3.688        0.634      244.197       35.262        0.021      339.708       13.223      861.721
06/21/2013  01:31:00     -168.135      212.054      -42.118       57.305       99.603       39.288     3283.817     9920.693     1543.531        4.488        0.737      270.622       40.630        0.023      339.704       13.216      861.713
06/21/2013  01:32:00     -197.842      154.028      -32.439       86.577       73.844       48.298     7495.583     5452.959     2332.686        3.960        0.764      250.731       29.817        0.014      339.677       13.171      861.714
06/21/2013  01:33:00     -171.115      155.061      -34.218       85.306       64.892       49.122     7277.129     4211.006     2412.981        3.420        0.695      230.921       48.564        0.044      339.682       13.181      861.714
06/21/2013  01:34:00     -175.401      198.478      -42.203       71.982       84.458       45.134     5181.448     7133.212     2037.052        4.314        0.718      264.876       40.342        0.023      339.679       13.173      861.728
06/21/2013  01:35:00     -156.394      207.845      -40.124       77.321      106.588       53.274     5978.500    11360.950     2838.105        4.472        1.009      260.112       57.056        0.048      339.669       13.159      861.730
06/21/2013  01:36:00     -228.380      185.385      -40.259      100.346       83.779       63.718    10069.226     7018.917     4060.006        5.464        1.057      294.152       55.954        0.036      339.680       13.178      861.740
06/21/2013  01:37:00     -235.924      201.808      -44.697       97.801       95.201       50.389     9565.030     9063.310     2539.101        5.977        1.058      310.462       32.458        0.011      339.691       13.194      861.739
06/21/2013  01:38:00     -222.138      173.011      -28.226       98.246      126.406       59.772     9652.342    15978.531     3572.697        5.463        1.460      281.564       60.582        0.046      339.702       13.214      861.736
06/21/2013  01:39:00     -225.833      151.957      -39.032       94.107       91.326       52.152     8856.122     8340.456     2719.878        4.776        0.996      272.198       49.188        0.033      339.691       13.194      861.747
06/21/2013  01:40:00     -197.481      117.221      -32.632       78.244       64.895       42.428     6122.160     4211.353     1800.176        3.297        0.607      229.650       36.804        0.026      339.694       13.199      861.738
06/21/2013  01:41:00     -155.729      133.674      -18.496       70.709       81.413       45.542     4999.702     6628.110     2074.072        2.808        0.685      205.232       39.936        0.038      339.688       13.192      861.735
06/21/2013  01:42:00     -222.637      159.769      -43.600       72.866       83.769       50.284     5309.519     7017.162     2528.493        4.592        0.743      274.031       35.513        0.017      339.745       13.286      861.749
06/21/2013  01:43:00     -140.144       55.711      -10.458       91.392       58.398       41.834     8352.435     3410.312     1750.052        1.818        0.676      150.811       46.535        0.095      339.771       13.333      861.732
06/21/2013  01:44:00     -205.801      152.858      -44.069       67.628       80.719       41.297     4573.515     6515.578     1705.410        4.023        0.640      256.358       37.244        0.021      339.761       13.312      861.751
06/21/2013  01:45:00     -128.640      113.984      -15.823       66.739       58.107       31.668     4454.125     3376.403     1002.837        1.931        0.442      171.874       26.904        0.025      339.727       13.257      861.755
06/21/2013  01:46:00      -75.054      -18.442        0.501       39.200       53.712       27.494     1536.625     2885.008      755.897        0.557        0.259       77.286       24.040        0.097      339.770       13.332      861.768
06/21/2013  01:47:00      -61.977       18.893        6.618       65.674       50.438       40.436     4313.024     2544.013     1635.087        0.637        0.425       64.793       41.905        0.418      339.731       13.266      861.785
06/21/2013  01:48:00     -106.391      142.213      -26.007       83.626       90.511       41.488     6993.354     8192.195     1721.291        2.456        0.845      177.605       43.714        0.061      339.739       13.277      861.797
06/21/2013  01:49:00      -77.685       28.967       -3.482       62.495       23.689       30.790     3905.635      561.149      948.055        0.615        0.271       82.910       31.522        0.145      339.729       13.264      861.825
06/21/2013  01:50:00      -45.084        7.427        2.841       40.386       24.111       28.310     1631.024      581.344      801.445        0.255        0.151       45.691       21.489        0.221      339.699       13.211      861.851
06/21/2013  01:51:00       12.273      -36.424      -10.997       35.993       34.879       24.730     1295.476     1216.577      611.591        0.236        0.156       38.436       17.202        0.200      339.785       13.357      861.860
06/21/2013  01:52:00       -3.324        3.178       37.858       27.497       42.865       25.161      756.061     1837.410      633.055        0.234        0.161        4.599       22.536       24.016      339.692       13.199      861.878
06/21/2013  01:53:00       14.190      -44.873       35.640       44.418       67.024       45.977     1972.998     4492.274     2113.877        0.603        0.429       47.063       36.148        0.590      339.712       13.232      861.890
06/21/2013  01:54:00       41.282      -70.771       27.276       61.037       94.810       54.651     3725.568     8988.900     2986.758        1.158        0.785       81.931       49.298        0.362      339.709       13.229      861.898
06/21/2013  01:55:00       44.514      -42.311       34.317       67.298      106.426       57.198     4528.967    11326.516     3271.596        1.203        0.956       61.414       59.108        0.926      339.664       13.152      861.905
06/21/2013  01:56:00       49.374      -37.155       50.391       65.691      100.109       67.931     4315.370    10021.837     4614.672        1.265        0.948       61.792       75.858        1.507      339.751       13.299      861.924
06/21/2013  01:57:00       85.231       61.785       77.015       41.418       48.236       46.610     1715.450     2326.734     2172.516        1.161        0.311      105.270       35.612        0.114      339.786       13.359      861.938
06/21/2013  01:58:00       55.647     -117.296       -9.526       38.400       64.780       35.078     1474.592     4196.493     1230.494        1.192        0.345      129.827       34.465        0.070      339.788       13.362      861.935
06/21/2013  01:59:00       59.586     -124.928      -18.943       34.368       41.922       21.471     1181.166     1757.485      461.017        1.146        0.170      138.410       16.336        0.014      339.728       13.259      861.944
06/21/2013  02:00:00       55.304     -122.896      -19.187       38.944       42.903       30.282     1516.644     1840.702      916.994        1.140        0.214      134.767       27.253        0.041      339.828       13.429      861.947
06/21/2013  02:01:00       43.179      -73.050        1.779       38.201       42.275       29.739     1459.280     1787.214      884.403        0.567        0.207       84.857       26.541        0.098      339.786       13.359      861.951
06/21/2013  02:02:00       42.047      -94.772      -11.662       24.058       26.714       19.843      578.773      713.632      393.748        0.629        0.084      103.680        7.508        0.005      339.756       13.309      861.950
06/21/2013  02:03:00       25.248      -57.891       -4.518       42.294       31.618       22.953     1788.768      999.706      526.847        0.366        0.166       63.157       22.526        0.127      339.721       13.247      861.961
06/21/2013  02:04:00       53.384      -61.603       -2.278       23.698       23.510       17.357      561.585      552.706      301.249        0.403        0.071       81.515       14.062        0.030      339.726       13.259      861.981
06/21/2013  02:05:00       41.078       -1.010       21.876       24.055       17.634       17.562      578.661      310.948      308.412        0.168        0.060       41.091       15.470        0.142      339.627       13.090      861.980
06/21/2013  02:06:00       27.236      -37.815        1.991       24.850       25.542       13.793      617.528      652.418      190.240        0.182        0.073       46.602       13.386        0.083      339.699       13.212      861.970
06/21/2013  02:07:00      -10.013      -22.679        2.677       30.599       26.769       20.640      936.294      716.596      426.026        0.135        0.104       24.791       13.767        0.308      339.651       13.132      861.964
06/21/2013  02:08:00      -52.959      -13.430        3.300       30.560       25.191       18.330      933.942      634.601      335.980        0.245        0.095       54.635       14.660        0.072      339.551       12.961      861.974
06/21/2013  02:09:00      -20.530        9.933        2.575       27.503       23.239       12.895      756.439      540.046      166.282        0.099        0.073       22.807       15.139        0.441      339.545       12.952      861.990
06/21/2013  02:10:00       30.590       56.370       -6.385       19.540       25.747       13.566      381.797      662.884      184.033        0.269        0.061       64.135       13.279        0.043      339.505       12.884      861.994
06/21/2013  02:11:00       52.669       43.381       -0.731       32.882       28.271       24.765     1081.204      799.227      613.304        0.357        0.125       68.234       16.898        0.061      339.299       12.536      861.992
06/21/2013  02:12:00      142.002       90.822        5.775       37.010       37.266       26.124     1369.759     1388.763      682.455        1.594        0.172      168.562       18.067        0.011      339.278       12.502      861.990
06/21/2013  02:13:00      129.610       80.234        7.083       40.940       31.266       23.672     1676.102      977.574      560.353        1.325        0.161      152.434       14.433        0.009      339.257       12.467      861.998
06/21/2013  02:14:00      130.914      103.490       17.230       52.843       43.841       43.396     2792.357     1922.069     1883.189        1.737        0.330      166.879       32.591        0.038      339.140       12.269      862.014
06/21/2013  02:15:00      136.705       93.054       10.676       74.996       53.872       35.207     5624.365     2902.200     1239.540        1.861        0.488      165.370       35.506        0.046      339.092       12.186      862.025
06/21/2013  02:16:00      123.902      102.248       23.723       64.039       48.707       44.414     4100.983     2372.351     1972.588        1.741        0.422      160.644       28.996        0.033      339.096       12.194      862.032
06/21/2013  02:17:00      115.072      102.011       18.009       88.765       52.126       45.655     7879.211     2717.123     2084.408        1.832        0.634      153.778       37.261        0.059      339.054       12.122      862.029
06/21/2013  02:18:00       88.749       94.593        3.241       72.123       63.633       57.464     5201.769     4049.213     3302.069        1.469        0.628      129.708       39.048        0.091      339.066       12.144      862.043
06/21/2013  02:19:00       40.300      128.913       -9.848       54.353      103.542       50.381     2954.267    10720.970     2538.280        1.727        0.811      135.065       61.082        0.205      339.274       12.492      862.039
06/21/2013  02:20:00       31.300      214.528      -25.065       52.192       98.385       50.899     2724.030     9679.514     2590.670        3.131        0.750      216.800       52.393        0.058      339.231       12.421      862.032
06/21/2013  02:21:00       30.962      312.338      -42.410       44.260       70.236       38.603     1958.948     4933.126     1490.155        5.435        0.419      313.869       38.258        0.015      339.382       12.671      862.034
06/21/2013  02:22:00      -26.675      258.329      -31.104       49.386       48.742       34.779     2438.956     2375.774     1209.606        3.722        0.301      259.702       30.123        0.013      339.392       12.688      862.022
06/21/2013  02:23:00      -54.485      218.955      -28.966       39.961       75.695       32.021     1596.854     5729.792     1025.336        3.005        0.418      225.632       35.479        0.025      339.394       12.694      862.017
06/21/2013  02:24:00      -41.381      197.052      -16.161       41.963       84.251       31.481     1760.883     7098.276      991.039        2.532        0.493      201.350       27.538        0.019      339.406       12.717      862.014
06/21/2013  02:25:00      -17.432      194.751      -17.560       62.052       91.137       42.036     3850.421     8306.004     1766.996        2.623        0.696      195.529       52.020        0.071      339.402       12.706      862.014
06/21/2013  02:26:00       11.309      154.222       -1.875       40.081       54.184       43.913     1606.465     2935.916     1928.370        1.519        0.324      154.636       31.014        0.040      339.318       12.568      862.010
06/21/2013  02:27:00       33.092       97.595       -0.886       64.481       40.352       31.264     4157.758     1628.310      977.423        0.869        0.338      103.052       27.618        0.072      339.320       12.572      861.992
06/21/2013  02:28:00      103.128       68.169        9.577       37.407       36.472       33.548     1399.302     1330.179     1125.487        0.961        0.193      123.622       23.988        0.038      339.301       12.539      861.992
06/21/2013  02:29:00      124.596       73.719        7.750       34.200       37.947       29.406     1169.660     1439.970      864.738        1.225        0.174      144.771       12.326        0.007      339.258       12.469      862.005
06/21/2013  02:30:00      114.659       58.042        5.467       28.411       20.740       22.521      807.202      430.155      507.190        0.914        0.087      128.513       15.587        0.015      339.209       12.387      862.020
06/21/2013  02:31:00      139.583       79.588       17.458       47.311       44.464       36.192     2238.337     1977.059     1309.842        1.582        0.276      160.679       22.339        0.019      339.228       12.417      862.019
06/21/2013  02:32:00      164.849       94.146       24.833       43.268       43.393       41.480     1872.107     1882.956     1720.607        2.106        0.274      189.838       27.329        0.021      339.137       12.263      862.027
06/21/2013  02:33:00      184.719      119.932       25.134       44.287       46.925       43.163     1961.302     2201.946     1863.020        2.758        0.301      220.238       27.780        0.016      339.087       12.176      862.032
06/21/2013  02:34:00      169.628      110.771       44.830       55.211       52.102       39.971     3048.306     2714.577     1597.652        2.521        0.368      202.593       32.036        0.025      339.047       12.110      862.038
06/21/2013  02:35:00      129.375       97.803       55.893       60.000       41.366       44.673     3600.038     1711.154     1995.646        1.837        0.365      162.183       38.427        0.056      339.031       12.086      862.034
06/21/2013  02:36:00      161.901       93.107       38.601       56.499       41.194       42.932     3192.111     1696.951     1843.178        2.155        0.337      186.764       27.076        0.021      339.011       12.050      862.052
06/21/2013  02:37:00      200.247      103.438       20.786       70.322       51.881       46.394     4945.209     2691.620     2152.364        3.051        0.489      225.385       40.240        0.032      339.083       12.170      862.069
06/21/2013  02:38:00      178.283      104.004       18.739       49.025       55.613       37.090     2403.443     3092.759     1375.648        2.491        0.344      206.402       25.676        0.015      339.038       12.095      862.074
06/21/2013  02:39:00      127.060       88.087       15.748       69.795       51.721       47.892     4871.339     2675.042     2293.597        1.699        0.492      154.607       34.210        0.049      338.985       12.007      862.083
06/21/2013  02:40:00      150.696       96.568       24.017       65.694       38.849       43.564     4315.699     1509.273     1897.797        2.017        0.386      178.982       24.305        0.018      338.961       11.966      862.090
06/21/2013  02:41:00      135.578      102.301       37.665       61.442       52.095       58.734     3775.096     2713.840     3449.635        2.010        0.497      169.844       40.733        0.058      338.942       11.935      862.103
06/21/2013  02:42:00      122.678       88.564       15.888       79.720       61.177       49.899     6355.228     3742.672     2489.866        1.786        0.629      151.306       37.642        0.062      338.928       11.911      862.111
06/21/2013  02:43:00      172.966      135.671       27.797       96.922       61.372       51.294     9393.866     3766.492     2631.070        3.244        0.790      219.826       41.108        0.035      338.895       11.854      862.112
06/21/2013  02:44:00      166.341      114.753       19.308       74.360       58.013       55.133     5529.367     3365.526     3039.643        2.657        0.597      202.083       32.221        0.025      338.879       11.828      862.111
06/21/2013  02:45:00      106.834      135.814       -4.683       87.524       71.622       55.310     7660.367     5129.663     3059.184        2.286        0.792      172.797       46.035        0.071      338.864       11.803      862.119
06/21/2013  02:46:00      100.310      122.757        6.813       88.262       87.554       74.883     7790.150     7665.723     5607.509        2.312        1.053      158.529       52.485        0.110      338.922       11.901      862.138
06/21/2013  02:47:00       85.506      174.772      -13.614       69.585      109.109       70.508     4842.046    11904.799     4971.389        2.988        1.086      194.568       66.691        0.117      338.916       11.890      862.164
06/21/2013  02:48:00       56.966      149.328       -0.487       88.648       93.926       70.738     7858.381     8822.017     5003.843        2.361        1.084      159.825       62.279        0.152      338.950       11.948      862.177
06/21/2013  02:49:00       52.570      101.820        1.471       66.143       84.070       60.784     4374.889     7067.737     3694.723        1.413        0.757      114.590       48.941        0.182      339.038       12.097      862.173
06/21/2013  02:50:00       46.436      173.228      -19.668       63.775       85.538       52.603     4067.285     7316.665     2767.024        2.335        0.708      179.344       53.034        0.087      339.055       12.123      862.182
06/21/2013  02:51:00       42.970      109.763       12.716       54.742       84.362       54.083     2996.674     7116.948     2924.992        1.354        0.652      117.874       52.328        0.197      339.046       12.111      862.189
06/21/2013  02:52:00       43.819      128.597      -12.919       50.772       78.095       46.703     2577.747     6098.841     2181.195        1.474        0.543      135.857       44.814        0.109      339.033       12.088      862.209
06/21/2013  02:53:00       37.852      124.343       -5.954       59.759       95.653       54.602     3571.161     9149.458     2981.392        1.631        0.785      129.977       60.919        0.220      338.964       11.973      862.222
06/21/2013  02:54:00       57.034      141.016       -2.492       73.292       92.740       60.222     5371.769     8600.649     3626.739        2.037        0.880      152.113       55.419        0.133      338.992       12.019      862.227
06/21/2013  02:55:00       43.721      147.861       -8.737       59.900       95.503       66.761     3587.994     9120.787     4457.095        2.051        0.858      154.190       60.372        0.153      339.026       12.075      862.237
06/21/2013  02:56:00       27.150      194.941       -5.443       61.669      101.624       56.595     3803.014    10327.524     3203.012        2.805        0.867      196.822       62.194        0.100      339.116       12.225      862.230
06/21/2013  02:57:00       25.961      175.774      -11.709       62.164       92.929       56.484     3864.363     8635.836     3190.459        2.370        0.785      177.681       52.618        0.088      339.134       12.256      862.222
06/21/2013  02:58:00       18.599      181.824       -4.550       54.387      102.419       62.080     2957.935    10489.657     3853.937        2.536        0.865      182.772       65.591        0.129      339.153       12.289      862.207
06/21/2013  02:59:00       13.985      253.776      -22.425       51.390       81.059       43.516     2640.902     6570.632     1893.642        3.810        0.555      254.161       42.653        0.028      339.163       12.305      862.197
06/21/2013  03:00:00       -5.640      278.926      -29.595       52.846       70.817       36.530     2792.695     5015.035     1334.460        4.392        0.457      278.983       38.845        0.019      339.240       12.435      862.175
06/21/2013  03:01:00       -1.387      257.867      -34.948       45.012       62.949       29.976     2026.038     3962.546      898.531        3.730        0.344      257.871       28.597        0.012      339.206       12.376      862.161
06/21/2013  03:02:00      -13.668      220.496      -16.221       48.744       92.943       39.752     2375.973     8638.334     1580.242        3.083        0.630      220.919       46.451        0.044      339.096       12.193      862.133
06/21/2013  03:03:00      -12.000      272.982      -38.834       68.983       58.233       37.870     4758.652     3391.046     1434.129        4.288        0.479      273.246       32.026        0.014      339.193       12.354      862.114
06/21/2013  03:04:00      -14.767      204.518      -20.619       45.422       63.779       27.869     2063.164     4067.824      776.658        2.469        0.345      205.051       27.127        0.018      339.161       12.302      862.114
06/21/2013  03:05:00       -3.168      184.762      -19.821       43.559       67.118       28.321     1897.361     4504.812      802.065        2.087        0.360      184.789       36.984        0.040      339.117       12.228      862.113
06/21/2013  03:06:00      -22.694      189.201      -28.564       47.156       55.351       26.949     2223.676     3063.774      726.264        2.157        0.301      190.558       22.940        0.014      339.108       12.214      862.114
06/21/2013  03:07:00      -10.554      140.468      -18.918       39.306       49.194       25.666     1544.947     2420.094      658.724        1.241        0.231      140.864       25.989        0.034      339.065       12.142      862.112
06/21/2013  03:08:00      -16.291      185.556      -24.618       32.184       41.069       24.152     1035.800     1686.654      583.306        1.930        0.165      186.270       19.447        0.011      339.066       12.145      862.102
06/21/2013  03:09:00      -40.897      136.793      -16.502       38.732       37.772       24.109     1500.193     1426.720      581.250        1.208        0.175      142.776       16.029        0.013      339.063       12.141      862.112
06/21/2013  03:10:00      -27.429      178.763      -14.503       46.305       57.340       32.534     2144.135     3287.831     1058.472        1.970        0.325      180.855       32.085        0.031      338.983       12.004      862.105
06/21/2013  03:11:00      -35.724      244.589      -26.805       43.890       41.893       20.703     1926.309     1755.025      428.625        3.296        0.205      247.184       18.603        0.006      339.009       12.044      862.108
06/21/2013  03:12:00      -10.076      214.700      -21.864       46.455       54.307       27.735     2158.083     2949.230      769.211        2.627        0.294      214.936       25.551        0.014      338.980       11.999      862.119
06/21/2013  03:13:00       11.461      224.834      -27.745       42.589       55.749       29.247     1813.825     3107.906      855.382        2.861        0.289      225.126       18.344        0.007      338.945       11.937      862.129
06/21/2013  03:14:00        1.980      174.820      -19.034       40.390       57.535       36.587     1631.365     3310.233     1338.625        1.860        0.314      174.832       34.187        0.038      338.850       11.781      862.138
06/21/2013  03:15:00       -3.889      201.033      -30.862       41.040       65.415       31.105     1684.246     4279.112      967.510        2.416        0.347      201.071       31.502        0.025      338.882       11.834      862.140
06/21/2013  03:16:00      -24.970      241.484      -29.572       40.956       55.995       33.274     1677.389     3135.466     1107.162        3.287        0.296      242.772       33.193        0.019      338.850       11.778      862.143
06/21/2013  03:17:00      -71.120      247.081      -28.304       55.913       60.659       28.549     3126.275     3679.492      815.044        3.726        0.381      257.113       26.979        0.011      338.850       11.778      862.152
06/21/2013  03:18:00      -47.769      212.454      -25.168       43.015       45.914       27.980     1850.327     2108.087      782.866        2.640        0.237      217.758       21.033        0.009      338.832       11.749      862.159
06/21/2013  03:19:00      -65.645      234.401      -29.277       46.700       67.836       30.321     2180.895     4601.701      919.336        3.390        0.385      243.419       30.186        0.015      338.825       11.736      862.150
06/21/2013  03:20:00     -105.969      161.751      -31.278       51.845       69.754       29.620     2687.953     4865.600      877.346        2.340        0.422      193.372       32.744        0.029      338.826       11.738      862.141
06/21/2013  03:21:00     -119.046      158.284      -29.315       50.854       72.480       42.304     2586.158     5253.358     1789.631        2.486        0.481      198.055       37.751        0.036      338.824       11.734      862.144
06/21/2013  03:22:00     -122.139      164.631      -34.146       42.944       57.152       30.255     1844.212     3266.300      915.379        2.461        0.301      204.991       34.685        0.029      338.827       11.741      862.155
06/21/2013  03:23:00      -98.322      131.128      -21.970       32.405       65.771       29.927     1050.060     4325.878      895.643        1.681        0.314      163.896       21.517        0.017      338.799       11.695      862.150
06/21/2013  03:24:00     -117.319      108.170      -22.526       38.884       47.108       28.902     1511.976     2219.152      835.338        1.527        0.228      159.576       26.968        0.029      338.833       11.752      862.151
06/21/2013  03:25:00     -156.271      164.052      -27.629       58.239       63.700       34.849     3391.821     4057.644     1214.457        3.038        0.433      226.569       36.608        0.026      338.828       11.740      862.168
06/21/2013  03:26:00     -145.583      166.577      -40.819       42.719       38.551       30.225     1824.875     1486.161      913.523        2.742        0.211      221.230       25.636        0.013      338.865       11.803      862.179
06/21/2013  03:27:00      -82.548       98.535      -20.561       39.033       48.901       24.699     1523.546     2391.340      610.045        1.073        0.226      128.543       26.847        0.044      338.810       11.715      862.186
06/21/2013  03:28:00      -78.738      106.334      -11.847       58.859       77.105       31.970     3464.348     5945.140     1022.085        1.404        0.522      132.312       37.017        0.078      338.798       11.694      862.182
06/21/2013  03:29:00     -131.710      157.736      -36.883       55.922       52.154       30.103     3127.218     2720.090      906.189        2.517        0.338      205.495       30.761        0.022      338.794       11.684      862.178
06/21/2013  03:30:00      -91.847      171.543      -24.195       43.979       54.121       36.275     1934.124     2929.065     1315.852        2.231        0.309      194.584       30.509        0.025      338.762       11.632      862.188
06/21/2013  03:31:00      -97.726      104.317      -17.269       39.594       47.698       32.714     1567.646     2275.069     1070.208        1.282        0.246      142.942       29.262        0.042      338.745       11.607      862.179
06/21/2013  03:32:00     -115.221      123.820      -25.573       51.321       46.835       29.242     2633.838     2193.514      855.066        1.747        0.284      169.136       24.320        0.021      338.757       11.624      862.175
06/21/2013  03:33:00     -133.202      121.202      -34.458       49.945       59.065       29.323     2494.511     3488.714      859.839        2.023        0.342      180.090       34.128        0.036      338.838       11.760      862.179
06/21/2013  03:34:00     -114.989      117.285      -23.665       43.086       52.956       30.589     1856.445     2804.332      935.717        1.657        0.280      164.250       27.970        0.029      338.787       11.675      862.183
06/21/2013  03:35:00     -102.379      119.295      -25.949       61.584       64.824       35.633     3792.607     4202.128     1269.744        1.732        0.463      157.203       30.999        0.039      338.770       11.647      862.171
06/21/2013  03:36:00     -139.103      151.233      -36.940       44.338       64.168       31.140     1965.890     4117.542      969.674        2.532        0.353      205.478       30.268        0.022      338.781       11.664      862.152
06/21/2013  03:37:00      -97.122       87.184      -12.325       49.897       40.439       29.052     2489.690     1635.342      844.019        1.108        0.248      130.513       21.054        0.026      338.768       11.644      862.149
06/21/2013  03:38:00     -160.504      125.135      -40.953       38.583       51.078       25.204     1488.611     2608.932      635.259        2.391        0.237      203.519       28.321        0.019      338.780       11.663      862.157
06/21/2013  03:39:00     -138.855       68.875      -26.271       51.934       32.697       33.271     2697.187     1069.067     1106.980        1.479        0.244      154.999       24.827        0.026      338.732       11.584      862.152
06/21/2013  03:40:00     -140.719       71.433      -18.090       48.301       41.671       29.460     2332.964     1736.474      867.889        1.508        0.247      157.812       21.212        0.018      338.715       11.554      862.141
06/21/2013  03:41:00     -103.573      117.253      -17.344       65.773       74.275       39.535     4326.087     5516.720     1562.983        1.809        0.570      156.447       39.410        0.063      338.714       11.552      862.122
06/21/2013  03:42:00     -120.290       29.737      -10.392       34.378       31.186       20.234     1181.822      972.536      409.420        0.901        0.128      123.911       20.000        0.026      338.758       11.627      862.117
06/21/2013  03:43:00      -84.688        6.627       -9.903       36.457       44.686       22.959     1329.096     1996.827      527.112        0.558        0.193       84.947       25.362        0.089      338.786       11.674      862.125
06/21/2013  03:44:00      -91.771       32.952      -24.899       26.772       43.608       23.710      716.727     1901.700      562.150        0.665        0.159       97.508       14.242        0.021      338.805       11.707      862.116
06/21/2013  03:45:00      -74.192        1.092       -5.204       55.458       22.844       21.324     3075.633      521.826      454.712        0.479        0.203       74.200       25.076        0.114      338.779       11.663      862.112
06/21/2013  03:46:00     -126.358      -21.073       -7.364       47.214       46.990       25.360     2229.120     2208.028      643.109        1.077        0.254      128.103       27.365        0.046      338.781       11.665      862.108
06/21/2013  03:47:00     -112.172       23.852      -19.158       29.723       22.918       21.213      883.460      525.225      450.010        0.769        0.093      114.680       15.321        0.018      338.723       11.567      862.106
06/21/2013  03:48:00      -70.590      -11.875       -9.524       37.013       21.424       17.818     1369.957      458.994      317.491        0.368        0.107       71.582       11.889        0.028      338.769       11.646      862.099
06/21/2013  03:49:00      -96.587       -3.475      -13.579       33.030       46.749       19.275     1090.982     2185.502      371.544        0.659        0.182       96.650       12.760        0.017      338.778       11.660      862.083
06/21/2013  03:50:00      -80.563      -20.101       -7.906       34.798       37.484       17.482     1210.911     1405.080      305.612        0.494        0.146       83.033       11.123        0.018      338.714       11.554      862.078
06/21/2013  03:51:00      -83.844      -14.317      -11.060       26.776       22.245       20.588      716.960      494.837      423.859        0.450        0.082       85.057       17.642        0.043      338.722       11.567      862.071
06/21/2013  03:52:00      -80.454       -6.805       -1.834       51.142       33.060       25.089     2615.482     1092.982      629.445        0.543        0.217       80.741       28.666        0.126      338.715       11.555      862.067
06/21/2013  03:53:00      -93.053        8.079       -6.699       54.336       36.300       26.262     2952.415     1317.692      689.691        0.686        0.248       93.403       26.302        0.079      338.676       11.491      862.067
06/21/2013  03:54:00      -62.652      -15.483       -3.858       28.077       32.323       19.059      788.298     1044.780      363.252        0.319        0.110       64.537       15.963        0.061      338.670       11.481      862.064
06/21/2013  03:55:00     -133.651       -0.050      -19.377       34.873       41.074       21.025     1216.161     1687.034      442.045        1.079        0.167      133.651       14.791        0.012      338.569       11.309      862.065
06/21/2013  03:56:00     -112.685       47.034      -28.672       58.928       62.217       38.338     3472.493     3870.989     1469.800        1.227        0.441      122.107       41.849        0.117      338.667       11.475      862.081
06/21/2013  03:57:00      -65.858      -46.064       -1.906       40.265       32.277       20.074     1621.298     1041.831      402.957        0.476        0.153       80.369       23.328        0.084      338.509       11.207      862.077
06/21/2013  03:58:00      -66.314      -24.377       -3.156       40.057       30.370       24.882     1604.542      922.358      619.121        0.407        0.157       70.652       25.573        0.131      338.508       11.207      862.071
06/21/2013  03:59:00     -100.832      -33.702       -4.456       62.056       46.909       24.116     3850.913     2200.474      581.601        0.898        0.332      106.315       22.366        0.044      338.415       11.051      862.076
06/21/2013  04:00:00      -73.700      -23.359       -0.469       62.012       44.910       23.532     3845.518     2016.933      553.741        0.620        0.321       77.313       26.439        0.117      338.325       10.900      862.074
06/21/2013  04:01:00      -51.756       -8.242        1.514       36.808       26.000       15.384     1354.803      675.979      236.675        0.251        0.113       52.409       12.555        0.057      338.258       10.787      862.076
06/21/2013  04:02:00      -78.023       -9.931      -12.697       39.910       32.815       19.506     1592.825     1076.828      380.488        0.470        0.153       78.653       10.331        0.017      338.218       10.720      862.081
06/21/2013  04:03:00      -93.293       15.520      -12.312       25.054       26.791       15.937      627.702      717.776      253.992        0.535        0.080       94.575       15.615        0.027      338.350       10.944      862.083
06/21/2013  04:04:00      -78.766       -6.144       -7.808       31.912       36.623       24.254     1018.355     1341.254      588.274        0.462        0.147       79.005       15.984        0.041      338.342       10.929      862.082
06/21/2013  04:05:00     -136.619       -2.277      -14.993       37.115       32.596       22.432     1377.551     1062.504      503.211        1.092        0.147      136.638       20.362        0.022      338.310       10.874      862.092
06/21/2013  04:06:00      -78.741      -15.571        0.191       33.601       33.630       20.314     1129.016     1130.987      412.650        0.456        0.134       80.266       14.783        0.034      338.326       10.901      862.090
06/21/2013  04:07:00      -68.520      -24.410       13.404       41.323       33.459       30.271     1707.615     1119.510      916.338        0.461        0.187       72.738       22.902        0.099      338.420       11.061      862.082
06/21/2013  04:08:00      -67.238       -3.429      -10.823       21.478       27.768       14.129      461.323      771.040      199.629        0.304        0.072       67.326        5.456        0.007      338.460       11.127      862.082
06/21/2013  04:09:00      -78.724       19.302      -15.651       24.416       34.121       20.773      596.143     1164.241      431.527        0.450        0.110       81.056        6.190        0.006      338.515       11.218      862.082
06/21/2013  04:10:00      -27.755        4.271       -2.255       21.383       25.360       20.853      457.225      643.152      434.830        0.116        0.077       28.081       14.880        0.281      338.520       11.226      862.088
06/21/2013  04:11:00      -16.303        7.031       -2.332       39.227       27.451       27.698     1538.721      753.561      767.191        0.169        0.153       17.754       24.146        1.850      338.522       11.231      862.093
06/21/2013  04:12:00     -112.779      109.507      -31.523       83.289       71.522       44.083     6937.048     5115.408     1943.328        1.985        0.700      157.198       46.590        0.088      338.577       11.321      862.112
06/21/2013  04:13:00     -125.974      101.652      -21.733       62.647       57.734       27.883     3924.623     3333.233      777.468        1.735        0.402      161.872       25.884        0.026      338.617       11.389      862.119
06/21/2013  04:14:00     -108.561       36.204       -9.506       66.957       63.144       29.012     4483.184     3987.105      841.702        1.125        0.466      114.439       23.019        0.040      338.575       11.319      862.123
06/21/2013  04:15:00      -88.745      118.332      -18.958       61.348       56.070       35.897     3763.546     3143.815     1288.590        1.522        0.410      147.912       35.620        0.058      338.589       11.341      862.128
06/21/2013  04:16:00     -107.481      142.982      -19.239       49.476       71.448       41.597     2447.863     5104.813     1730.350        2.082        0.464      178.874       30.858        0.030      338.577       11.322      862.125
06/21/2013  04:17:00     -102.341       97.028      -20.066       45.488       66.278       32.907     2069.194     4392.775     1082.868        1.392        0.377      141.025       36.761        0.068      338.572       11.315      862.125
06/21/2013  04:18:00      -95.858      112.031      -22.544       43.587       63.797       29.878     1899.855     4070.091      892.667        1.455        0.343      147.444       32.236        0.048      338.571       11.312      862.124
06/21/2013  04:19:00     -125.163       91.468      -27.343       61.373       55.939       39.154     3766.664     3129.130     1533.065        1.660        0.421      155.023       44.495        0.082      338.586       11.337      862.121
06/21/2013  04:20:00      -73.809       62.627      -13.888       35.969       41.000       23.711     1293.754     1680.991      562.233        0.655        0.177       96.799       20.273        0.044      338.569       11.308      862.118
06/21/2013  04:21:00      -96.043       40.448      -23.056       48.733       55.369       21.758     2374.863     3065.782      473.417        0.865        0.296      104.213       11.149        0.011      338.571       11.313      862.126
06/21/2013  04:22:00     -118.247      106.877      -22.575       52.804       70.387       40.988     2788.246     4954.385     1680.016        1.767        0.471      159.389       29.098        0.033      338.500       11.192      862.123
06/21/2013  04:23:00     -102.063       72.124      -18.407       48.767       47.474       23.918     2378.247     2253.761      572.051        1.058        0.260      124.975       19.386        0.024      338.518       11.223      862.130
06/21/2013  04:24:00      -96.241       95.092      -23.949       65.956       65.627       39.264     4350.145     4306.953     1541.623        1.454        0.510      135.295       41.419        0.094      338.519       11.225      862.129
06/21/2013  04:25:00      -53.841        4.238       -7.772       36.164       30.118       15.602     1307.807      907.077      243.437        0.272        0.123       54.008       18.626        0.119      338.539       11.259      862.124
06/21/2013  04:26:00      -45.998      142.117      -15.944       59.994       73.045       44.349     3599.289     5335.576     1966.810        1.673        0.545      149.376       42.530        0.081      338.501       11.193      862.130
06/21/2013  04:27:00      -39.394       32.637       -0.260       29.926       31.872       22.618      895.558     1015.825      511.584        0.252        0.121       51.157       15.171        0.088      338.481       11.163      862.137
06/21/2013  04:28:00        9.811      -42.627        0.997       23.575       50.084       17.475      555.779     2508.393      305.366        0.264        0.168       43.741       15.083        0.119      338.616       11.389      862.147
06/21/2013  04:29:00       16.249      -93.512       -0.864       21.595       22.078       15.427      466.356      487.445      237.993        0.510        0.060       94.914       11.766        0.015      338.636       11.423      862.155
06/21/2013  04:30:00       17.219      -47.690        1.738       25.817       27.745       20.856      666.538      769.782      434.967        0.222        0.094       50.703       20.013        0.156      338.606       11.372      862.169
06/21/2013  04:31:00      -19.816      -45.447       -7.798       20.565       27.306       17.061      422.911      745.607      291.079        0.199        0.073       49.579        4.233        0.007      338.519       11.227      862.184
06/21/2013  04:32:00       -8.440      -17.379        6.823       24.338       14.691       14.550      592.336      215.822      211.712        0.072        0.051       19.320       14.205        0.541      338.479       11.158      862.188
06/21/2013  04:33:00       -3.172      -19.660       -0.879       18.553       12.519       15.289      344.230      156.738      233.759        0.057        0.037       19.914       11.268        0.320      338.413       11.048      862.194
06/21/2013  04:34:00      -53.811      -71.376       -9.747       40.485       38.859       23.170     1639.064     1510.031      536.872        0.588        0.184       89.388       15.489        0.030      338.373       10.980      862.194
06/21/2013  04:35:00      -23.197      -41.450       -4.698       32.288       35.212       31.618     1042.495     1239.907      999.723        0.278        0.164       47.500       24.651        0.269      338.286       10.836      862.218
06/21/2013  04:36:00      -60.913      -86.490       -7.748       33.749       55.830       18.639     1139.022     3117.037      347.414        0.793        0.230      105.787       13.838        0.017      338.174       10.647      862.240
06/21/2013  04:37:00      -43.736      -79.680       -1.220       44.760       45.792       20.851     2003.424     2096.953      434.775        0.640        0.227       90.894       20.439        0.051      338.117       10.552      862.260
06/21/2013  04:38:00      -87.498     -131.550       -3.371       58.423       51.459       35.984     3413.281     2647.999     1294.829        1.616        0.368      157.992       18.892        0.014      338.044       10.428      862.275
06/21/2013  04:39:00      -16.182     -147.731        6.446       33.546       46.742       23.854     1125.362     2184.833      568.990        1.300        0.194      148.614       16.282        0.012      338.112       10.542      862.286
06/21/2013  04:40:00        8.179     -145.740       -2.178       29.424       45.632       24.345      865.790     2082.270      592.677        1.243        0.177      145.969       10.331        0.005      338.173       10.646      862.304
06/21/2013  04:41:00      -38.532     -122.479       -0.380       57.105       50.788       31.455     3260.937     2579.417      989.435        1.166        0.341      128.397       25.708        0.040      338.092       10.509      862.333
06/21/2013  04:42:00      -25.927      -66.935        6.288       40.981       45.144       24.613     1679.462     2037.990      605.821        0.476        0.216       71.781        7.148        0.010      338.072       10.476      862.355
06/21/2013  04:43:00      -19.699      -64.709        1.230       61.239       39.135       27.344     3750.194     1531.546      747.672        0.530        0.301       67.641       19.782        0.086      338.091       10.507      862.375
06/21/2013  04:44:00      -55.421      -56.750       -0.989       36.602       48.432       23.251     1339.729     2345.697      540.610        0.526        0.211       79.322       17.684        0.050      338.029       10.403      862.395
06/21/2013  04:45:00      -66.598      -73.449       -7.748       64.690       31.615       23.353     4184.814      999.533      545.364        0.781        0.286       99.147       27.443        0.077      338.034       10.412      862.403
06/21/2013  04:46:00     -114.038      -96.452       -4.079       72.479       38.486       30.208     5253.216     1481.180      912.529        1.498        0.382      149.357       33.763        0.051      338.020       10.388      862.418
06/21/2013  04:47:00     -156.107     -120.012       -0.381       49.725       42.506       26.963     2472.570     1806.765      727.024        2.189        0.250      196.907       27.380        0.019      337.980       10.320      862.425
06/21/2013  04:48:00     -149.520     -107.350       -2.836       63.038       46.769       30.980     3973.779     2187.371      959.772        2.050        0.356      184.066       29.480        0.026      337.994       10.343      862.425
06/21/2013  04:49:00     -136.601      -98.636        2.574       62.057       50.245       35.944     3851.081     2524.549     1291.974        1.803        0.383      168.490       35.278        0.044      337.960       10.287      862.418
06/21/2013  04:50:00     -136.837      -86.649        7.575       52.897       50.701       34.203     2798.118     2570.566     1169.842        1.641        0.327      161.964       28.602        0.031      337.999       10.352      862.413
06/21/2013  04:51:00     -134.477      -69.065       -1.598       54.929       43.753       26.352     3017.200     1914.297      694.430        1.424        0.281      151.175       26.195        0.030      337.964       10.295      862.423
06/21/2013  04:52:00      -58.614      -25.126        5.083       36.928       32.903       21.373     1363.677     1082.637      456.824        0.350        0.145       63.772       19.852        0.097      337.945       10.264      862.420
06/21/2013  04:53:00     -109.998      -55.874        0.467       63.614       27.460       22.126     4046.735      754.058      489.543        1.025        0.265      123.375       22.621        0.034      337.941       10.256      862.425
06/21/2013  04:54:00     -100.571      -26.168       -1.679       50.293       40.716       26.093     2529.417     1657.808      680.823        0.783        0.243      103.920       28.335        0.074      337.903       10.192      862.429
06/21/2013  04:55:00      -81.989      -27.644      -16.678       22.959       23.943       12.887      527.119      573.275      166.074        0.452        0.063       86.524        9.690        0.013      337.945       10.262      862.441
06/21/2013  04:56:00     -110.405      -32.870      -13.527       37.204       26.048       19.443     1384.120      678.477      378.027        0.795        0.122      115.194       16.091        0.020      337.958       10.284      862.446
06/21/2013  04:57:00      -86.538      -44.370       -7.056       40.023       22.302       16.060     1601.844      497.370      257.920        0.593        0.118       97.250       12.684        0.017      337.986       10.330      862.441
06/21/2013  04:58:00      -67.359      -22.501        0.240       36.468       23.220       15.849     1329.883      539.157      251.187        0.358        0.106       71.018       16.781        0.056      338.020       10.386      862.441
06/21/2013  04:59:00      -92.857      -10.753       -8.178       36.346       20.274       12.789     1321.052      411.039      163.549        0.535        0.095       93.478        7.429        0.006      338.099       10.520      862.447
06/21/2013  05:00:00      -41.138      -16.444       -1.733       17.068       19.099       11.166      291.308      364.787      124.686        0.137        0.039       44.303        9.630        0.047      338.159       10.621      862.456
06/21/2013  05:01:00      -49.778      -39.667       -3.536       21.388       14.645        7.589      457.438      214.477       57.588        0.240        0.036       63.650        8.637        0.018      338.277       10.821      862.459
06/21/2013  05:02:00      -13.512      -33.961       -4.360       19.505       11.012       16.681      380.437      121.259      278.260        0.107        0.039       36.550        4.769        0.017      338.268       10.805      862.460
06/21/2013  05:03:00      -10.546        1.243        4.357       10.067       17.788        8.413      101.340      316.411       70.781        0.031        0.024       10.619        4.907        0.214      338.187       10.668      862.457
06/21/2013  05:04:00      -19.794       -0.894        0.714       21.857       15.048       12.319      477.740      226.447      151.768        0.062        0.043       19.814       12.526        0.400      338.026       10.399      862.456
06/21/2013  05:05:00      -35.961      -13.789        5.135       31.323       15.822       13.826      981.101      250.326      191.152        0.147        0.071       38.514       13.775        0.128      337.952       10.274      862.461
06/21/2013  05:06:00       -8.865      -14.515       -8.580       14.798        8.276       10.617      218.989       68.484      112.730        0.038        0.020       17.008        5.448        0.103      337.910       10.203      862.468
06/21/2013  05:07:00        3.662       -0.123       -0.412        5.216        6.739        7.106       27.206       45.420       50.494        0.007        0.006        3.664        4.874        1.770      337.958       10.283      862.471
06/21/2013  05:08:00      -32.802      -19.454       -2.364       21.922       16.718       10.465      480.570      279.507      109.527        0.116        0.043       38.137        6.940        0.033      338.045       10.432      862.478
06/21/2013  05:09:00       -7.943       -6.441        1.131       26.275        7.574       11.294      690.370       57.362      127.544        0.049        0.044       10.226       11.830        1.338      338.030       10.404      862.480
06/21/2013  05:10:00      -44.025      -11.930       -4.028        9.148        9.563        8.113       83.693       91.453       65.820        0.117        0.012       45.613        5.931        0.017      338.064       10.463      862.473
06/21/2013  05:11:00      -34.375       -2.615       -0.613       10.159        7.777        7.153      103.196       60.476       51.172        0.070        0.011       34.474        5.983        0.030      338.009       10.370      862.470
06/21/2013  05:12:00      -12.518        0.659       -1.950        6.359        4.326        4.090       40.433       18.716       16.725        0.012        0.004       12.535        2.215        0.031      337.995       10.347      862.475
06/21/2013  05:13:00       21.015       25.327        4.325        9.204        7.604       11.250       84.714       57.823      126.555        0.069        0.013       32.910        4.852        0.022      338.129       10.571      862.490
06/21/2013  05:14:00       28.109       54.390       -8.648       12.714       15.733       12.852      161.640      247.521      165.183        0.220        0.029       61.224       12.847        0.044      337.993       10.342      862.504
06/21/2013  05:15:00       24.742       59.783       -3.040       12.372       10.928       14.860      153.066      119.430      220.823        0.234        0.025       64.700        8.705        0.018      337.930       10.238      862.508
06/21/2013  05:16:00        7.739       36.028       -7.326        9.102        7.088        3.889       82.842       50.246       15.124        0.078        0.007       36.850        4.612        0.016      338.190       10.675      862.513
06/21/2013  05:17:00       -3.275       35.144       -7.701        5.111        7.186        4.954       26.117       51.634       24.540        0.070        0.005       35.297        3.740        0.011      338.244       10.765      862.510
06/21/2013  05:18:00       -6.505       41.520       -8.241       19.013       15.063       12.458      361.488      226.879      155.197        0.129        0.037       42.027        4.604        0.012      338.224       10.732      862.514
06/21/2013  05:19:00      -20.798       43.696       -3.409       12.623       10.749        8.050      159.350      115.538       64.806        0.135        0.017       48.393        4.144        0.007      338.315       10.883      862.520
06/21/2013  05:20:00      -16.337       16.547       -3.586       15.589       14.342        8.751      243.010      205.680       76.574        0.054        0.026       23.253        7.349        0.100      338.284       10.831      862.528
06/21/2013  05:21:00      -23.777       -0.704       -3.800        9.702        4.600        5.281       94.122       21.164       27.888        0.036        0.007       23.788        3.788        0.025      338.133       10.578      862.536
06/21/2013  05:22:00      -33.863       -0.250      -14.109        6.485        4.932        7.002       42.051       24.325       49.035        0.073        0.006       33.864        4.492        0.018      338.159       10.621      862.546
06/21/2013  05:23:00      -44.187      -12.347       -9.858       10.313       10.047        8.171      106.350      100.938       66.769        0.124        0.014       45.880        1.253        0.001      338.101       10.524      862.557
06/21/2013  05:24:00      -76.496      -35.782       -9.439       23.625       12.851        8.434      558.148      165.154       71.126        0.401        0.040       84.451        6.225        0.005      337.994       10.345      862.573
06/21/2013  05:25:00      -74.255      -51.391       -4.988       28.263       26.323       15.435      798.791      692.897      238.244        0.495        0.086       90.305       11.637        0.017      337.932       10.240      862.582
06/21/2013  05:26:00      -71.921      -68.769        1.373       52.872       32.107       20.293     2795.440     1030.839      411.809        0.707        0.212       99.508       18.427        0.034      337.912       10.207      862.600
06/21/2013  05:27:00     -136.879      -88.692      -14.055       55.009       48.641       31.119     3026.035     2365.933      968.391        1.658        0.318      163.102       12.607        0.006      337.729        9.899      862.605
06/21/2013  05:28:00     -149.920     -114.811       -4.049       49.582       35.480       28.591     2458.333     1258.863      817.466        2.010        0.227      188.832       24.258        0.017      337.658        9.780      862.606
06/21/2013  05:29:00     -118.604      -86.718       -0.140       40.145       37.354       29.079     1611.598     1395.289      845.594        1.272        0.193      146.925       25.517        0.030      337.547        9.593      862.609
06/21/2013  05:30:00     -112.397      -76.067        0.027       30.364       40.397       24.056      921.965     1631.927      578.680        1.078        0.157      135.717       17.867        0.017      337.527        9.561      862.609
06/21/2013  05:31:00      -84.645      -63.972        5.651       48.829       31.535       26.121     2384.291      994.431      682.285        0.767        0.203      106.100       25.073        0.056      337.561        9.618      862.612
06/21/2013  05:32:00     -108.019      -81.168        1.419       50.241       33.240       24.322     2524.137     1104.872      591.540        1.124        0.211      135.116       25.812        0.036      337.510        9.532      862.612
06/21/2013  05:33:00      -88.038      -92.753        1.966       57.441       50.785       26.662     3299.427     2579.099      710.850        1.147        0.329      127.883       29.414        0.053      337.494        9.506      862.610
06/21/2013  05:34:00      -91.686      -65.047       -1.954       42.500       30.951       25.920     1806.285      957.960      671.824        0.804        0.172      112.417       28.050        0.062      337.474        9.475      862.614
06/21/2013  05:35:00      -16.052      -28.405       12.090       51.722       24.057       22.863     2675.158      578.742      522.733        0.249        0.189       32.627       26.937        0.682      337.517        9.543      862.618
06/21/2013  05:36:00      -67.703      -27.925        8.274       34.030       34.778       21.036     1158.069     1209.532      442.528        0.412        0.141       73.236       18.852        0.066      337.454        9.437      862.619
06/21/2013  05:37:00     -110.798       14.392       -2.989       65.281       31.594       21.477     4261.576      998.154      461.241        0.911        0.286      111.729       26.358        0.056      337.229        9.062      862.627
06/21/2013  05:38:00     -155.792       11.409      -11.588       65.972       35.333       21.903     4352.277     1248.430      479.748        1.531        0.304      156.210       24.474        0.025      337.043        8.749      862.641
06/21/2013  05:39:00     -149.271      -54.175        1.536       53.246       41.277       27.656     2835.129     1703.819      764.828        1.526        0.265      158.797       27.369        0.030      337.050        8.761      862.645
06/21/2013  05:40:00      -64.588      -52.200       12.049       46.908       38.019       27.477     2200.367     1445.460      754.989        0.572        0.220       83.045       25.358        0.093      337.182        8.984      862.639
06/21/2013  05:41:00      -73.308      -42.437        0.106       47.644       35.221       23.008     2269.953     1240.501      529.362        0.561        0.202       84.705       15.462        0.033      337.226        9.057      862.642
06/21/2013  05:42:00     -119.357      -34.682       -6.399       23.936       20.898       18.446      572.932      436.723      340.253        0.842        0.067      124.294       14.770        0.014      337.232        9.067      862.637
06/21/2013  05:43:00      -94.121      -54.698       -1.413       30.716       18.210       17.740      943.463      331.591      314.702        0.672        0.079      108.860       14.459        0.018      337.209        9.029      862.636
06/21/2013  05:44:00     -109.616      -47.670       -5.386       18.945       19.297       13.726      358.921      372.378      188.401        0.762        0.046      119.533       10.390        0.008      337.268        9.128      862.639
06/21/2013  05:45:00      -66.240      -36.834        2.169       44.975       25.255       18.498     2022.740      637.840      342.182        0.438        0.150       75.793       21.892        0.083      337.315        9.205      862.653
06/21/2013  05:46:00      -68.583      -39.087        3.335       36.678       17.839       20.154     1345.301      318.227      406.194        0.416        0.103       78.940       21.100        0.071      337.336        9.241      862.661
06/21/2013  05:47:00      -52.685      -30.789        2.695       34.092       23.576       16.319     1162.239      555.805      266.310        0.286        0.099       61.022       15.362        0.063      337.348        9.260      862.665
06/21/2013  05:48:00      -24.241      -28.471        6.386       25.528       17.503       15.268      651.690      306.361      233.100        0.131        0.060       37.393        9.717        0.068      337.408        9.360      862.672
06/21/2013  05:49:00      -19.386      -24.282       12.327       28.725       24.679       18.932      825.123      609.046      358.431        0.145        0.090       31.072       17.506        0.317      337.444        9.421      862.688
06/21/2013  05:50:00      -25.331      -28.203        5.440       27.475       32.272       20.056      754.857     1041.496      402.246        0.183        0.110       37.909       17.776        0.220      337.430        9.399      862.693
06/21/2013  05:51:00      -49.209      -38.973        3.021       33.256       16.841       17.577     1105.954      283.623      308.944        0.282        0.085       62.773       17.853        0.081      337.452        9.434      862.695
06/21/2013  05:52:00      -46.252      -39.185       -0.793       19.880       16.009       11.761      395.229      256.285      138.322        0.223        0.039       60.620        2.645        0.002      337.448        9.429      862.701
06/21/2013  05:53:00      -72.526      -50.982       -3.339       27.002       23.981       17.332      729.130      575.075      300.399        0.474        0.080       88.652       13.566        0.023      337.387        9.327      862.718
06/21/2013  05:54:00      -85.899      -53.146       -5.264       39.403       33.901       17.807     1552.559     1149.304      317.097        0.662        0.151      101.011       14.176        0.020      337.414        9.372      862.725
06/21/2013  05:55:00      -82.759      -49.038        4.098       52.018       31.255       23.487     2705.904      976.864      551.629        0.675        0.212       96.197       23.616        0.060      337.403        9.354      862.735
06/21/2013  05:56:00      -98.675      -80.249        2.541       41.523       31.682       22.154     1724.134     1003.758      490.785        0.970        0.161      127.188       21.420        0.028      337.429        9.398      862.743
06/21/2013  05:57:00      -91.330     -103.815       -4.618       27.281       25.476       15.656      744.266      649.040      245.117        1.039        0.082      138.270       10.575        0.006      337.438        9.411      862.750
06/21/2013  05:58:00     -114.102     -118.955      -15.968       30.433       20.322       18.832      926.187      412.972      354.662        1.456        0.085      164.832       14.474        0.008      337.420        9.381      862.758
06/21/2013  05:59:00     -106.477      -97.285       -4.856       50.480       37.948       31.122     2548.242     1440.086      968.602        1.289        0.248      144.228       28.502        0.039      337.365        9.291      862.760
06/21/2013  06:00:00     -122.600      -99.239       -0.385       42.381       48.238       31.567     1796.145     2326.882      996.495        1.500        0.256      157.731       29.903        0.036      337.297        9.175      862.769
06/21/2013  06:01:00     -142.211      -91.721      -12.654       34.490       24.630       20.453     1189.586      606.643      418.306        1.551        0.111      169.223       10.177        0.004      337.283        9.154      862.760
06/21/2013  06:02:00     -146.738      -98.513       -4.612       31.751       39.395       24.668     1008.100     1551.955      608.523        1.721        0.158      176.739       21.729        0.015      337.262        9.118      862.749
06/21/2013  06:03:00     -125.134      -84.730       -4.440       51.496       48.062       27.023     2651.827     2309.995      730.249        1.427        0.285      151.122       31.491        0.043      337.286        9.158      862.741
06/21/2013  06:04:00     -138.032     -104.155       -8.631       37.920       31.936       28.660     1437.962     1019.918      821.377        1.663        0.164      172.920       21.090        0.015      337.314        9.204      862.739
06/21/2013  06:05:00     -104.724      -88.680      -10.751       37.233       40.898       29.080     1386.268     1672.687      845.638        1.142        0.195      137.227       26.806        0.038      337.361        9.284      862.759
06/21/2013  06:06:00      -96.120      -59.008       -0.514       40.331       27.654       20.307     1626.611      764.740      412.374        0.776        0.140      112.787       16.553        0.022      337.410        9.364      862.772
06/21/2013  06:07:00     -103.162      -66.419       -4.948       27.292       23.008       16.347      744.846      529.378      267.211        0.831        0.077      122.694       10.483        0.007      337.442        9.418      862.778
06/21/2013  06:08:00     -101.833      -38.722       -1.283       49.599       21.995       19.003     2460.081      483.781      361.112        0.759        0.165      108.946       15.707        0.021      337.435        9.407      862.786
06/21/2013  06:09:00      -96.491      -33.518        0.001       28.634       33.138       19.394      819.907     1098.104      376.126        0.636        0.115      102.147       15.724        0.024      337.502        9.521      862.802
06/21/2013  06:10:00     -117.207      -34.288       -7.711       36.963       35.433       16.007     1366.281     1255.533      256.217        0.892        0.144      122.119       15.952        0.017      337.506        9.525      862.810
06/21/2013  06:11:00      -92.285      -41.096       -1.988       36.805       32.668       22.459     1354.574     1067.224      504.423        0.657        0.146      101.022       18.338        0.033      337.487        9.495      862.815
06/21/2013  06:12:00     -103.927      -28.017       -8.300       27.382       27.397       17.608      749.747      750.570      310.036        0.673        0.091      107.637        9.673        0.008      337.489        9.498      862.818
06/21/2013  06:13:00     -124.507      -25.382       -9.775       47.399       30.165       25.374     2246.690      909.920      643.821        1.002        0.190      127.068       27.008        0.045      337.484        9.488      862.822
06/21/2013  06:14:00      -74.755       -3.177       -2.176       32.005       23.057       14.220     1024.340      531.628      202.222        0.368        0.088       74.822       11.847        0.025      337.477        9.477      862.831
06/21/2013  06:15:00     -102.592        0.720       -8.626       50.045       31.546       20.345     2504.455      995.169      413.938        0.726        0.196      102.595       24.367        0.056      337.489        9.497      862.838
06/21/2013  06:16:00     -116.974      -30.453       -5.903       34.623       24.474       20.729     1198.778      598.979      429.692        0.844        0.111      120.873       19.702        0.027      337.519        9.548      862.848
06/21/2013  06:17:00     -106.282      -28.157       -1.258       33.924       36.425       15.875     1150.861     1326.759      252.007        0.741        0.136      109.949       10.715        0.009      337.542        9.586      862.859
06/21/2013  06:18:00      -90.262      -47.367       -1.940       35.586       23.662       17.877     1266.396      559.867      319.590        0.627        0.107      101.935       14.554        0.020      337.573        9.639      862.862
06/21/2013  06:19:00      -73.988      -23.901       -6.325       24.728       21.178       13.767      611.479      448.516      189.529        0.367        0.062       77.753        7.198        0.009      337.622        9.719      862.877
06/21/2013  06:20:00      -91.385      -49.739       -3.759       33.411       34.169       19.288     1116.289     1167.528      372.040        0.675        0.133      104.044       20.466        0.039      337.689        9.832      862.869
06/21/2013  06:21:00      -51.360       -9.476        1.406       27.458       18.101       15.316      753.950      327.652      234.574        0.202        0.066       52.227       14.714        0.079      337.787        9.996      862.869
06/21/2013  06:22:00      -88.137       -0.317       -7.577       18.240       19.076       11.517      332.700      363.900      132.650        0.433        0.041       88.137        9.013        0.010      337.728        9.898      862.870
06/21/2013  06:23:00      -82.949      -33.798       -5.571       21.784       15.965       13.219      474.522      254.896      174.746        0.448        0.045       89.570       13.226        0.022      337.785        9.994      862.881
06/21/2013  06:24:00      -28.967      -13.464        2.770       18.535       33.175       13.125      343.556     1100.570      172.275        0.132        0.081       31.943       10.536        0.109      337.898       10.184      862.883
06/21/2013  06:25:00      -57.648       17.700       -5.145       19.131       18.495       10.317      365.987      342.065      106.443        0.224        0.041       60.305        9.695        0.026      337.837       10.081      862.893
06/21/2013  06:26:00      -56.810       21.655       -9.534       26.481       22.023       14.120      701.242      485.003      199.365        0.259        0.069       60.798       10.755        0.031      337.934       10.243      862.892
06/21/2013  06:27:00      -21.528        7.615        7.134       15.311       21.764       15.691      234.413      473.682      246.210        0.076        0.048       22.835        8.119        0.126      338.097       10.517      862.897
06/21/2013  06:28:00      -39.251       -1.789        5.965       42.812       24.652       18.865     1832.845      607.743      355.878        0.219        0.140       39.292       22.448        0.326      338.050       10.441      862.885
06/21/2013  06:29:00      -50.726       63.668       -4.822       24.498       29.243       19.755      600.164      855.172      390.253        0.425        0.092       81.404       16.481        0.041      338.030       10.404      862.877
06/21/2013  06:30:00      -62.537       42.864      -22.531       27.917       36.847       19.969      779.348     1357.665      398.748        0.440        0.127       75.817        9.314        0.015      337.963       10.291      862.857
06/21/2013  06:31:00      -68.748       -1.266       -7.254       37.252       17.314       11.115     1387.689      299.765      123.544        0.330        0.091       68.760       10.298        0.022      338.033       10.411      862.858
06/21/2013  06:32:00      -82.298      -15.842       -5.744       32.987       22.074       22.729     1088.163      487.253      516.589        0.457        0.105       83.809       21.506        0.066      338.013       10.376      862.859
06/21/2013  06:33:00      -77.683        3.877       -2.805       34.064       23.147       16.456     1160.352      535.772      270.797        0.401        0.098       77.780       15.355        0.039      337.975       10.312      862.860
06/21/2013  06:34:00      -83.359        9.072       -6.110       29.557       26.018       16.732      873.593      676.945      279.960        0.445        0.092       83.851       14.105        0.028      337.962       10.292      862.869
06/21/2013  06:35:00      -76.260       15.273       -5.049       27.823       23.755       14.262      774.138      564.289      203.402        0.381        0.077       77.775       12.319        0.025      337.969       10.304      862.869
06/21/2013  06:36:00      -31.822        6.505        3.865       21.271       16.272       14.949      452.459      264.788      223.467        0.101        0.047       32.481       12.326        0.144      338.208       10.702      862.858
06/21/2013  06:37:00      -27.974       -1.316        0.673        9.339       18.096       12.432       87.224      327.469      154.565        0.068        0.028       28.005        8.196        0.086      338.091       10.506      862.855
06/21/2013  06:38:00      -37.704        2.807       -2.625        9.085        9.916        8.257       82.536       98.324       68.182        0.084        0.012       37.808        6.909        0.033      338.168       10.634      862.853
06/21/2013  06:39:00      -24.492      -16.662        1.309        8.525       12.161        8.259       72.670      147.892       68.210        0.058        0.014       29.622        2.777        0.009      338.260       10.790      862.843
06/21/2013  06:40:00      -23.609      -16.278        0.991       14.490       12.898       11.420      209.967      166.370      130.409        0.066        0.025       28.677        8.556        0.089      338.464       11.133      862.840
06/21/2013  06:41:00       -9.395      -24.145        8.116       21.794       22.322       14.536      474.968      498.269      211.284        0.096        0.059       25.909       13.231        0.261      338.486       11.169      862.840
06/21/2013  06:42:00       -4.453      -12.981       19.977       22.023       15.124       15.969      485.033      228.741      255.020        0.078        0.048       13.724       14.910        1.180      338.876       11.827      862.844
06/21/2013  06:43:00      -20.063      -14.886        4.104       20.957       11.264       13.275      439.175      126.871      176.227        0.069        0.037       24.982       14.257        0.326      338.584       11.336      862.855
06/21/2013  06:44:00       -9.454      -57.187        1.177        9.595       20.475       11.345       92.056      419.238      128.706        0.200        0.032       57.963        6.808        0.014      338.332       10.911      862.873
06/21/2013  06:45:00      -19.003      -32.264       -3.153        9.543       10.933       11.475       91.069      119.540      131.684        0.088        0.017       37.444        3.955        0.011      338.388       11.005      862.879
06/21/2013  06:46:00       -6.009      -22.384       -3.150       18.648       16.120       12.878      347.742      259.858      165.842        0.066        0.039       23.176        6.964        0.090      338.584       11.335      862.882
06/21/2013  06:47:00      -21.404      -26.858        5.542       19.634       15.381       14.251      385.505      236.562      203.082        0.102        0.041       34.343       14.137        0.169      338.617       11.392      862.887
06/21/2013  06:48:00      -26.995      -21.700        2.917       14.126       14.252       10.747      199.545      203.115      115.504        0.086        0.026       34.635        8.008        0.053      338.560       11.295      862.889
06/21/2013  06:49:00      -13.711      -23.723        8.911       16.832       14.979       12.634      283.312      224.384      159.609        0.075        0.033       27.400       12.879        0.221      338.578       11.326      862.893
06/21/2013  06:50:00      -36.368      -14.450        1.957       32.777       31.687       18.984     1074.307     1004.073      360.405        0.199        0.122       39.134       18.279        0.218      338.710       11.547      862.887
06/21/2013  06:51:00      -46.965      -28.911       -0.705       19.642       26.347       15.785      385.815      694.167      249.181        0.219        0.066       55.150       13.867        0.063      338.499       11.191      862.891
06/21/2013  06:52:00      -68.100      -10.094        5.149       29.312       18.365       15.418      859.190      337.271      237.713        0.310        0.072       68.844       13.318        0.037      338.514       11.218      862.877
06/21/2013  06:53:00      -48.676      -64.864       -5.240       35.529       23.078       11.197     1262.295      532.584      125.372        0.426        0.096       81.096       12.049        0.022      338.428       11.073      862.865
06/21/2013  06:54:00      -60.986      -74.032       -5.409       33.688       23.085       20.633     1134.852      532.939      425.712        0.566        0.105       95.917       19.410        0.041      338.450       11.111      862.863
06/21/2013  06:55:00      -49.619      -59.362        4.926       46.675       32.530       22.990     2178.567     1058.230      528.559        0.489        0.188       77.369       15.322        0.039      338.415       11.051      862.853
06/21/2013  06:56:00      -85.102      -36.298       -7.681       57.414       23.471       17.566     3296.324      550.888      308.581        0.639        0.208       92.520       13.669        0.022      338.412       11.046      862.833
06/21/2013  06:57:00      -42.119       -6.713       -2.678       33.984       23.309       20.814     1154.902      543.298      433.213        0.198        0.107       42.650       16.659        0.153      338.609       11.376      862.821
06/21/2013  06:58:00      -21.941      -16.814        3.643       30.129       43.511       18.111      907.734     1893.244      328.023        0.195        0.156       27.643       14.436        0.273      338.569       11.309      862.804
06/21/2013  06:59:00      -64.049      -34.476        5.003       28.524       33.465       16.793      813.641     1119.915      282.013        0.377        0.111       72.738       10.947        0.023      338.529       11.242      862.805
06/21/2013  07:00:00      -13.686       10.216       24.187       20.191       22.884       25.294      407.671      523.691      639.765        0.122        0.079       17.078       19.636        1.322      338.956       11.961      862.814
06/21/2013  07:01:00      -14.664      -13.340       16.223       29.911       21.675       24.099      894.652      469.821      580.771        0.130        0.097       19.824       20.045        1.022      338.858       11.796      862.825
06/21/2013  07:02:00      -19.912      -17.485       24.780       25.047       24.578       17.789      627.370      604.054      316.447        0.143        0.077       26.499       14.472        0.298      338.922       11.902      862.842
06/21/2013  07:03:00      -62.636      -30.653       -1.178       25.764       25.107       16.950      663.792      630.358      287.292        0.322        0.079       69.734       12.829        0.034      338.470       11.142      862.866
06/21/2013  07:04:00      -86.603       23.126        4.671       26.319       24.279       22.395      692.697      589.484      501.555        0.492        0.089       89.638       18.555        0.043      338.410       11.042      862.887
06/21/2013  07:05:00       -1.024      -39.433        4.078       37.696       32.936       19.467     1421.025     1084.776      378.979        0.223        0.144       39.446       19.757        0.251      338.580       11.327      862.900
06/21/2013  07:06:00      -23.624      -10.693       12.433       22.421       14.223       16.630      502.692      202.300      276.540        0.090        0.049       25.931       16.490        0.404      338.905       11.875      862.911
06/21/2013  07:07:00      -29.248      -21.364       10.454       35.440       18.432       16.659     1255.986      339.723      277.538        0.165        0.094       36.220       15.279        0.178      338.608       11.375      862.910
06/21/2013  07:08:00      -36.438      -12.295        1.973       28.965       18.205       14.882      838.946      331.422      221.463        0.144        0.070       38.457       13.943        0.131      338.670       11.480      862.901
06/21/2013  07:09:00      -25.228      -13.922       11.253       26.437       17.926       15.292      698.889      321.342      233.853        0.111        0.063       28.815       16.449        0.326      338.838       11.761      862.891
06/21/2013  07:10:00      -16.498        2.808       18.279       16.666       13.879       14.947      277.755      192.616      223.403        0.065        0.035       16.736       13.015        0.605      339.262       12.476      862.880
06/21/2013  07:11:00      -10.561      -13.171       11.155       17.471       19.186       17.340      305.228      368.096      300.692        0.069        0.049       16.882       16.819        0.993      338.968       11.981      862.881
06/21/2013  07:12:00       -0.892        8.615       24.465       11.661       13.795       15.205      135.976      190.296      231.206        0.062        0.028        8.661        9.070        1.097      339.646       13.123      862.880
06/21/2013  07:13:00      -19.533        3.780       21.953       19.264       21.490       14.863      371.084      461.825      220.917        0.097        0.053       19.895       11.779        0.351      339.331       12.593      862.890
06/21/2013  07:14:00      -12.679       -0.200       12.153       16.283       12.349       13.672      265.144      152.487      186.929        0.046        0.030       12.680        7.893        0.387      339.146       12.280      862.907
06/21/2013  07:15:00      -28.057      -13.322        6.656       23.133       20.287       14.509      535.125      411.552      210.497        0.108        0.058       31.059        9.861        0.101      338.991       12.019      862.905
06/21/2013  07:16:00      -56.105      -34.920       -7.656       23.345       21.708       16.327      544.996      471.259      266.573        0.285        0.064       66.084       15.553        0.055      338.780       11.665      862.903
06/21/2013  07:17:00      -65.917      -41.644       -8.895       24.811       15.650       13.752      615.604      244.938      189.113        0.360        0.052       77.969        6.871        0.008      338.704       11.536      862.896
06/21/2013  07:18:00      -47.823      -25.101        5.364       35.405       22.783       17.727     1253.488      519.052      314.242        0.252        0.104       54.010       19.165        0.126      338.889       11.848      862.895
06/21/2013  07:19:00      -43.137      -30.143       -3.037       28.574       20.318       17.810      816.482      412.820      317.181        0.216        0.077       52.625       16.948        0.104      338.894       11.857      862.891
06/21/2013  07:20:00      -27.686       -1.027        9.774       27.126       24.286       16.785      735.846      589.787      281.746        0.123        0.080       27.705       16.898        0.372      339.122       12.240      862.896
06/21/2013  07:21:00      -19.732      -21.314       18.474       29.157       27.592       18.705      850.153      761.333      349.886        0.157        0.098       29.046       17.812        0.376      339.406       12.718      862.894
06/21/2013  07:22:00      -23.795      -37.009       -1.711       30.941       23.705       18.112      957.334      561.949      328.040        0.189        0.092       43.999       18.650        0.180      338.981       12.003      862.886
06/21/2013  07:23:00      -20.648      -15.906       10.256       40.495       21.858       19.226     1639.880      477.759      369.630        0.164        0.124       26.064       24.046        0.851      339.267       12.484      862.869
06/21/2013  07:24:00       -7.942      -29.381       10.007       27.698       32.191       25.924      767.167     1036.274      672.060        0.175        0.124       30.436       22.770        0.560      339.320       12.572      862.859
06/21/2013  07:25:00       -9.285       39.110       46.212       11.083       22.920       26.060      122.831      525.327      679.149        0.254        0.066       40.197       18.231        0.206      339.317       12.569      862.832
06/21/2013  07:26:00      -29.805        4.978       14.267       28.339       23.651       24.882      803.088      559.368      619.126        0.155        0.099       30.218       20.439        0.457      339.522       12.914      862.824
06/21/2013  07:27:00       13.115      -57.718       -3.203       30.600       40.321       24.615      936.334     1625.823      605.921        0.334        0.158       59.190       23.829        0.162      339.250       12.454      862.814
06/21/2013  07:28:00       14.474      -20.118       11.161       27.395       28.661       30.761      750.501      821.450      946.254        0.163        0.126       24.783       21.258        0.736      339.532       12.929      862.804
06/21/2013  07:29:00      -11.120      -19.173       16.694       24.291       37.817       20.646      590.053     1430.143      426.256        0.161        0.122       22.164       17.797        0.645      339.417       12.737      862.797
06/21/2013  07:30:00      -11.466        5.101       38.682       12.700       17.640       15.135      161.298      311.165      229.074        0.118        0.035       12.550        7.585        0.365      340.091       13.873      862.794
06/21/2013  07:31:00      -24.898        2.118       31.727       22.273       19.933       15.778      496.082      397.331      248.949        0.139        0.057       24.988       13.415        0.288      339.630       13.096      862.781
06/21/2013  07:32:00       -9.962       -7.461       34.673       28.375       41.263       28.658      805.128     1702.656      821.291        0.234        0.166       12.447       18.667        2.249      339.675       13.171      862.782
06/21/2013  07:33:00       29.556      -69.989       17.728       50.293       69.768       49.062     2529.384     4867.636     2407.108        0.794        0.490       75.974       43.686        0.331      339.562       12.981      862.781
06/21/2013  07:34:00       36.215     -122.906        6.622       36.925       68.714       36.277     1363.421     4721.633     1316.007        1.193        0.370      128.130       34.112        0.071      339.338       12.602      862.788
06/21/2013  07:35:00       12.742       13.771       53.954       25.374       33.287       22.068      643.851     1108.032      486.987        0.275        0.112       18.762       17.527        0.873      339.676       13.172      862.790
06/21/2013  07:36:00       29.986      -63.317       14.629       45.547       58.769       47.670     2074.549     3453.836     2272.453        0.646        0.390       70.059       43.266        0.381      339.450       12.792      862.787
06/21/2013  07:37:00       97.050     -133.004      -20.282       64.150       84.268       55.416     4115.182     7101.142     3070.983        2.090        0.714      164.648       60.697        0.136      339.180       12.333      862.771
06/21/2013  07:38:00       65.898      -31.592       34.926       61.050       62.534       44.002     3727.049     3910.562     1936.154        0.807        0.479       73.080       35.998        0.243      339.429       12.758      862.761
06/21/2013  07:39:00       58.470      -40.713       42.563       59.843       61.416       42.507     3581.214     3771.958     1806.816        0.802        0.458       71.248       36.031        0.256      339.332       12.592      862.763
06/21/2013  07:40:00       71.480        4.380       35.324       50.216       47.989       31.535     2521.652     2302.897      994.443        0.610        0.291       71.614       18.435        0.066      339.273       12.495      862.755
06/21/2013  07:41:00       52.132       20.452       42.817       50.841       55.888       39.376     2584.811     3123.457     1550.505        0.611        0.363       56.000       26.430        0.223      339.498       12.874      862.740
06/21/2013  07:42:00       -7.351        7.857       44.588       40.050       53.522       27.031     1604.036     2864.600      730.648        0.365        0.260       10.760       25.708        5.709      339.506       12.886      862.742
06/21/2013  07:43:00        9.331      -50.235       42.514       33.707       56.881       35.014     1136.165     3235.459     1225.968        0.501        0.280       51.094       28.967        0.321      339.495       12.868      862.744
06/21/2013  07:44:00       23.817     -146.758        6.204       56.143       67.902       52.289     3152.092     4610.718     2734.162        1.632        0.525      148.678       35.148        0.056      339.403       12.711      862.734
06/21/2013  07:45:00       51.478     -112.200        2.067       59.109       85.342       46.398     3493.826     7283.215     2152.794        1.408        0.646      123.445       49.369        0.160      339.594       13.033      862.722
06/21/2013  07:46:00       50.565      -44.282       23.224       69.372       96.972       56.789     4812.544     9403.489     3225.022        1.125        0.872       67.214       72.026        1.148      339.574       13.001      862.715
06/21/2013  07:47:00       43.629      -99.872        5.994       56.190       87.047       39.827     3157.292     7577.123     1586.187        1.211        0.616      108.986       49.408        0.206      339.477       12.838      862.694
06/21/2013  07:48:00       19.199      -55.363       26.465       39.867       51.430       42.029     1589.382     2645.041     1766.421        0.507        0.300       58.598       37.758        0.415      339.729       13.261      862.682
06/21/2013  07:49:00        1.371      -13.023       46.316       30.627       56.475       32.995      938.010     3189.407     1088.674        0.377        0.261       13.095       36.505        7.771      339.832       13.435      862.668
06/21/2013  07:50:00       41.821       15.693       39.742       37.859       46.061       29.129     1433.272     2121.588      848.503        0.399        0.220       44.669       13.712        0.094      339.625       13.087      862.645
06/21/2013  07:51:00       69.301     -106.394      -15.532       62.958       57.893       40.560     3963.755     3351.626     1645.109        1.266        0.448      126.974       36.110        0.081      339.580       13.009      862.640
06/21/2013  07:52:00       44.292      -19.545       33.511       59.150       77.309       54.545     3498.687     5976.677     2975.132        0.796        0.623       48.413       61.138        1.595      339.661       13.147      862.634
06/21/2013  07:53:00       20.988       31.003       66.931       39.985       65.535       43.597     1598.778     4294.785     1900.663        0.684        0.390       37.439       44.678        1.424      339.669       13.162      862.620
06/21/2013  07:54:00       27.567       10.514       32.591       32.889       47.959       34.032     1081.684     2300.041     1158.175        0.324        0.227       29.504       33.986        1.327      339.555       12.968      862.611
06/21/2013  07:55:00       33.220        6.322       36.977       37.289       47.168       29.109     1390.452     2224.819      847.307        0.349        0.223       33.816       28.594        0.715      339.374       12.663      862.597
06/21/2013  07:56:00       29.308       16.267       57.164       37.201       53.766       37.217     1383.929     2890.818     1385.107        0.502        0.283       33.519       35.298        1.109      339.421       12.742      862.582
06/21/2013  07:57:00       35.665       45.669       43.046       34.957       40.463       20.426     1221.974     1637.235      417.203        0.424        0.164       57.945       17.408        0.090      339.624       13.085      862.590
06/21/2013  07:58:00       11.892      -18.709       34.037       35.291       36.570       31.886     1245.472     1337.361     1016.716        0.262        0.180       22.169       18.793        0.719      339.860       13.483      862.586
06/21/2013  07:59:00       10.761      -11.234       56.769       38.197       68.155       41.360     1459.022     4645.153     1710.672        0.564        0.391       15.556       36.682        5.560      339.904       13.557      862.585
06/21/2013  08:00:00      -38.982      -78.066       22.287       43.036       45.542       37.341     1852.055     2074.093     1394.333        0.671        0.266       87.257        9.048        0.011      339.689       13.194      862.594
06/21/2013  08:01:00      -15.574       30.769       36.579       21.535       47.348       37.081      463.763     2241.860     1374.992        0.330        0.204       34.486       35.147        1.039      339.963       13.657      862.590
06/21/2013  08:02:00      -15.593      -12.210       24.599       23.627       26.965       25.614      558.240      727.096      656.055        0.147        0.097       19.805       18.598        0.882      340.250       14.142      862.594
06/21/2013  08:03:00      -42.187      -20.706       12.768       47.294       49.057       27.548     2236.723     2406.631      758.902        0.389        0.270       46.994       32.493        0.478      340.133       13.944      862.578
06/21/2013  08:04:00      -28.866        0.322       19.552       48.230       20.577       23.153     2326.114      423.426      536.081        0.225        0.164       28.868       27.310        0.895      339.830       13.434      862.580
06/21/2013  08:05:00        9.161       17.507       49.664       23.214       28.797       19.287      538.887      829.277      372.000        0.230        0.087       19.759       13.862        0.492      340.232       14.110      862.577
06/21/2013  08:06:00        2.259       19.394       44.375       23.823       29.899       20.948      567.544      893.941      438.833        0.212        0.095       19.525       18.556        0.903      340.327       14.271      862.566
06/21/2013  08:07:00        3.695      -39.183       28.488       39.674       51.831       35.787     1574.045     2686.462     1280.720        0.395        0.277       39.357       26.963        0.469      340.178       14.020      862.563
06/21/2013  08:08:00       27.601       42.031       47.183       54.107       56.868       36.527     2927.608     3233.943     1334.238        0.612        0.375       50.283       33.085        0.433      339.976       13.680      862.555
06/21/2013  08:09:00       72.069       97.225       83.083       48.174       35.457       33.898     2320.772     1257.200     1149.074        1.314        0.236      121.023       27.280        0.051      339.555       12.968      862.563
06/21/2013  08:10:00       11.757       34.267       55.615       35.210       57.798       28.136     1239.720     3340.628      791.612        0.489        0.269       36.228       31.998        0.780      339.900       13.552      862.561
06/21/2013  08:11:00       73.814      -60.454       12.643       61.018       48.560       36.413     3723.216     2358.048     1325.919        0.833        0.370       95.411       35.122        0.136      339.557       12.971      862.559
06/21/2013  08:12:00       27.857       -0.927       20.087       43.184       48.969       31.382     1864.869     2397.930      984.806        0.321        0.262       27.872       31.708        1.294      340.280       14.192      862.562
06/21/2013  08:13:00       34.168        6.070       49.695       57.950       58.539       44.988     3358.259     3426.815     2023.876        0.624        0.440       34.703       36.568        1.110      340.496       14.558      862.562
06/21/2013  08:14:00       19.090       -7.017       47.106       53.198       66.320       52.963     2830.018     4398.312     2805.129        0.633        0.502       20.338       35.329        3.017      340.162       13.992      862.556
06/21/2013  08:15:00       10.582      -51.942       -7.588       66.292       71.772       54.318     4394.658     5151.175     2950.430        0.768        0.625       53.009       32.608        0.378      339.934       13.609      862.556
06/21/2013  08:16:00       10.878      -24.744       23.125       55.320       68.124       50.611     3060.310     4640.871     2561.510        0.576        0.513       27.029       31.898        1.393      340.095       13.879      862.565
06/21/2013  08:17:00       21.403      -64.357       23.803       57.809       73.289       73.153     3341.864     5371.224     5351.307        0.961        0.703       67.823       49.974        0.543      340.091       13.874      862.562
06/21/2013  08:18:00       73.790      -99.497      -34.692       67.759       67.586       47.362     4591.296     4567.809     2243.145        1.397        0.570      123.873       44.689        0.130      339.958       13.648      862.570
06/21/2013  08:19:00       17.458      -39.481       31.175       33.019       48.676       41.580     1090.242     2369.343     1728.857        0.401        0.259       43.169       30.920        0.513      340.249       14.140      862.580
06/21/2013  08:20:00       25.482      -44.893       13.849       32.678       56.486       30.419     1067.863     3190.664      925.290        0.402        0.259       51.621       28.496        0.305      339.969       13.667      862.588
06/21/2013  08:21:00       32.158      -30.290       20.964       42.781       44.536       31.232     1830.213     1983.486      975.455        0.359        0.239       44.177       26.787        0.368      340.226       14.102      862.582
06/21/2013  08:22:00        0.355       -9.473       30.098       36.136       33.062       29.775     1305.835     1093.122      886.558        0.214        0.164        9.480       24.404        6.627      340.600       14.733      862.587
06/21/2013  08:23:00       -3.268      -46.192       20.231       45.751       60.619       39.198     2093.125     3674.720     1536.457        0.493        0.365       46.308       35.360        0.583      340.407       14.406      862.586
06/21/2013  08:24:00       -7.084        5.796       53.668       32.863       51.365       41.082     1079.958     2638.389     1687.754        0.418        0.270        9.153       38.832       18.000      340.288       14.206      862.598
06/21/2013  08:25:00       15.063      -62.655        0.817       45.711       47.513       31.410     2089.535     2257.516      986.595        0.474        0.267       64.440       33.269        0.267      340.111       13.905      862.616
06/21/2013  08:26:00       45.904      -90.194       -2.859       39.586       35.100       32.058     1567.015     1232.013     1027.740        0.704        0.191      101.203       30.392        0.090      340.001       13.721      862.627
06/21/2013  08:27:00       34.685      -96.540      -14.166       31.865       35.243       25.094     1015.369     1242.063      629.706        0.680        0.144      102.582       19.808        0.037      340.111       13.907      862.626
06/21/2013  08:28:00       -0.447      -40.599       -4.279       45.668       46.446       31.759     2085.556     2157.262     1008.651        0.346        0.263       40.602       22.457        0.306      340.472       14.517      862.613
06/21/2013  08:29:00      -61.473       -5.996       12.830       41.069       30.004       23.653     1686.688      900.222      559.467        0.356        0.157       61.765       20.730        0.113      340.036       13.782      862.618
06/21/2013  08:30:00       10.672       35.682       36.656       19.296       28.448       19.575      372.337      809.273      383.173        0.215        0.078       37.244       12.757        0.117      340.415       14.421      862.616
06/21/2013  08:31:00       22.934       36.310       32.452       20.317       35.248       29.385      412.775     1242.450      863.471        0.271        0.126       42.946       16.355        0.145      340.460       14.497      862.607
06/21/2013  08:32:00       -0.166       -2.864       39.237       17.200       27.689       15.110      295.842      766.692      228.300        0.142        0.065        2.869        8.566        8.918      341.169       15.696      862.616
06/21/2013  08:33:00        7.705       -4.330       46.609       22.246       50.895       34.005      494.895     2590.341     1156.373        0.325        0.212        8.838       38.259       18.738      340.882       15.210      862.621
06/21/2013  08:34:00       25.531      -42.872       25.828       29.780       63.884       39.703      886.821     4081.180     1576.291        0.485        0.327       49.898       43.044        0.744      340.436       14.456      862.622
06/21/2013  08:35:00        4.576        9.492       45.515       25.920       34.795       32.168      671.849     1210.702     1034.785        0.255        0.146       10.538       30.319        8.278      340.823       15.112      862.625
06/21/2013  08:36:00        5.009      -37.462       35.855       51.086       63.453       47.662     2609.779     4026.344     2271.696        0.581        0.445       37.795       37.391        0.979      340.881       15.207      862.633
06/21/2013  08:37:00       -6.105       -4.058       45.413       24.138       45.519       41.962      582.661     2071.997     1760.837        0.326        0.221        7.330       35.103       22.932      341.138       15.644      862.637
06/21/2013  08:38:00        2.918      -37.995       15.033       27.113       36.937       39.151      735.118     1364.336     1532.765        0.265        0.182       38.106       25.193        0.437      340.956       15.334      862.641
06/21/2013  08:39:00       31.714      -61.596       -1.726       49.300       34.358       35.247     2430.493     1180.452     1242.370        0.483        0.243       69.281       25.823        0.139      340.219       14.089      862.643
06/21/2013  08:40:00      -10.592       22.268       20.445       25.235       25.229       26.940      636.814      636.483      725.775        0.151        0.100       24.659       22.541        0.836      340.719       14.935      862.638
06/21/2013  08:41:00       14.736       17.940       52.256       28.667       26.720       21.937      821.774      713.973      481.252        0.264        0.101       23.216       12.139        0.273      340.992       15.396      862.621
06/21/2013  08:42:00       28.263       48.820       51.387       24.579       36.099       26.001      604.120     1303.134      676.040        0.420        0.129       56.411       18.491        0.107      340.435       14.454      862.618
06/21/2013  08:43:00      -19.462       10.216       18.019       24.969       46.669       21.654      623.427     2178.037      468.907        0.204        0.164       21.980       12.974        0.348      340.341       14.294      862.594
06/21/2013  08:44:00       40.873      -58.679       30.837       46.918       45.505       27.074     2201.260     2070.710      733.010        0.553        0.250       71.511       13.656        0.036      340.566       14.676      862.592
06/21/2013  08:45:00       38.728      -50.727        8.540       33.463       49.786       37.950     1119.768     2478.633     1440.173        0.459        0.252       63.820       38.981        0.373      340.558       14.664      862.578
06/21/2013  08:46:00       52.819       -0.335       20.122       56.874       84.039       65.868     3234.624     7062.493     4338.579        0.891        0.732       52.820       73.498        1.936      340.510       14.581      862.566
06/21/2013  08:47:00      -40.506      -23.929        1.540       51.783       41.283       26.425     2681.450     1704.292      698.259        0.365        0.254       47.046       10.670        0.051      340.470       14.513      862.555
06/21/2013  08:48:00       -0.690       -7.688       33.539       20.972       23.384       17.396      439.809      546.792      302.619        0.124        0.064        7.719       19.008        6.064      341.499       16.255      862.551
06/21/2013  08:49:00      -11.202        0.599       28.379       23.460       22.493       19.971      550.387      505.917      398.837        0.119        0.073       11.218       14.244        1.612      341.269       15.867      862.548
06/21/2013  08:50:00      -36.111        5.967       13.909       22.191       19.420       18.304      492.441      377.153      335.050        0.137        0.060       36.601        9.228        0.064      340.671       14.853      862.553
06/21/2013  08:51:00      -44.396        0.948       20.960       28.092       31.599       20.338      789.146      998.478      413.645        0.231        0.110       44.407       18.397        0.172      340.870       15.189      862.542
06/21/2013  08:52:00       20.877      -88.169        4.525       52.954       52.574       51.253     2804.148     2763.973     2626.895        0.821        0.410       90.607       43.749        0.233      340.741       14.972      862.541
06/21/2013  08:53:00       -6.234      -32.628      -10.908       44.329       55.330       29.806     1965.026     3061.418      888.399        0.357        0.296       33.218       31.416        0.894      340.275       14.184      862.539
06/21/2013  08:54:00      -12.912       26.856       41.431       29.514       27.482       21.688      871.066      755.242      470.383        0.235        0.105       29.799       22.728        0.582      341.035       15.469      862.535
06/21/2013  08:55:00       10.732       -3.223       30.072       40.140       30.608       31.653     1611.258      936.838     1001.931        0.229        0.178       11.205       14.559        1.688      341.162       15.684      862.536
06/21/2013  08:56:00       -0.557       23.842       55.858       36.698       38.935       37.458     1346.708     1515.951     1403.066        0.398        0.213       23.848       35.415        2.205      341.524       16.298      862.534
06/21/2013  08:57:00      -30.012      -13.775       15.693       16.090       36.069       23.497      258.903     1301.009      552.121        0.172        0.106       33.022        9.202        0.078      340.981       15.377      862.538
06/21/2013  08:58:00       57.013     -164.140      -34.069       68.394       62.840       41.133     4677.738     3948.829     1691.916        2.083        0.516      173.760       42.137        0.059      340.780       15.033      862.529
06/21/2013  08:59:00       52.305     -162.573      -24.284       62.968       43.363       37.718     3964.929     1880.346     1422.649        1.851        0.363      170.780       30.336        0.032      340.576       14.691      862.530
06/21/2013  09:00:00       55.876      -57.206       25.198       37.962       79.008       52.440     1441.108     6242.214     2749.941        0.873        0.522       79.967       43.545        0.297      340.847       15.151      862.548
06/21/2013  09:01:00       40.929       18.040       46.383       34.717       56.067       28.202     1205.290     3143.470      795.332        0.465        0.257       44.728       26.947        0.363      340.731       14.955      862.531
06/21/2013  09:02:00       34.718       68.791       -9.674       33.379       18.598       14.516     1114.143      345.881      210.720        0.385        0.084       77.056       18.315        0.056      340.143       13.961      862.516
06/21/2013  09:03:00        3.022       29.848       18.338       21.764       32.296       25.574      473.678     1043.025      654.011        0.170        0.109       30.001       23.821        0.630      341.014       15.434      862.492
06/21/2013  09:04:00      -18.242       62.997        9.028       35.994       46.394       28.612     1295.577     2152.424      818.639        0.432        0.213       65.585       23.994        0.134      340.988       15.390      862.485
06/21/2013  09:05:00      -70.810       38.608        1.113       44.246       43.665       24.607     1957.740     1906.638      605.526        0.549        0.223       80.652       16.292        0.041      340.539       14.629      862.477
06/21/2013  09:06:00       -3.584        3.240       20.467       23.442       22.141       17.267      549.529      490.228      298.141        0.089        0.067        4.832       13.407        7.699      341.415       16.115      862.461
06/21/2013  09:07:00      -26.153        1.799       23.324       17.405       25.860       18.349      302.939      668.719      336.700        0.127        0.065       26.214       13.913        0.282      341.250       15.832      862.443
06/21/2013  09:08:00       28.108        0.628       18.288       87.732       74.496       38.744     7696.878     5549.620     1501.095        0.793        0.737       28.115       28.137        1.002      340.965       15.350      862.426
06/21/2013  09:09:00      115.382      102.841       71.426      105.338       73.048       73.543    11096.055     5335.964     5408.628        2.541        1.092      154.562       71.163        0.212      341.163       15.683      862.399
06/21/2013  09:10:00       97.409      112.301      103.092       76.046       64.552       66.621     5783.017     4166.952     4438.415        2.356        0.719      148.661       44.080        0.088      340.955       15.331      862.401
06/21/2013  09:11:00      171.454       96.052       24.084       86.102       51.536       46.228     7413.494     2655.948     2136.984        2.570        0.610      196.526       24.061        0.015      340.996       15.400      862.401
06/21/2013  09:12:00      156.348      125.987       11.842       61.170       62.001       45.775     3741.762     3844.156     2095.349        2.507        0.484      200.792       12.973        0.004      340.575       14.688      862.396
06/21/2013  09:13:00      143.980      103.458       16.874       55.430       54.867       43.155     3072.469     3010.403     1862.311        1.983        0.397      177.296       23.307        0.017      340.778       15.031      862.390
06/21/2013  09:14:00      135.422      131.086       65.857       93.511       67.593       84.056     8744.381     4568.872     7065.386        3.012        1.019      188.475       69.924        0.138      340.865       15.179      862.371
06/21/2013  09:15:00       57.568       53.361       14.667       54.844       74.332       51.947     3007.844     5525.203     2698.472        0.880        0.562       78.495       41.590        0.281      340.625       14.774      862.403
06/21/2013  09:16:00      -49.617      -29.341       -4.491       44.589       30.826       32.468     1988.159      950.234     1054.151        0.367        0.200       57.643       18.626        0.104      340.393       14.384      862.393
06/21/2013  09:17:00     -111.819      -49.966      -15.855       43.586       26.220       16.572     1899.779      687.513      274.636        0.906        0.143      122.475       18.005        0.022      340.316       14.253      862.380
06/21/2013  09:18:00     -124.330      -31.918      -18.195       22.335       23.002       15.116      498.859      529.106      228.489        0.903        0.063      128.362        4.874        0.001      340.321       14.261      862.373
06/21/2013  09:19:00      -96.514      -51.858       -2.658       44.896       33.991       25.233     2015.678     1155.363      636.691        0.791        0.190      109.563       20.321        0.034      340.606       14.744      862.352
06/21/2013  09:20:00     -113.636      -22.581       -7.379       42.113       21.753       21.901     1773.502      473.215      479.660        0.810        0.136      115.858       21.117        0.033      340.529       14.612      862.342
06/21/2013  09:21:00      -62.111       -8.091        1.242       19.439       28.590       14.733      377.866      817.398      217.061        0.267        0.071       62.636       14.709        0.055      340.608       14.747      862.325
06/21/2013  09:22:00       -2.611       94.021        7.093       46.147       92.943       39.958     2129.583     8638.384     1596.672        1.063        0.618       94.057       29.806        0.100      341.215       15.774      862.315
06/21/2013  09:23:00       35.128      101.378       13.286       55.394       58.927       41.419     3068.527     3472.377     1715.537        0.997        0.413      107.291       33.242        0.096      341.157       15.674      862.299
06/21/2013  09:24:00      -84.306       94.531      -16.529       71.343       66.007       42.079     5089.830     4356.879     1770.665        1.376        0.561      126.664       38.899        0.094      340.795       15.063      862.283
06/21/2013  09:25:00      -61.316       68.384       -4.599       54.626       53.930       33.045     2984.005     2908.407     1091.943        0.772        0.349       91.848       30.422        0.110      341.012       15.430      862.260
06/21/2013  09:26:00       17.219       90.583        0.446       44.620       63.047       44.287     1990.958     3974.914     1961.349        0.821        0.396       92.205       43.997        0.228      341.511       16.275      862.256
06/21/2013  09:27:00      116.570      112.710       15.625       93.740       84.757       70.393     8787.184     7183.712     4955.230        2.373        1.046      162.148       52.902        0.106      341.281       15.882      862.235
06/21/2013  09:28:00      138.894       86.165       29.945       75.048       61.438       53.091     5632.185     3774.580     2818.705        1.992        0.611      163.450        8.604        0.003      341.288       15.895      862.230
06/21/2013  09:29:00      267.540      182.895       41.004       88.295       80.328       73.954     7796.095     6452.593     5469.175        6.321        0.986      324.081       27.118        0.007      341.054       15.497      862.187
06/21/2013  09:30:00      154.700      109.947       93.671      110.662       78.707       79.272    12246.134     6194.820     6284.032        3.475        1.236      189.790       67.727        0.127      341.160       15.676      862.167
06/21/2013  09:31:00      198.731      111.572       17.661       90.657       64.081       57.243     8218.745     4106.397     3276.763        3.392        0.780      227.908       30.844        0.018      341.137       15.639      862.165
06/21/2013  09:32:00       66.809       79.994       63.537       83.716       52.581       59.121     7008.328     2764.813     3495.235        1.408        0.663      104.223       55.609        0.285      341.692       16.581      862.166
06/21/2013  09:33:00      159.512      106.155       16.631       82.851       67.833       60.779     6864.358     4601.353     3694.057        2.607        0.758      191.606       24.565        0.016      341.278       15.878      862.155
06/21/2013  09:34:00       89.656       96.813       51.880       70.773       57.790       63.622     5008.782     3339.661     4047.723        1.625        0.620      131.951       50.797        0.148      341.291       15.900      862.149
06/21/2013  09:35:00       45.116       28.248       63.613       52.693       77.042       59.229     2776.546     5935.455     3508.111        0.955        0.611       53.230       57.140        1.152      342.064       17.214      862.148
06/21/2013  09:36:00       29.884       21.631      102.503       69.697      114.237       63.822     4857.732    13050.168     4073.220        1.692        1.099       36.891       73.253        3.943      341.797       16.760      862.129
06/21/2013  09:37:00       98.697     -193.819      -28.885       85.367       92.646       66.111     7287.460     8583.198     4370.628        3.419        1.012      217.501       58.829        0.073      341.477       16.213      862.163
06/21/2013  09:38:00       45.725     -190.510      -18.788       56.135       78.557       60.175     3151.102     6171.249     3621.013        2.584        0.647      195.920       42.358        0.047      341.199       15.744      862.181
06/21/2013  09:39:00      -29.079       -7.069       35.778       52.247       68.865       51.691     2729.738     4742.442     2671.931        0.616        0.507       29.926       50.552        2.854      341.594       16.417      862.171
06/21/2013  09:40:00        0.778      -23.894       37.826       43.452       94.040       45.351     1888.063     8843.571     2056.718        0.739        0.639       23.907       46.525        3.787      341.726       16.639      862.155
06/21/2013  09:41:00      -10.132      -15.574        9.107       48.716       53.800       40.930     2373.211     2894.437     1675.303        0.368        0.347       18.580       37.684        4.114      341.598       16.424      862.128
06/21/2013  09:42:00      -27.441      -89.178       16.977       76.498       96.523       52.211     5851.887     9316.728     2726.007        1.344        0.895       93.304       58.089        0.388      341.617       16.453      862.108
06/21/2013  09:43:00      -43.318      -65.542       15.181       73.557       63.270       51.789     5410.661     4003.109     2682.143        0.925        0.605       78.563       58.605        0.556      341.384       16.061      862.099
06/21/2013  09:44:00      -99.110      -34.649        8.936       71.419       38.781       26.350     5100.685     1503.941      694.312        0.920        0.365      104.992       31.691        0.091      341.205       15.756      862.086
06/21/2013  09:45:00      -89.646      -39.414        6.471       84.037       58.480       28.835     7062.173     3419.933      831.473        1.047        0.566       97.928       29.203        0.089      341.218       15.779      862.080
06/21/2013  09:46:00       52.839       72.507       17.665       71.010       40.826       37.317     5042.424     1666.783     1392.562        0.823        0.405       89.718       20.871        0.054      341.768       16.710      862.092
06/21/2013  09:47:00       74.823       59.961       32.187       75.814       58.660       47.060     5747.755     3440.974     2214.655        1.081        0.570       95.884       27.160        0.080      341.491       16.241      862.077
06/21/2013  09:48:00      -46.856      -24.334       16.219       32.812       46.868       32.661     1076.629     2196.638     1066.765        0.369        0.217       52.798       22.246        0.178      341.260       15.849      862.069
06/21/2013  09:49:00       80.728       69.856       66.699       73.635       73.245       45.428     5422.051     5364.855     2063.680        1.435        0.643      106.756       39.829        0.139      341.831       16.815      862.069
06/21/2013  09:50:00      127.608      -40.029       44.972      123.499      119.894       65.506    15252.003    14374.585     4291.011        2.691        1.696      133.739       79.319        0.352      341.610       16.442      862.067
06/21/2013  09:51:00      206.042       -4.384       87.186      124.394      110.843       79.921    15473.936    12286.224     6387.338        4.210        1.707      206.088       74.646        0.131      341.384       16.055      862.060
06/21/2013  09:52:00       90.291       -5.281       74.649      112.591      132.351       77.179    12676.649    17516.899     5956.561        2.494        1.808       90.445       81.284        0.808      341.632       16.479      862.035
06/21/2013  09:53:00       80.468      -14.568       94.901       89.377      110.292       73.497     7988.206    12164.359     5401.738        2.062        1.278       81.776       68.650        0.705      341.715       16.619      862.039
06/21/2013  09:54:00       92.387       47.577       54.096       72.085       59.083       66.548     5196.288     3490.846     4428.601        1.342        0.656      103.918       48.798        0.221      341.316       15.943      862.062
06/21/2013  09:55:00       70.246       55.476       81.086       74.205       81.003       50.600     5506.357     6561.437     2560.312        1.460        0.731       89.510       55.328        0.382      341.640       16.493      862.021
06/21/2013  09:56:00       65.853      -74.371       36.557       83.295       90.458       68.978     6938.025     8182.592     4757.905        1.554        0.994       99.336       64.565        0.422      341.756       16.689      862.013
06/21/2013  09:57:00       25.172        8.781       56.578       56.586       86.924       64.594     3201.923     7555.797     4172.321        0.942        0.747       26.660       67.022        6.320      342.210       17.462      862.008
06/21/2013  09:58:00        4.717      -74.874       14.216       26.155       70.247       27.873      684.077     4934.572      776.885        0.611        0.320       75.022       21.251        0.080      341.671       16.546      861.993
06/21/2013  09:59:00       80.421      100.309       69.146       57.899       47.149       36.996     3352.238     2222.996     1368.668        1.413        0.347      128.567       30.401        0.056      341.571       16.376      862.000
06/21/2013  10:00:00       77.557       76.279      100.030       77.230      123.755       61.565     5964.439    15315.394     3790.292        2.345        1.254      108.783       55.703        0.262      341.632       16.477      861.976
06/21/2013  10:01:00      143.314      -99.721       26.567       80.964      107.996       63.341     6555.174    11663.139     4012.026        2.671        1.112      174.594       63.460        0.132      341.663       16.529      861.973
06/21/2013  10:02:00       50.989      -14.617       68.262       81.190       99.513       75.887     6591.822     9902.801     5758.893        1.486        1.113       53.042       70.158        1.749      342.089       17.255      861.966
06/21/2013  10:03:00       19.861      -10.138       66.021       47.161       57.433       46.281     2224.125     3298.584     2141.916        0.626        0.383       22.299       31.303        1.971      342.067       17.219      861.953
06/21/2013  10:04:00       39.143       32.876       39.938       50.939       51.777       42.060     2594.807     2680.902     1769.058        0.563        0.352       51.118       39.505        0.597      342.068       17.219      861.956
06/21/2013  10:05:00      194.456       82.013       19.291       81.369       80.205       48.709     6620.869     6432.825     2372.526        3.017        0.771      211.043       33.773        0.026      341.576       16.382      861.965
06/21/2013  10:06:00      203.745      116.691       23.671       97.432       56.527       59.426     9493.063     3195.278     3531.452        3.595        0.811      234.795       38.271        0.027      341.265       15.853      861.941
06/21/2013  10:07:00      110.036      107.990        2.571       69.308       49.811       44.588     4803.572     2481.103     1988.133        1.652        0.464      154.175       24.810        0.026      341.402       16.089      861.927
06/21/2013  10:08:00      -29.867       34.756       -3.725       43.520       28.206       36.197     1893.998      795.561     1310.253        0.306        0.200       45.826       29.217        0.406      341.780       16.732      861.916
06/21/2013  10:09:00       67.836       72.309       58.913       55.885       44.827       48.617     3123.111     2009.470     2363.645        1.040        0.375       99.147       20.237        0.042      341.916       16.961      861.895
06/21/2013  10:10:00       73.352       38.693       89.006       99.711      107.265       65.240     9942.356    11505.719     4256.298        2.025        1.285       82.932       47.697        0.331      342.014       17.126      861.865
06/21/2013  10:11:00      147.241       87.345       19.614      116.690       63.559       56.318    13616.666     4039.782     3171.730        2.526        1.041      171.199       41.979        0.060      341.603       16.427      861.888
06/21/2013  10:12:00      153.016      110.842       35.391       78.384       54.214       58.217     6144.020     2939.200     3389.167        2.471        0.624      188.944       31.891        0.028      341.588       16.403      861.892
06/21/2013  10:13:00      209.235      108.205       63.919      106.330       73.190       76.881    11306.163     5356.789     5910.762        4.107        1.129      235.559       50.553        0.046      341.703       16.597      861.886
06/21/2013  10:14:00      127.109       56.610       50.719      112.667       69.985       47.885    12693.879     4897.895     2293.019        2.091        0.994      139.146       32.169        0.053      341.725       16.637      861.890
06/21/2013  10:15:00      184.275      132.268       84.522      126.181       79.180       94.363    15921.669     6269.550     8904.308        4.484        1.555      226.830       74.098        0.107      341.738       16.655      861.886
06/21/2013  10:16:00      108.233      146.882      119.515       98.544       81.106       71.053     9710.823     6578.128     5048.487        3.445        1.067      182.452       63.593        0.121      341.640       16.490      861.887
06/21/2013  10:17:00       28.250      109.660      133.601       65.256       96.541       60.816     4258.355     9320.099     3698.595        2.397        0.864      113.241       58.176        0.264      341.679       16.557      861.885
06/21/2013  10:18:00      112.915       96.755       85.666       85.554       64.215       74.035     7319.469     4123.518     5481.144        2.318        0.846      148.699       59.707        0.161      341.899       16.930      861.883
06/21/2013  10:19:00      192.173      107.614       28.951      118.263       79.414       61.445    13986.235     6306.609     3775.434        3.670        1.203      220.253       50.076        0.052      341.770       16.711      861.871
06/21/2013  10:20:00      212.209      110.595       36.880      145.118       95.448       75.832    21059.134     9110.287     5750.478        4.726        1.796      239.299       52.956        0.049      341.635       16.481      861.865
06/21/2013  10:21:00      171.346      124.918        9.715      148.962       86.314       66.199    22189.789     7450.085     4382.313        3.953        1.701      212.047       48.347        0.052      341.758       16.693      861.879
06/21/2013  10:22:00       63.004      105.617       10.317       83.485       93.570       65.800     6969.745     8755.291     4329.597        1.764        1.003      122.982       48.637        0.156      341.904       16.940      861.862
06/21/2013  10:23:00       58.805       88.162       20.867       73.434       60.581       52.825     5392.534     3670.065     2790.511        1.176        0.593      105.974       41.881        0.156      341.812       16.784      861.853
06/21/2013  10:24:00       33.829      161.425       -9.735       54.417       83.033       49.956     2961.196     6894.444     2495.560        1.982        0.618      164.931       44.928        0.074      341.826       16.808      861.845
06/21/2013  10:25:00       16.904       48.368        5.023       58.252       41.867       24.081     3393.326     1752.814      579.889        0.419        0.286       51.237       22.500        0.193      341.779       16.728      861.847
06/21/2013  10:26:00      -24.836       84.473       -0.536       42.725       50.320       35.384     1825.427     2532.103     1252.044        0.668        0.280       88.048       30.714        0.122      342.002       17.109      861.847
06/21/2013  10:27:00       27.760       52.245       24.817       30.750       46.793       35.991      945.555     2189.586     1295.320        0.427        0.222       59.162       31.098        0.276      342.454       17.875      861.849
06/21/2013  10:28:00       50.508      -39.849        2.684       53.717       66.597       35.826     2885.564     4435.204     1283.502        0.637        0.430       64.335       31.357        0.238      342.131       17.326      861.856
06/21/2013  10:29:00      -12.301       -2.436        1.155       51.111       43.824       29.020     2612.293     1920.533      842.169        0.277        0.269       12.540       15.881        1.604      342.370       17.733      861.852
06/21/2013  10:30:00      -80.865        1.809       15.109       60.345       40.975       31.451     3641.555     1678.937      989.171        0.654        0.315       80.885       36.796        0.207      342.248       17.526      861.844
06/21/2013  10:31:00      -53.724        6.146        6.513       31.603       44.491       29.849      998.770     1979.411      890.992        0.342        0.193       54.074       29.888        0.306      341.971       17.055      861.850
06/21/2013  10:32:00      -23.103      -18.021        7.336       31.168       28.766       25.356      971.439      827.472      642.938        0.168        0.122       29.301       23.577        0.647      342.346       17.691      861.853
06/21/2013  10:33:00       28.224       26.511       20.367       57.721       43.320       36.767     3331.767     1876.659     1351.842        0.424        0.328       38.722       34.087        0.775      342.386       17.760      861.851
06/21/2013  10:34:00      129.936       87.941       24.873       66.295       61.471       50.205     4394.993     3778.653     2520.584        1.796        0.535      156.898       35.013        0.050      342.100       17.271      861.871
06/21/2013  10:35:00      149.833      100.653       24.946       85.089       81.496       47.342     7240.187     6641.537     2241.220        2.466        0.806      180.502       35.678        0.039      341.814       16.785      861.874
06/21/2013  10:36:00       79.632       62.140       50.796       62.947       45.246       56.271     3962.279     2047.196     3166.420        1.098        0.459      101.008       39.939        0.156      342.177       17.404      861.863
06/21/2013  10:37:00       26.032       43.541       66.332       68.227       53.949       32.094     4654.873     2910.455     1030.009        0.778        0.430       50.730       30.000        0.350      342.487       17.931      861.855
06/21/2013  10:38:00       25.771       54.271       93.215       55.999       57.510       42.853     3135.910     3307.350     1836.362        1.029        0.414       60.079       41.820        0.485      342.879       18.598      861.864
06/21/2013  10:39:00       54.458      -51.634       57.494       96.536      153.476       83.446     9319.211    23554.923     6963.256        2.438        1.992       75.045       93.975        1.568      342.437       17.846      861.836
06/21/2013  10:40:00       78.656      -23.501       53.102       85.591      107.185       83.052     7325.827    11488.707     6897.631        1.763        1.286       82.092       82.614        1.013      342.464       17.892      861.856
06/21/2013  10:41:00       33.523       19.621       91.991       63.716       67.101       54.468     4059.714     4502.595     2966.812        1.075        0.576       38.843       50.777        1.709      342.568       18.069      861.845
06/21/2013  10:42:00        8.460       26.542      100.084       53.784       73.054       46.496     2892.736     5336.829     2161.879        1.059        0.520       27.858       41.996        2.273      342.396       17.775      861.837
06/21/2013  10:43:00       56.353      -31.183       42.718       91.736       87.216       82.825     8415.469     7606.674     6859.955        1.442        1.144       64.405       67.551        1.100      342.277       17.574      861.812
06/21/2013  10:44:00       33.526       47.966      100.093       56.358       78.534       55.774     3176.199     6167.541     3110.685        1.295        0.623       58.521       51.591        0.777      342.344       17.688      861.814
06/21/2013  10:45:00       18.872       25.860       72.228       43.276       35.255       28.968     1872.778     1242.918      839.150        0.510        0.198       32.014       14.708        0.211      343.017       18.833      861.828
06/21/2013  10:46:00       55.075       63.800       42.794       46.359       38.841       33.197     2149.203     1508.624     1102.009        0.685        0.238       84.283       19.583        0.054      342.286       17.590      861.821
06/21/2013  10:47:00       54.441      -21.538       46.731       65.466       98.123       55.705     4285.754     9628.115     3103.060        1.131        0.851       58.547       59.324        1.027      342.520       17.988      861.818
06/21/2013  10:48:00       97.296      122.197        9.120       73.189       49.015       56.640     5356.695     2402.467     3208.145        1.772        0.548      156.200       40.914        0.069      341.944       17.007      861.825
06/21/2013  10:49:00        1.791       27.695       -1.861       49.436       36.942       28.007     2443.954     1364.694      784.386        0.268        0.230       27.753       23.181        0.698      342.377       17.745      861.826
06/21/2013  10:50:00       66.135     -135.962       -8.602       71.834       73.152       54.797     5160.064     5351.266     3002.679        1.822        0.676      151.194       45.841        0.092      342.329       17.661      861.815
06/21/2013  10:51:00       25.515       33.420       66.416       52.742       57.066       43.615     2781.685     3256.575     1902.299        0.706        0.397       42.047       43.720        1.081      342.650       18.209      861.804
06/21/2013  10:52:00       65.553       14.496       69.815       80.266      116.576       80.770     6442.662    13589.968     6523.752        1.796        1.328       67.136       94.086        1.964      342.382       17.751      861.827
06/21/2013  10:53:00        2.204       11.977       39.335       51.242       39.328       38.690     2625.791     1546.720     1496.940        0.368        0.283       12.178       34.615        8.079      342.368       17.731      861.822
06/21/2013  10:54:00       17.454      -15.130       11.685       34.495       27.397       30.268     1189.874      750.586      916.146        0.176        0.143       23.099       28.550        1.528      342.561       18.058      861.799
06/21/2013  10:55:00       -9.343      -38.741        2.591       20.468       53.027       23.249      418.948     2811.812      540.515        0.268        0.189       39.852        9.183        0.053      342.192       17.431      861.776
06/21/2013  10:56:00      -27.933      -48.412      -15.322       37.153       41.535       15.677     1380.349     1725.122      245.766        0.335        0.168       55.893        8.035        0.021      342.172       17.395      861.772
06/21/2013  10:57:00      -14.694        1.774       33.057       25.060       36.284       30.973      628.010     1316.564      959.346        0.211        0.145       14.801       26.542        3.216      343.069       18.923      861.750
06/21/2013  10:58:00       19.301       42.093       40.477       41.989       43.034       43.949     1763.045     1851.929     1931.494        0.466        0.277       46.307       15.847        0.117      342.851       18.552      861.743
06/21/2013  10:59:00      175.636       95.029       19.585      115.894      105.308       63.183    13431.473    11089.700     3992.140        3.438        1.426      199.696       55.566        0.077      342.270       17.560      861.748
06/21/2013  11:00:00       78.541      111.415       19.417       90.297       77.127       81.699     8153.498     5948.575     6674.667        1.986        1.039      136.316       50.654        0.138      342.328       17.659      861.752
06/21/2013  11:01:00       73.131       88.260        8.680       84.640       68.129       58.926     7164.013     4641.514     3472.244        1.424        0.764      114.621       29.898        0.068      342.670       18.241      861.742
06/21/2013  11:02:00      235.763      161.124       22.873      132.369       93.293       73.332    17521.542     8703.640     5377.593        5.683        1.580      285.561       42.910        0.023      342.409       17.795      861.739
06/21/2013  11:03:00       94.372       73.860       89.994       77.539       81.018       69.288     6012.243     6563.894     4800.789        1.992        0.869      119.838       55.995        0.218      342.477       17.914      861.744
06/21/2013  11:04:00       17.930       28.968       59.974       60.552       70.580       46.419     3666.580     4981.541     2154.757        0.778        0.540       34.068       39.715        1.359      342.638       18.187      861.741
06/21/2013  11:05:00      141.576      -67.646       12.710      106.121      103.116       59.013    11261.671    10632.993     3482.481        2.507        1.269      156.906       54.980        0.123      342.358       17.710      861.709
06/21/2013  11:06:00       93.074       53.910       98.365      107.558      117.230       82.710    11568.690    13742.813     6840.887        2.669        1.608      107.559       83.124        0.597      342.709       18.307      861.675
06/21/2013  11:07:00      127.480      -70.737       62.122      143.079      142.898       93.034    20471.580    20419.748     8655.265        3.732        2.477      145.791       98.071        0.453      342.746       18.371      861.686
06/21/2013  11:08:00      156.668       -9.514       84.905      130.717      142.689       79.011    17087.064    20360.182     6242.767        3.776        2.185      156.957       94.160        0.360      342.569       18.069      861.683
06/21/2013  11:09:00      188.884     -128.599       15.975      140.417      176.318       94.066    19716.840    31088.135     8848.397        5.605        2.983      228.506      111.411        0.238      342.551       18.037      861.673
06/21/2013  11:10:00      119.438      -27.594       89.460      103.252      128.713       94.850    10660.927    16566.942     8996.605        2.962        1.811      122.584       94.057        0.589      342.740       18.359      861.696
06/21/2013  11:11:00      132.424     -119.896       18.916       84.046      113.913       60.190     7063.730    12976.073     3622.887        2.796        1.183      178.637       58.573        0.108      342.430       17.833      861.695
06/21/2013  11:12:00      107.438     -123.480       11.323       79.565      111.496       74.788     6330.634    12431.357     5593.183        2.563        1.218      163.677       64.700        0.156      342.429       17.831      861.693
06/21/2013  11:13:00       85.998       73.290       62.908       71.546       66.879       46.187     5118.887     4472.837     2133.265        1.422        0.586      112.992       25.607        0.051      342.508       17.967      861.684
06/21/2013  11:14:00      136.454       92.260       28.899       58.166       34.289       38.996     3383.341     1175.724     1520.660        1.702        0.304      164.717       23.730        0.021      341.964       17.044      861.678
06/21/2013  11:15:00       32.387      -75.611       25.509       31.764       93.981       41.101     1008.943     8832.408     1689.263        0.947        0.577       82.255       51.591        0.393      342.264       17.553      861.689
06/21/2013  11:16:00       43.210      -58.909       41.359       58.639       77.021       43.778     3438.541     5932.203     1916.508        0.917        0.564       73.057       38.041        0.271      342.734       18.351      861.672
06/21/2013  11:17:00       84.636       25.521       29.447       79.901       91.873       52.502     6384.120     8440.604     2756.498        1.313        0.879       88.400       34.874        0.156      342.698       18.288      861.667
06/21/2013  11:18:00       60.722       47.092       48.802       62.682       80.477       65.506     3929.081     6476.620     4291.064        1.149        0.735       76.843       56.898        0.548      342.486       17.930      861.686
06/21/2013  11:19:00       22.185      -26.181        5.869       45.372       41.733       28.768     2058.643     1741.602      827.618        0.292        0.231       34.317       22.847        0.443      342.223       17.482      861.695
06/21/2013  11:20:00       17.770        1.670       -9.761       21.262       25.105       21.032      452.070      630.281      442.334        0.097        0.076       17.848       17.195        0.928      342.249       17.528      861.686
06/21/2013  11:21:00       37.481       67.907       44.996       23.238       41.667       25.653      540.020     1736.131      658.096        0.549        0.147       77.564       18.607        0.058      342.432       17.838      861.663
06/21/2013  11:22:00      -77.135       90.826      -10.110       64.594       47.661       43.616     4172.333     2271.569     1902.391        1.132        0.417      119.160       44.762        0.141      342.431       17.836      861.647
06/21/2013  11:23:00     -173.984       51.670      -15.883       57.207       57.334       27.396     3272.600     3287.145      750.518        2.025        0.366      181.494       24.843        0.019      342.146       17.349      861.638
06/21/2013  11:24:00      -39.084      -36.334       15.426       65.615       53.021       35.398     4305.355     2811.227     1252.989        0.573        0.418       53.364       44.160        0.685      343.063       18.914      861.628
06/21/2013  11:25:00      -34.435       -8.531       13.730       46.018       24.240       25.798     2117.696      587.573      665.537        0.241        0.169       35.476       26.445        0.556      343.124       19.016      861.629
06/21/2013  11:26:00       12.620        2.339       28.783       40.179       31.008       28.064     1614.312      961.480      787.614        0.218        0.168       12.835       25.960        4.091      343.355       19.410      861.633
06/21/2013  11:27:00        2.806       34.009        9.627       77.625       67.618       54.681     6025.645     4572.163     2989.996        0.742        0.679       34.125       32.511        0.908      342.954       18.726      861.601
06/21/2013  11:28:00       74.428      121.773      138.528       80.763       82.239       72.522     6522.725     6763.222     5259.407        2.905        0.927      142.718       57.056        0.160      342.666       18.234      861.601
06/21/2013  11:29:00       30.345       73.255       94.037       52.162       54.837       37.833     2720.898     3007.102     1431.369        1.114        0.358       79.292       29.761        0.141      342.947       18.714      861.595
06/21/2013  11:30:00      109.215     -100.430       33.576       97.802      144.315       77.997     9565.163    20826.874     6083.484        2.980        1.824      148.372       91.545        0.381      342.939       18.699      861.613
06/21/2013  11:31:00       54.290      -44.220       61.630       62.454       79.702       54.144     3900.525     6352.378     2931.521        1.094        0.659       70.020       49.364        0.497      343.023       18.844      861.644
06/21/2013  11:32:00      -14.677      -66.826        9.633       98.299       75.461       41.974     9662.597     5694.401     1761.852        1.094        0.856       68.418       38.156        0.311      342.855       18.557      861.662
06/21/2013  11:33:00     -126.102       -9.539       -5.860       65.698       51.562       27.775     4316.272     2658.680      771.450        1.189        0.387      126.462       24.155        0.036      342.080       17.239      861.643
06/21/2013  11:34:00     -159.177      -56.323       -3.321       58.041       40.989       26.934     3368.804     1680.125      725.461        1.715        0.289      168.848       24.821        0.022      342.231       17.495      861.635
06/21/2013  11:35:00      -59.901      -98.160        2.146       69.437       67.535       50.555     4821.435     4560.928     2555.815        1.258        0.597      114.994       45.404        0.156      342.407       17.796      861.626
06/21/2013  11:36:00     -128.438     -103.667       -8.892       92.666       61.633       35.859     8587.051     3798.586     1285.889        2.049        0.684      165.055       40.578        0.060      342.295       17.603      861.611
06/21/2013  11:37:00     -203.354     -156.125       -3.378      136.109       90.547       55.285    18525.547     8198.736     3056.480        4.775        1.489      256.375       71.095        0.077      342.370       17.731      861.573
06/21/2013  11:38:00     -300.294      -72.761       -8.579       85.983       54.990       39.548     7393.118     3023.922     1564.057        5.376        0.599      308.984       15.190        0.002      342.146       17.347      861.580
06/21/2013  11:39:00     -125.867      -75.465       -3.037       88.176       54.801       39.390     7774.951     3003.136     1551.577        1.694        0.616      146.756       42.122        0.082      342.533       18.008      861.587
06/21/2013  11:40:00     -233.119      -68.723       -2.433       76.319       47.551       41.678     5824.578     2261.144     1737.028        3.445        0.491      243.038       37.012        0.023      342.393       17.769      861.582
06/21/2013  11:41:00     -215.394      -40.268        0.619       90.915       67.869       38.877     8265.517     4606.198     1511.453        3.120        0.719      219.126       40.447        0.034      342.421       17.816      861.569
06/21/2013  11:42:00     -123.218       -1.761        1.020       70.396       58.625       37.387     4955.620     3436.932     1397.786        1.249        0.490      123.230       39.872        0.105      342.581       18.090      861.580
06/21/2013  11:43:00     -125.399      -18.498        3.099      115.634       63.418       44.360    13371.249     4021.894     1967.800        1.772        0.968      126.756       51.036        0.162      342.799       18.461      861.579
06/21/2013  11:44:00      -99.948       22.986        1.663       81.633       39.534       34.664     6664.002     1562.953     1201.611        0.997        0.471      102.557       40.408        0.155      342.955       18.729      861.581
06/21/2013  11:45:00      -32.803       25.295       15.687       75.966       48.065       37.105     5770.775     2310.256     1376.809        0.571        0.473       41.424       26.946        0.423      343.198       19.142      861.589
06/21/2013  11:46:00      -20.019       63.404        5.229       42.192       49.248       41.332     1780.145     2425.392     1708.367        0.518        0.296       66.490       21.266        0.102      343.164       19.083      861.564
06/21/2013  11:47:00       10.620       70.240       11.689       77.564       53.338       44.770     6016.243     2844.899     2004.343        0.802        0.543       71.039       38.906        0.300      343.245       19.223      861.563
06/21/2013  11:48:00       93.934      110.027        9.608       79.619       68.637       48.931     6339.111     4710.971     2394.242        1.723        0.672      144.670       52.380        0.131      342.722       18.328      861.554
06/21/2013  11:49:00      -20.758       70.964        5.721       29.299       69.965       33.823      858.456     4895.087     1143.991        0.620        0.345       73.938       36.817        0.248      343.362       19.422      861.559
06/21/2013  11:50:00      -26.609      214.797       -5.780       59.420       79.111       46.012     3530.717     6258.580     2117.081        2.939        0.595      216.439       38.709        0.032      343.047       18.882      861.556
06/21/2013  11:51:00       74.609       80.316       22.801       45.235       53.912       46.144     2046.248     2906.452     2129.246        0.981        0.354      109.622       17.878        0.027      343.051       18.892      861.541
06/21/2013  11:52:00       31.112       52.049       16.050       45.560       44.160       38.793     2075.755     1950.069     1504.904        0.473        0.277       60.639       12.299        0.041      343.369       19.433      861.531
06/21/2013  11:53:00      -39.534      198.267       11.705       93.104       92.061       65.026     8668.303     8475.235     4228.423        3.119        1.069      202.170       57.522        0.081      343.121       19.006      861.527
06/21/2013  11:54:00      -54.241      157.779        0.833       72.474       89.017       53.633     5252.524     7924.039     2876.493        2.194        0.803      166.842       65.576        0.154      343.239       19.210      861.515
06/21/2013  11:55:00       62.161      140.834        3.921       72.166      130.230       60.170     5207.965    16959.831     3620.382        2.475        1.289      153.942       72.375        0.221      343.292       19.300      861.508
06/21/2013  11:56:00      -51.914      232.335      -28.534       48.408       94.567       38.957     2343.363     8942.994     1517.632        3.514        0.640      238.064       41.515        0.030      342.764       18.401      861.503
06/21/2013  11:57:00      -40.158      228.757      -35.146       53.935       82.395       49.452     2908.940     6788.871     2445.497        3.366        0.607      232.255       39.639        0.029      342.721       18.325      861.505
06/21/2013  11:58:00      -52.253      131.634       -4.416       75.267       61.865       46.681     5665.123     3827.276     2179.106        1.587        0.584      141.626       40.996        0.084      343.416       19.512      861.479
06/21/2013  11:59:00       44.190       87.437        6.007       92.616       65.528       46.844     8577.756     4293.866     2194.369        1.235        0.753       97.969       35.522        0.131      343.429       19.533      861.480
06/21/2013  12:00:00      100.889       79.405       18.015       73.791       55.560       47.082     5445.122     3086.912     2216.693        1.378        0.537      128.389       27.082        0.044      343.488       19.634      861.449
06/21/2013  12:01:00       86.067       71.008       23.956      128.692       54.349       48.603    16561.503     2953.783     2362.291        1.745        1.094      111.578       29.737        0.071      343.193       19.130      861.438
06/21/2013  12:02:00      -49.412      224.627      -13.324       64.792       91.612       44.545     4198.062     8392.829     1984.281        3.382        0.729      229.997       43.984        0.037      342.853       18.550      861.485
06/21/2013  12:03:00      -41.719       43.517        7.751       52.456       68.714       39.200     2751.635     4721.657     1536.645        0.635        0.450       60.284       43.425        0.519      343.334       19.374      861.492
06/21/2013  12:04:00       26.525       23.497        3.397       54.491       67.539       37.540     2969.215     4561.544     1409.278        0.510        0.447       35.435       32.064        0.819      343.063       18.913      861.500
06/21/2013  12:05:00      -17.486       26.476       17.570       47.045       43.733       32.737     2213.213     1912.587     1071.703        0.326        0.260       31.729       17.057        0.289      343.605       19.834      861.483
06/21/2013  12:06:00       30.469     -124.845        5.170       90.475       88.066       52.671     8185.648     7755.602     2774.263        1.762        0.936      128.509       62.561        0.237      343.229       19.192      861.468
06/21/2013  12:07:00       13.620      -62.871       36.225       69.989       70.541       48.476     4898.488     4976.004     2349.950        0.884        0.611       64.329       54.171        0.709      343.685       19.973      861.448
06/21/2013  12:08:00       55.728     -100.752       12.337       60.233       75.776       44.249     3628.018     5742.074     1958.005        1.237        0.566      115.137       53.174        0.213      343.438       19.550      861.442
06/21/2013  12:09:00       26.149      -77.619        0.802       55.911       63.460       36.360     3125.994     4027.189     1322.036        0.759        0.424       81.905       34.129        0.174      343.595       19.818      861.422
06/21/2013  12:10:00      -30.534       -5.340       26.950       58.241       34.618       27.888     3392.062     1198.420      777.761        0.353        0.268       30.998       26.598        0.736      343.967       20.453      861.416
06/21/2013  12:11:00      -90.242        4.080       14.237       74.564       73.400       35.244     5559.770     5387.608     1242.117        1.027        0.609       90.334       34.080        0.142      343.419       19.517      861.400
06/21/2013  12:12:00      -60.822       25.907        4.433       73.092       52.502       31.381     5342.467     2756.446      984.782        0.674        0.454       66.110       33.820        0.262      343.470       19.604      861.386
06/21/2013  12:13:00     -113.367       16.431       -9.199       63.145       48.566       33.596     3987.235     2358.644     1128.688        1.034        0.374      114.551       29.999        0.069      342.799       18.461      861.371
06/21/2013  12:14:00     -176.629       -4.444       -3.116       54.302       55.530       30.894     2948.701     3083.568      954.440        1.911        0.349      176.685       28.329        0.026      342.789       18.446      861.352
06/21/2013  12:15:00     -170.875      -59.064       -7.823       25.941       28.653       18.202      672.910      820.967      331.297        1.729        0.091      180.795        9.884        0.003      342.486       17.930      861.352
06/21/2013  12:16:00     -114.962      -38.675       -4.449       58.423       27.217       22.718     3413.280      740.745      516.111        0.970        0.234      121.293       14.721        0.015      342.851       18.550      861.337
06/21/2013  12:17:00       29.088       68.894       -8.229       55.974       49.222       44.599     3133.109     2422.823     1989.032        0.660        0.377       74.783       15.803        0.045      343.520       19.691      861.331
06/21/2013  12:18:00       40.625       72.209       19.219       51.163       51.827       46.790     2617.665     2686.051     2189.346        0.736        0.375       82.852       32.052        0.150      343.721       20.032      861.314
06/21/2013  12:19:00       97.016       76.989       17.550       37.526       72.154       42.551     1408.210     5206.210     1810.579        1.203        0.421      123.853       33.335        0.072      343.495       19.647      861.286
06/21/2013  12:20:00       -4.403      120.288        7.362       50.207       90.745       48.392     2520.762     8234.738     2341.757        1.382        0.655      120.369       50.462        0.176      344.069       20.627      861.274
06/21/2013  12:21:00       12.914      110.709       -9.692       58.873       61.953       36.776     3466.005     3838.152     1352.508        1.059        0.433      111.460       33.957        0.093      344.070       20.628      861.271
06/21/2013  12:22:00      -26.779      228.974      -15.154       87.730      110.050       58.568     7696.549    12111.075     3430.229        3.830        1.162      230.534       61.380        0.071      343.601       19.825      861.267
06/21/2013  12:23:00       56.626      143.082        2.894       69.938       71.448       45.835     4891.360     5104.874     2100.835        1.789        0.605      153.879       38.753        0.063      343.465       19.596      861.249
06/21/2013  12:24:00       10.757      199.392      -14.979       41.509       65.426       37.747     1722.997     4280.508     1424.830        2.376        0.371      199.682       33.381        0.028      343.350       19.397      861.244
06/21/2013  12:25:00       32.602      107.019       -4.664       56.486       80.615       46.534     3190.709     6498.802     2165.424        1.219        0.593      111.875       48.983        0.192      343.860       20.270      861.238
06/21/2013  12:26:00       71.878      166.792       -4.407       81.284       90.055       53.322     6607.033     8109.960     2843.273        2.528        0.878      181.621       51.220        0.080      343.181       19.108      861.253
06/21/2013  12:27:00      187.232       98.203       23.734       63.786       45.475       44.432     4068.672     2068.013     1974.159        2.669        0.406      211.423       22.582        0.011      343.193       19.130      861.231
06/21/2013  12:28:00      190.555      111.935        2.724       74.618       55.490       58.007     5567.822     3079.182     3364.853        3.043        0.601      220.999       26.510        0.014      343.273       19.267      861.219
06/21/2013  12:29:00       68.266       79.553       21.559       58.544       39.082       43.600     3427.358     1527.397     1900.935        0.915        0.343      104.828       30.082        0.082      343.654       19.918      861.219
06/21/2013  12:30:00       50.517       38.648      -10.325       67.907       53.347       32.158     4611.381     2845.920     1034.166        0.632        0.425       63.605       28.394        0.199      343.365       19.428      861.212
06/21/2013  12:31:00       43.260      164.414       -7.240       53.324       72.929       54.371     2843.471     5318.611     2956.235        2.003        0.556      170.010       47.853        0.079      343.556       19.749      861.203
06/21/2013  12:32:00      101.295       74.445       26.038      113.363       76.406       48.598    12851.135     5837.868     2361.754        1.876        1.053      125.708       32.221        0.066      343.508       19.668      861.198
06/21/2013  12:33:00      212.500      128.719       48.994       62.403       48.353       51.727     3894.116     2338.012     2675.693        3.651        0.445      248.445       24.743        0.010      343.031       18.853      861.173
06/21/2013  12:34:00      163.480      133.550       70.763      135.536       61.702       70.297    18370.059     3807.192     4941.720        3.834        1.356      211.096       60.227        0.081      343.214       19.166      861.158
06/21/2013  12:35:00      152.244       71.416       38.289      119.511       64.490       57.979    14282.801     4158.985     3361.595        2.577        1.090      168.162       61.933        0.136      343.658       19.922      861.165
06/21/2013  12:36:00      162.501      151.332       34.298      114.627       93.914       83.076    13139.255     8819.750     6901.568        3.967        1.443      222.054       54.492        0.060      343.327       19.357      861.175
06/21/2013  12:37:00      169.885      156.699        4.029       81.758       65.009       60.231     6684.452     4226.167     3627.742        3.398        0.727      231.118       39.568        0.029      343.161       19.073      861.170
06/21/2013  12:38:00       85.419       39.028       31.807       76.563       46.568       38.386     5861.935     2168.558     1473.473        0.967        0.475       93.913       25.102        0.071      343.332       19.368      861.173
06/21/2013  12:39:00       -4.087      113.137        3.364       72.258       87.169       39.024     5221.247     7598.444     1522.840        1.358        0.717      113.210       51.302        0.205      343.562       19.760      861.178
06/21/2013  12:40:00       -5.704      131.833        2.157       36.369       80.508       41.745     1322.739     6481.464     1742.640        1.348        0.477      131.956       44.412        0.113      343.662       19.931      861.190
06/21/2013  12:41:00      -32.678      189.847      -36.787       37.825      119.867       28.152     1430.709    14368.038      792.561        2.752        0.830      192.639       22.211        0.013      342.972       18.753      861.191
06/21/2013  12:42:00      -51.214      -36.799      -43.760       31.184       50.965       24.921      972.459     2597.454      621.064        0.504        0.210       63.064       16.416        0.068      343.096       18.967      861.182
06/21/2013  12:43:00       -8.051       12.929        3.329       21.516       24.471       20.864      462.934      598.846      435.325        0.087        0.075       15.231       13.635        0.801      343.663       19.934      861.161
06/21/2013  12:44:00       31.472       50.636       18.822       33.497       52.925       34.012     1122.070     2801.028     1156.816        0.449        0.254       59.620       25.264        0.180      343.720       20.030      861.141
06/21/2013  12:45:00      132.772       86.267       15.493      113.217       62.668       49.630    12818.148     3927.264     2463.177        2.226        0.960      158.336       24.550        0.024      343.522       19.692      861.149
06/21/2013  12:46:00       33.308       80.845        8.750       46.694       39.694       38.355     2180.289     1575.619     1471.085        0.647        0.261       87.438       26.419        0.091      343.488       19.635      861.139
06/21/2013  12:47:00      -25.472      111.648      -21.001       42.386       50.389       39.035     1796.532     2539.079     1523.730        0.971        0.293      114.517       34.168        0.089      343.701       19.999      861.123
06/21/2013  12:48:00      -19.873       67.880        7.099       33.829       63.056       34.836     1144.426     3976.118     1213.520        0.569        0.317       70.730       37.584        0.282      344.435       21.253      861.136
06/21/2013  12:49:00       28.438       33.020       10.817       46.132       30.345       26.926     2128.136      920.811      724.990        0.289        0.189       43.578       16.784        0.148      344.051       20.595      861.128
06/21/2013  12:50:00      -22.038      184.941       13.425       77.427       91.374       52.953     5994.875     8349.261     2804.042        2.601        0.857      186.249       42.650        0.052      343.720       20.029      861.109
06/21/2013  12:51:00      -11.793      130.718        8.788       40.951       64.037       44.255     1676.987     4100.705     1958.472        1.252        0.387      131.249       40.809        0.097      343.933       20.395      861.110
06/21/2013  12:52:00      -49.012      221.413      -15.420       37.153       59.339       33.862     1380.350     3521.144     1146.642        2.885        0.302      226.772       28.081        0.015      343.436       19.544      861.096
06/21/2013  12:53:00       37.859       79.041        2.064       47.122       41.721       32.487     2220.453     1740.678     1055.425        0.635        0.251       87.640       21.322        0.059      343.855       20.260      861.083
06/21/2013  12:54:00       17.759       99.008        5.937       30.834       50.662       35.232      950.707     2566.589     1241.287        0.745        0.238      100.588       31.675        0.099      343.967       20.452      861.082
06/21/2013  12:55:00       19.189       49.523       -6.345       41.541       35.645       36.654     1725.637     1270.560     1343.536        0.360        0.217       53.111       22.439        0.178      343.958       20.437      861.081
06/21/2013  12:56:00       69.688       42.405       30.924       48.615       32.713       35.496     2363.378     1070.168     1259.962        0.615        0.235       81.576       28.315        0.120      343.960       20.441      861.070
06/21/2013  12:57:00       84.499       75.810       29.466       84.079       61.973       56.217     7069.349     3840.714     3160.370        1.391        0.704      113.522       46.240        0.166      344.196       20.843      861.069
06/21/2013  12:58:00      130.108       87.093       21.530       86.718       57.555       48.230     7520.026     3312.625     2326.097        1.907        0.658      156.567       42.241        0.073      343.913       20.358      861.075
06/21/2013  12:59:00      160.508      105.213       22.297      116.221       79.679       50.487    13507.361     6348.714     2548.904        2.986        1.120      191.918       44.262        0.053      344.038       20.573      861.070
06/21/2013  13:00:00      186.555      130.332       23.327      134.980       84.989       63.387    18219.578     7223.180     4017.907        4.089        1.473      227.572       38.265        0.028      343.896       20.329      861.057
06/21/2013  13:01:00      258.896      144.325       66.037      110.830      103.519       72.942    12283.230    10716.258     5320.544        6.026        1.416      296.406       50.545        0.029      343.757       20.090      861.048
06/21/2013  13:02:00      129.384       83.411       42.362       91.552       75.553       85.187     8381.760     5708.307     7256.810        2.342        1.067      153.940       55.561        0.130      343.437       19.546      861.056
06/21/2013  13:03:00      108.178       80.814       61.570       92.891       73.665       60.209     8628.790     5426.481     3625.150        1.985        0.884      135.031       42.600        0.100      344.050       20.592      861.049
06/21/2013  13:04:00       46.229      -53.005       36.336       63.764       83.608       67.086     4065.908     6990.216     4500.510        1.091        0.778       70.333       60.900        0.750      344.099       20.678      861.038
06/21/2013  13:05:00       31.264       53.410       74.168       65.273       60.850       64.186     4260.588     3702.666     4119.887        1.070        0.604       61.888       21.853        0.125      344.623       21.574      861.035
06/21/2013  13:06:00       86.817      114.869      102.539       71.879       63.719       47.166     5166.653     4060.159     2224.642        2.135        0.573      143.987       32.620        0.051      343.483       19.624      861.027
06/21/2013  13:07:00      182.040      118.915       67.519       86.573       60.506       61.426     7494.873     3661.008     3773.141        3.338        0.746      217.439       38.261        0.031      343.833       20.222      861.015
06/21/2013  13:08:00       90.410       86.321       95.511       96.351      120.517       79.378     9283.484    14524.356     6300.929        2.742        1.505      125.001       80.429        0.414      343.956       20.431      861.015
06/21/2013  13:09:00      113.106     -106.914       25.311       76.963       89.324       56.688     5923.228     7978.702     3213.581        2.099        0.856      155.640       54.196        0.121      343.490       19.636      861.021
06/21/2013  13:10:00      -23.276      -53.436       -3.430       84.021       32.126       42.660     7059.531     1032.065     1819.866        0.666        0.496       58.286       47.479        0.664      343.361       19.419      861.006
06/21/2013  13:11:00      -80.323      -13.076        5.017       56.268       48.725       40.915     3166.077     2374.082     1674.024        0.693        0.361       81.380       38.600        0.225      343.610       19.844      860.948
06/21/2013  13:12:00       35.506       42.580       20.059       24.646       39.928       36.460      607.429     1594.256     1329.365        0.350        0.177       55.441       29.999        0.293      343.929       20.388      860.935
06/21/2013  13:13:00       32.383       -4.691       38.400       65.772       91.498       44.600     4325.912     8371.900     1989.127        0.861        0.734       32.721       35.589        1.183      343.953       20.429      860.920
06/21/2013  13:14:00       72.164      -27.782       -0.329       82.742       88.051       43.833     6846.248     7752.944     1921.346        1.125        0.826       77.327       42.233        0.298      343.775       20.125      860.908
06/21/2013  13:15:00      187.340      -60.998       73.493      154.973      178.987      100.065    24016.664    32036.503    10012.910        5.513        3.303      197.020      121.096        0.378      344.072       20.629      860.854
06/21/2013  13:16:00      112.189      -99.285       66.599      101.618      144.497      103.877    10326.205    20879.492    10790.454        3.443        2.100      149.813       99.750        0.443      344.230       20.898      860.879
06/21/2013  13:17:00       76.924       79.155      137.745       87.719      116.547       75.134     7694.676    13583.283     5645.064        2.903        1.346      110.376       77.735        0.496      344.054       20.599      860.932
06/21/2013  13:18:00      116.604     -176.594       -8.457       62.582       86.555       35.820     3916.474     7491.849     1283.074        2.877        0.635      211.617       45.345        0.046      343.431       19.534      860.943
06/21/2013  13:19:00       15.882      -46.043       30.824       31.316       80.579       34.512      980.701     6492.972     1191.071        0.599        0.433       48.705       27.588        0.321      344.001       20.511      860.933
06/21/2013  13:20:00       45.695      -48.601       37.294       58.679       68.844       51.036     3443.209     4739.530     2604.719        0.831        0.539       66.709       39.856        0.357      343.965       20.450      860.945
06/21/2013  13:21:00       96.209     -163.031      -37.960       68.089       58.019       37.817     4636.133     3366.180     1430.149        2.335        0.472      189.302       28.986        0.023      343.669       19.940      860.929
06/21/2013  13:22:00       68.932     -136.222      -18.070       43.544       65.716       43.776     1896.122     4318.580     1916.302        1.588        0.407      152.670       22.476        0.022      343.620       19.858      860.926
06/21/2013  13:23:00      -90.752      -37.854        6.924       74.755       63.206       43.247     5588.367     3994.967     1870.317        1.058        0.573       98.330       43.063        0.192      344.069       20.625      860.902
06/21/2013  13:24:00      -36.414      -73.731       -1.721       75.617       56.263       41.534     5717.878     3165.493     1725.108        0.868        0.530       82.233       33.449        0.165      344.300       21.021      860.904
06/21/2013  13:25:00      -43.335      -42.306       17.208       86.184       43.181       36.426     7427.700     1864.606     1326.863        0.729        0.531       60.562       39.969        0.436      344.561       21.467      860.892
06/21/2013  13:26:00       92.306       89.398       22.962       69.585       63.621       42.342     4842.086     4047.574     1792.839        1.386        0.534      128.500       41.117        0.102      344.679       21.668      860.893
06/21/2013  13:27:00      135.531       50.894       26.342       91.876       61.706       50.535     8441.208     3807.683     2553.746        1.822        0.740      144.772       21.483        0.022      344.433       21.246      860.882
06/21/2013  13:28:00      178.067      145.306       13.057       79.386       64.309       62.545     6302.190     4135.698     3911.906        3.367        0.717      229.830       39.018        0.029      344.017       20.534      860.887
06/21/2013  13:29:00       31.035       70.378        1.887       37.390       50.833       36.656     1398.011     2584.017     1343.683        0.562        0.266       76.917       34.513        0.201      344.004       20.515      860.899
06/21/2013  13:30:00      153.119       96.753       21.571       68.002       59.155       42.493     4624.208     3499.319     1805.693        2.160        0.496      181.126       28.907        0.025      343.709       20.009      860.887
06/21/2013  13:31:00      147.802       94.462       32.045       71.736       68.020       64.127     5146.114     4626.787     4112.222        2.284        0.694      175.410       33.764        0.037      343.685       19.968      860.869
06/21/2013  13:32:00       54.301       14.370       42.964       75.775      104.427       50.116     5741.894    10904.910     2511.654        1.208        0.958       56.170       35.979        0.410      344.200       20.849      860.858
06/21/2013  13:33:00       74.124      -85.684       10.686       64.716       67.637       38.828     4188.127     4574.763     1507.635        1.161        0.514      113.297       43.730        0.149      343.861       20.271      860.864
06/21/2013  13:34:00       48.411      -44.600       22.923       58.081       92.932       61.231     3373.397     8636.352     3749.255        1.031        0.788       65.824       68.510        1.083      344.213       20.871      860.850
06/21/2013  13:35:00       88.733       19.343        9.052       61.034       55.323       50.638     3725.124     3060.664     2564.157        0.884        0.467       90.816       26.942        0.088      343.556       19.751      860.860
06/21/2013  13:36:00      -37.238      -98.743       -9.057       35.085       41.508       26.346     1230.975     1722.888      694.088        0.743        0.182      105.532       15.312        0.021      343.678       19.961      860.843
06/21/2013  13:37:00      -33.754     -144.543      -14.903       89.508       99.133       39.341     8011.741     9827.399     1547.733        2.082        0.969      148.432       22.392        0.023      343.831       20.218      860.802
06/21/2013  13:38:00        6.002      -37.394       64.251       66.526      117.553       64.318     4425.766    13818.791     4136.787        1.397        1.119       37.873       56.460        2.222      344.389       21.174      860.781
06/21/2013  13:39:00       73.836     -120.184      -15.634       64.174       52.883       39.593     4118.267     2796.577     1567.594        1.431        0.424      141.053       30.661        0.047      344.046       20.586      860.774
06/21/2013  13:40:00      -14.141       -2.085       16.329       49.205       29.643       28.301     2421.165      878.691      800.924        0.229        0.205       14.294       23.844        2.783      344.895       22.039      860.761
06/21/2013  13:41:00      -28.797       79.677       13.169       63.901       91.004       49.905     4083.307     8281.731     2490.502        1.110        0.743       84.721       43.501        0.264      344.810       21.894      860.754
06/21/2013  13:42:00      -12.168      199.840      -12.851       61.124       74.726       52.821     3736.192     5583.965     2790.024        2.618        0.606      200.210       53.704        0.072      344.123       20.716      860.747
06/21/2013  13:43:00      -70.560      279.826      -35.764       65.117      105.059       45.667     4240.261    11037.323     2085.482        5.096        0.868      288.585       48.632        0.028      343.811       20.183      860.754
06/21/2013  13:44:00     -122.269       50.475      -12.976       61.636       48.191       29.655     3799.020     2322.331      879.437        1.233        0.350      132.278       23.261        0.031      344.095       20.671      860.745
06/21/2013  13:45:00      -77.749       46.693      -10.361       53.154       72.962       35.982     2825.355     5323.465     1294.734        0.889        0.472       90.692       26.706        0.087      344.303       21.027      860.720
06/21/2013  13:46:00       -1.063       92.445      -30.693       32.984       96.645       39.976     1087.932     9340.308     1598.110        1.076        0.601       92.451       35.790        0.150      343.871       20.287      860.706
06/21/2013  13:47:00        3.126        4.865       21.925       30.336       33.719       23.355      920.282     1136.974      545.455        0.156        0.130        5.783       18.006        9.695      344.316       21.048      860.672
06/21/2013  13:48:00       23.171       35.608       26.759       32.738       29.023       29.105     1071.804      842.353      847.085        0.264        0.138       42.483       18.932        0.199      344.744       21.781      860.667
06/21/2013  13:49:00       -5.266      155.243      -21.677       59.287       63.842       34.903     3514.907     4075.759     1218.212        1.670        0.440      155.332       23.791        0.023      344.305       21.030      860.665
06/21/2013  13:50:00     -127.435      168.934      -22.209       91.178       63.803       50.543     8313.368     4070.872     2554.604        3.010        0.747      211.609       48.469        0.052      344.328       21.066      860.643
06/21/2013  13:51:00       -2.407      322.438      -41.391       75.558       70.724       38.945     5709.074     5001.886     1516.740        5.895        0.611      322.447       28.865        0.008      344.346       21.096      860.624
06/21/2013  13:52:00       14.993      290.130      -31.435       64.249      106.222       49.565     4127.907    11283.129     2456.678        5.162        0.893      290.517       54.482        0.035      344.363       21.126      860.618
06/21/2013  13:53:00       79.610      269.708      -32.579       88.009      122.509       67.739     7745.512    15008.377     4588.522        5.374        1.367      281.212       67.664        0.058      344.065       20.614      860.628
06/21/2013  13:54:00        9.556      295.648      -35.600       76.283      116.692       38.419     5819.085    13617.000     1476.054        5.484        1.046      295.802       50.188        0.029      343.959       20.433      860.631
06/21/2013  13:55:00       39.318      151.438      -13.328       42.977       71.514       38.646     1847.005     5114.208     1493.535        1.655        0.423      156.458       28.570        0.033      344.061       20.610      860.634
06/21/2013  13:56:00        6.486      165.043      -11.914       34.286       84.750       44.056     1175.519     7182.623     1940.932        1.886        0.515      165.170       46.745        0.080      344.360       21.124      860.622
06/21/2013  13:57:00       40.666       84.607       -7.682       39.658       54.847       45.402     1572.737     3008.162     2061.304        0.776        0.332       93.873       41.743        0.198      344.393       21.181      860.616
06/21/2013  13:58:00       24.343      -38.614       -4.270       44.376       84.643       43.230     1969.243     7164.375     1868.814        0.655        0.550       45.647       41.095        0.810      344.549       21.447      860.570
06/21/2013  13:59:00      148.587       99.464        3.578       72.960       42.276       41.096     5323.176     1787.271     1688.869        2.039        0.440      178.805       12.041        0.005      344.439       21.256      860.568
06/21/2013  14:00:00       84.480       69.442       44.857       48.191       44.851       56.404     2322.419     2011.639     3181.460        1.074        0.376      109.357       37.540        0.118      344.438       21.256      860.556
06/21/2013  14:01:00      207.332      137.920       17.545      126.090      101.826       64.971    15898.630    10368.633     4221.212        4.640        1.524      249.015       36.296        0.021      344.508       21.374      860.532
06/21/2013  14:02:00      184.118      140.232       17.267      106.158       69.563       68.826    11269.474     4839.023     4737.024        3.735        1.042      231.440       38.041        0.027      344.608       21.544      860.506
06/21/2013  14:03:00      262.533      166.137       19.845      104.855       68.903       64.992    10994.635     4747.568     4224.018        5.844        0.998      310.684       53.420        0.030      344.267       20.962      860.512
06/21/2013  14:04:00      242.045      176.815       22.361       77.169       51.391       48.283     5955.105     2640.995     2331.239        5.064        0.546      299.749       22.029        0.005      344.095       20.668      860.516
06/21/2013  14:05:00      122.070       95.814       60.559       67.424       61.626       68.603     4546.051     3797.741     4706.410        2.040        0.653      155.182       53.573        0.119      344.417       21.219      860.496
06/21/2013  14:06:00      138.167       69.186       49.530       87.352       91.137       69.455     7630.366     8305.994     4823.938        2.354        1.038      154.521       55.058        0.127      344.658       21.631      860.464
06/21/2013  14:07:00      147.732      128.707      111.689      147.484      101.261       91.330    21751.576    10253.725     8341.100        4.560        2.017      195.935       89.766        0.210      344.754       21.794      860.455
06/21/2013  14:08:00       80.456       36.113       28.701       87.270       73.814       51.741     7616.090     5448.463     2677.129        1.217        0.787       88.190       19.670        0.050      345.026       22.261      860.467
06/21/2013  14:09:00       22.582       30.024       70.303       55.299       96.878       59.433     3057.981     9385.440     3532.260        1.116        0.799       37.569       54.110        2.074      345.307       22.743      860.454
06/21/2013  14:10:00       95.146        0.438       83.693      105.300      135.598       90.110    11088.035    18386.922     8119.735        2.682        1.880       95.147      101.701        1.142      344.854       21.967      860.450
06/21/2013  14:11:00       76.567       78.611       82.521       71.409       65.701       54.237     5099.308     4316.641     2941.610        1.560        0.618      109.737       34.797        0.101      344.735       21.764      860.451
06/21/2013  14:12:00       68.829       33.862        3.033       89.839       52.296       46.181     8071.017     2734.894     2132.729        0.941        0.647       76.707       12.435        0.026      345.029       22.269      860.471
06/21/2013  14:13:00      244.982      155.927        6.664      119.038       73.549       69.622    14170.144     5409.501     4847.159        5.440        1.221      290.395       48.001        0.027      344.395       21.180      860.474
06/21/2013  14:14:00      221.818      147.577       27.394       67.402       61.165       65.590     4543.089     3741.163     4302.032        4.216        0.629      266.425       32.708        0.015      344.472       21.312      860.449
06/21/2013  14:15:00      101.276      113.602        0.650       85.357       66.414       60.331     7285.876     4410.793     3639.836        1.925        0.767      152.192       38.800        0.065      344.399       21.190      860.443
06/21/2013  14:16:00       -8.504      123.698       -8.958       77.801       83.632       48.025     6052.968     6994.318     2306.363        1.540        0.768      123.990       47.324        0.146      344.670       21.652      860.441
06/21/2013  14:17:00       32.135      108.612        5.514       84.027       96.383       65.300     7060.476     9289.710     4264.112        1.673        1.031      113.266       50.952        0.202      344.967       22.161      860.421
06/21/2013  14:18:00       46.831      249.548      -28.091       69.115      130.554       61.431     4776.941    17044.273     3773.723        4.542        1.280      253.904       64.921        0.065      344.297       21.013      860.417
06/21/2013  14:19:00       78.134       87.805        6.549       79.318       67.376       59.569     6291.359     4539.568     3548.474        1.412        0.719      117.536       40.342        0.118      344.756       21.800      860.436
06/21/2013  14:20:00       91.997      115.233        8.575       84.844       77.035       58.779     7198.546     5934.326     3454.944        1.920        0.829      147.452       44.395        0.091      345.001       22.218      860.428
06/21/2013  14:21:00      177.921      121.630       14.536       94.331       79.596       52.725     8898.382     6335.602     2779.950        3.233        0.901      215.522       35.415        0.027      344.734       21.762      860.431
06/21/2013  14:22:00       -5.650      321.384      -45.683       74.264      102.945       48.756     5515.129    10597.632     2377.179        6.194        0.924      321.434       48.084        0.022      344.436       21.250      860.420
06/21/2013  14:23:00      -35.479      345.417      -42.593       57.583       61.223       40.638     3315.857     3748.240     1651.422        6.555        0.436      347.234       28.868        0.007      344.436       21.250      860.400
06/21/2013  14:24:00      -26.105      313.851      -30.114       49.375       72.881       31.769     2437.927     5311.607     1009.268        5.442        0.438      314.935       18.567        0.003      344.278       20.979      860.395
06/21/2013  14:25:00      -97.621      248.977      -35.542       50.727       72.268       33.422     2573.230     5222.674     1117.043        4.085        0.446      267.431       29.883        0.012      344.315       21.042      860.373
06/21/2013  14:26:00      -14.724      285.561      -32.683       93.792      155.942       56.441     8796.922    24317.874     3185.642        5.956        1.815      285.941       80.319        0.079      344.576       21.491      860.349
06/21/2013  14:27:00        2.409      328.303      -47.708       49.117       79.220       35.048     2412.490     6275.771     1228.371        5.999        0.496      328.312       38.327        0.014      344.330       21.068      860.329
06/21/2013  14:28:00      -22.881      179.673       -6.927       54.971       89.018       37.513     3021.771     7924.285     1407.246        2.260        0.618      181.124       44.265        0.060      344.746       21.782      860.309
06/21/2013  14:29:00     -122.978      211.027      -25.498       75.115       96.956       54.532     5642.325     9400.448     2973.729        3.916        0.901      244.245       56.439        0.053      344.723       21.741      860.303
06/21/2013  14:30:00     -194.068      279.030      -50.066       80.530       96.203       48.526     6485.111     9254.924     2354.725        6.806        0.905      339.883       51.247        0.023      344.445       21.265      860.300
06/21/2013  14:31:00     -274.642      107.971      -40.300      147.423      112.535       61.887    21733.508    12664.055     3830.058        6.346        1.911      295.103       63.371        0.046      344.734       21.760      860.270
06/21/2013  14:32:00      -64.473       59.993       -6.207      162.051       63.835       46.380    26260.507     4074.850     2151.114        2.013        1.624       88.067       53.598        0.370      344.712       21.725      860.281
06/21/2013  14:33:00      127.139       89.889       44.054       93.903       69.144       48.802     8817.750     4780.897     2381.674        2.108        0.799      155.706       36.077        0.054      344.664       21.641      860.277
06/21/2013  14:34:00      187.458      158.960       74.700      125.654       67.316       60.867    15789.045     4531.396     3704.843        4.500        1.201      245.782       47.900        0.038      344.627       21.577      860.228
06/21/2013  14:35:00      148.000      104.218       15.516       76.080       68.777       56.252     5788.125     4730.290     3164.261        2.334        0.684      181.012       31.038        0.029      344.616       21.559      860.213
06/21/2013  14:36:00       70.238       76.753       82.422       93.794       72.129       58.831     8797.249     5202.650     3461.100        1.754        0.873      104.040       60.682        0.340      345.067       22.332      860.172
06/21/2013  14:37:00       93.604       93.432       48.467       73.754       66.458       72.073     5439.587     4416.625     5194.472        1.744        0.753      132.254       50.706        0.147      345.148       22.471      860.176
06/21/2013  14:38:00      -20.197      -12.552       15.003       37.636      121.214       46.108     1416.443    14692.936     2125.954        0.951        0.912       23.780       46.085        3.756      345.049       22.302      860.164
06/21/2013  14:39:00      -94.510      153.388       -9.087       55.723       70.198       45.886     3105.089     4927.716     2105.538        2.134        0.507      180.166       39.553        0.048      344.907       22.057      860.174
06/21/2013  14:40:00      -92.409       91.585      -34.574       40.763       64.013       27.594     1661.636     4097.638      761.426        1.232        0.326      130.104       13.971        0.012      344.780       21.840      860.161
06/21/2013  14:41:00      -79.565      158.451      -23.753       56.938       72.322       33.506     3241.889     5230.426     1122.636        2.080        0.480      177.306       27.577        0.024      344.781       21.842      860.154
06/21/2013  14:42:00       21.240       62.582       13.827       37.859       41.562       38.841     1433.331     1727.390     1508.629        0.461        0.233       66.088       23.443        0.126      345.078       22.351      860.168
06/21/2013  14:43:00       12.676      120.270       -4.689       35.492       73.730       32.506     1259.681     5436.062     1056.617        1.120        0.388      120.936       36.867        0.093      344.967       22.161      860.169
06/21/2013  14:44:00      -96.349      133.331       -5.901       84.961      113.326       56.448     7218.312    12842.766     3186.338        2.517        1.162      164.500       49.086        0.089      345.174       22.513      860.180
06/21/2013  14:45:00     -120.624      175.681       -7.424       92.967       97.055       52.232     8642.864     9419.618     2728.192        3.313        1.040      213.105       46.296        0.047      345.213       22.580      860.178
06/21/2013  14:46:00     -197.654      -44.585       -3.035      135.161      135.249       50.844    18268.422    18292.321     2585.064        4.010        1.957      202.620       30.324        0.022      345.108       22.401      860.144
06/21/2013  14:47:00     -197.752      170.326      -29.240      118.958       97.830       62.488    14151.063     9570.702     3904.693        4.829        1.381      260.992       68.082        0.068      345.073       22.340      860.154
06/21/2013  14:48:00     -106.244       67.257       -5.666       85.097       55.615       50.822     7241.551     3093.069     2582.924        1.438        0.646      125.743       56.055        0.199      345.280       22.698      860.144
06/21/2013  14:49:00     -157.893      265.893      -33.027       85.464       94.964       64.179     7304.176     9018.229     4118.946        5.858        1.022      309.240       53.874        0.030      345.045       22.293      860.162
06/21/2013  14:50:00     -102.168      229.380      -20.738       40.934       73.388       32.205     1675.570     5385.865     1037.194        3.579        0.405      251.105       34.868        0.019      344.671       21.650      860.184
06/21/2013  14:51:00      -66.920      115.546       -5.270       38.953       45.185       36.316     1517.327     2041.690     1318.825        1.137        0.244      133.526       22.054        0.027      345.014       22.244      860.142
06/21/2013  14:52:00     -151.648      -30.257       -3.420       62.165       64.304       40.602     3864.525     4134.956     1648.504        1.678        0.482      154.637       36.359        0.055      345.042       22.289      860.131
06/21/2013  14:53:00       19.633      134.636        1.424       39.921       43.627       39.951     1593.710     1903.324     1596.082        1.180        0.255      136.060       34.598        0.065      345.068       22.335      860.124
06/21/2013  14:54:00       43.459      147.537      -16.614       44.613       82.045       40.840     1990.284     6731.407     1667.909        1.716        0.519      153.804       39.894        0.067      344.855       21.968      860.102
06/21/2013  14:55:00       81.032       59.341        6.452       59.041       58.074       38.694     3485.841     3372.553     1497.264        0.924        0.418      100.436       32.068        0.102      344.726       21.749      860.092
06/21/2013  14:56:00       89.948      -32.394       41.883       50.276       39.789       45.136     2527.708     1583.160     2037.238        0.852        0.307       95.603       35.595        0.139      344.909       22.063      860.079
06/21/2013  14:57:00      144.267      -68.002       29.240       49.146       43.348       41.508     2415.374     1879.055     1722.913        1.615        0.301      159.491       29.651        0.035      344.643       21.608      860.057
06/21/2013  14:58:00       60.218      -75.731        0.095       51.939       62.952       53.863     2697.687     3962.916     2901.193        0.946        0.478       96.755       48.402        0.250      345.111       22.407      860.016
06/21/2013  14:59:00       13.443      -23.586       38.148       48.504       70.444       46.040     2352.615     4962.296     2119.678        0.581        0.472       27.148       29.210        1.158      345.394       22.893      859.985
06/21/2013  15:00:00       60.140       53.152       71.519       71.338       39.180       36.656     5089.093     1535.097     1343.646        0.976        0.398       80.262       33.737        0.177      345.453       22.994      859.996
06/21/2013  15:01:00      109.628       73.942       14.554       60.261       40.271       32.675     3631.393     1621.735     1067.669        1.201        0.316      132.233       28.901        0.048      345.512       23.093      859.996
06/21/2013  15:02:00      195.145      133.477       28.246      105.891       86.257       70.607    11212.956     7440.209     4985.378        4.016        1.182      236.427       38.054        0.026      345.122       22.425      859.984
06/21/2013  15:03:00       97.467      179.109      -24.281       68.489       84.686       73.560     4690.811     7171.760     5411.023        2.972        0.864      203.911       61.581        0.091      344.854       21.967      859.998
06/21/2013  15:04:00       77.316      179.046       -7.533       76.801       90.540       61.841     5898.402     8197.546     3824.332        2.800        0.896      195.026       55.307        0.080      344.915       22.072      859.983
06/21/2013  15:05:00       33.143       80.318       14.794       72.098       89.815       50.877     5198.153     8066.706     2588.454        1.181        0.793       86.887       45.632        0.276      345.147       22.469      859.980
06/21/2013  15:06:00       77.725      135.608      -21.167       68.497      111.045       54.468     4691.854    12330.920     2966.808        2.243        0.999      156.303       50.806        0.106      345.148       22.468      859.958
06/21/2013  15:07:00     -120.574      135.275       -8.948       79.655      108.804       49.115     6344.930    11838.267     2412.268        2.675        1.030      181.211       48.823        0.073      345.032       22.270      859.956
06/21/2013  15:08:00     -143.274      140.573      -32.694       50.319       64.270       37.347     2532.052     4130.680     1394.766        2.471        0.403      200.719       28.730        0.020      345.112       22.408      859.934
06/21/2013  15:09:00     -174.759      177.077      -28.809       89.221       77.867       50.986     7960.314     6063.344     2599.622        3.967        0.831      248.791       55.974        0.051      345.124       22.428      859.921
06/21/2013  15:10:00     -251.872       45.287      -40.435       78.434       60.146       38.508     6151.910     3617.577     1482.870        3.919        0.563      255.911       38.731        0.023      345.179       22.521      859.907
06/21/2013  15:11:00     -130.810      -46.438      -21.612       97.004       37.416       42.040     9409.846     1399.922     1767.368        1.615        0.629      138.808       38.902        0.079      344.902       22.049      859.903
06/21/2013  15:12:00      -50.583      -79.176        1.697       88.490       43.154       31.524     7830.444     1862.271      993.789        0.976        0.534       93.955       34.254        0.133      345.277       22.692      859.879
06/21/2013  15:13:00      -76.543      -79.127       11.959      102.082       71.594       45.083    10420.746     5125.732     2032.496        1.492        0.879      110.090       38.228        0.121      345.445       22.979      859.857
06/21/2013  15:14:00     -205.415      -71.126        3.068       63.638       61.446       34.635     4049.743     3775.638     1199.598        2.814        0.451      217.380       26.203        0.015      345.046       22.294      859.851
06/21/2013  15:15:00     -135.871      -45.629       -5.108       58.817       54.496       30.941     3459.427     2969.807      957.349        1.398        0.369      143.328       20.271        0.020      345.167       22.504      859.843
06/21/2013  15:16:00     -100.034      -27.975        1.856       50.160       47.892       25.893     2516.076     2293.686      670.424        0.814        0.274      103.872       23.495        0.051      345.413       22.926      859.843
06/21/2013  15:17:00       -3.928       22.482       31.803       65.193       37.297       27.793     4250.115     1391.078      772.433        0.397        0.321       22.823       10.344        0.205      345.591       23.230      859.835
06/21/2013  15:18:00      131.510       58.050       42.024       61.816       61.844       42.792     3821.269     3824.707     1831.142        1.595        0.474      143.752       18.376        0.016      345.298       22.728      859.822
06/21/2013  15:19:00       76.762      108.640       23.201       54.129       59.082       54.336     2929.972     3490.719     2952.386        1.380        0.469      133.023       40.431        0.092      345.627       23.293      859.803
06/21/2013  15:20:00       -2.372       35.754       12.228       42.702       64.796       32.246     1823.446     4198.565     1039.820        0.425        0.353       35.832       31.737        0.784      345.407       22.916      859.823
06/21/2013  15:21:00      -44.456      172.591      -25.639       41.301       59.373       25.626     1705.775     3525.175      656.696        1.915        0.294      178.225       16.130        0.008      345.180       22.526      859.817
06/21/2013  15:22:00       72.785      158.011      -15.311       62.681       80.789       59.915     3928.932     6526.851     3589.785        2.227        0.702      173.968       48.515        0.078      345.362       22.837      859.813
06/21/2013  15:23:00      -13.852      181.688      -12.429       67.964      110.793       51.201     4619.148    12275.067     2621.550        2.643        0.976      182.215       59.061        0.105      345.271       22.681      859.809
06/21/2013  15:24:00       40.370      113.225        1.789       75.453       63.231       56.076     5693.153     3998.184     3144.463        1.364        0.642      120.207       38.628        0.103      345.399       22.901      859.793
06/21/2013  15:25:00      -74.329      334.086      -38.069       70.770      122.153       43.742     5008.370    14921.249     1913.388        7.021        1.092      342.255       43.425        0.016      345.341       22.798      859.811
06/21/2013  15:26:00       14.175      235.384      -32.137       98.102      121.561       54.937     9624.042    14777.193     3018.124        4.202        1.371      235.811       50.328        0.046      345.617       23.272      859.811
06/21/2013  15:27:00       61.332      290.402      -32.180       73.855      153.974       66.746     5454.541    23707.933     4454.965        6.137        1.681      296.808       81.704        0.076      345.086       22.363      859.817
06/21/2013  15:28:00        5.757      147.060       -9.731      100.554       73.961       48.848    10111.132     5470.158     2386.078        1.986        0.898      147.173       46.752        0.101      345.260       22.662      859.785
06/21/2013  15:29:00       41.266      150.242       18.396       91.417      114.360       79.035     8357.118    13078.110     6246.484        2.614        1.384      155.806       74.552        0.229      345.493       23.061      859.782
06/21/2013  15:30:00       79.751      237.377      -12.927       77.278      146.786       83.160     5971.882    21546.267     6915.607        4.865        1.722      250.416       89.190        0.127      345.156       22.482      859.781
06/21/2013  15:31:00      -12.988      114.550       19.713       51.170      123.293       46.704     2618.389    15201.236     2181.290        1.684        1.000      115.284       55.104        0.228      345.334       22.789      859.790
06/21/2013  15:32:00      -61.392      127.003      -15.784       35.171       51.882       31.211     1237.027     2691.773      974.143        1.252        0.245      141.063       19.964        0.020      345.166       22.503      859.774
06/21/2013  15:33:00      -20.330       61.666       -1.095       29.203       33.066       25.276      852.832     1093.338      638.889        0.340        0.129       64.931       22.594        0.121      345.347       22.812      859.761
06/21/2013  15:34:00      -11.072      -28.016        4.956       58.996      101.689       35.007     3480.539    10340.622     1225.496        0.799        0.752       30.124       12.884        0.183      345.661       23.351      859.739
06/21/2013  15:35:00       63.773      -11.909       43.604       58.593       80.370       49.531     3433.182     6459.392     2453.343        0.923        0.617       64.875       50.150        0.598      345.620       23.282      859.712
06/21/2013  15:36:00       36.367       33.231       41.796       56.203       72.278       40.201     3158.797     5224.071     1616.140        0.708        0.500       49.263       19.782        0.161      345.727       23.463      859.697
06/21/2013  15:37:00      -13.466      280.998      -41.479       94.356      122.411       56.474     8903.094    14984.495     3189.262        5.396        1.354      281.320       62.774        0.050      345.346       22.808      859.712
06/21/2013  15:38:00        2.968       92.488        1.031       90.990       91.243       48.727     8279.101     8325.223     2374.297        1.377        0.949       92.536       50.199        0.294      345.381       22.872      859.724
06/21/2013  15:39:00       17.451       78.588       -0.658       76.303       72.170       47.332     5822.100     5208.484     2240.292        0.987        0.664       80.502       31.630        0.154      345.287       22.710      859.716
06/21/2013  15:40:00       69.957       56.056        2.242       61.905       41.228       31.093     3832.216     1699.709      966.778        0.727        0.325       89.646       24.776        0.076      345.258       22.660      859.699
06/21/2013  15:41:00      152.116       83.041       10.310       79.941       53.116       49.701     6390.508     2821.294     2470.200        2.091        0.584      173.306       41.715        0.058      345.329       22.779      859.682
06/21/2013  15:42:00       79.863       62.473       29.374       69.336       53.726       56.257     4807.518     2886.468     3164.895        1.100        0.543      101.395       21.749        0.046      345.252       22.650      859.672
06/21/2013  15:43:00      -40.341      178.090      -22.197       48.169       62.563       35.685     2320.272     3914.122     1273.401        2.067        0.375      182.602       38.642        0.045      345.247       22.640      859.677
06/21/2013  15:44:00       12.963      187.449      -19.238       40.309       49.371       33.570     1624.805     2437.519     1126.923        2.043        0.259      187.897       29.715        0.025      345.100       22.387      859.662
06/21/2013  15:45:00       11.670      129.319      -22.818       33.642       44.155       26.448     1131.791     1949.695      699.490        1.058        0.189      129.844       27.814        0.046      345.065       22.329      859.661
06/21/2013  15:46:00      -27.620       40.735       -4.018       50.591       33.040       33.928     2559.481     1091.619     1151.104        0.362        0.240       49.216       33.645        0.467      345.347       22.812      859.660
06/21/2013  15:47:00      -42.714      -30.724       21.915       57.451       43.815       33.063     3300.646     1919.742     1093.184        0.478        0.316       52.615       31.474        0.358      345.537       23.137      859.651
06/21/2013  15:48:00        1.382        4.486       15.767       37.755       42.908       21.700     1425.472     1841.136      470.880        0.200        0.187        4.694       16.296       12.052      345.508       23.088      859.650
06/21/2013  15:49:00       -5.191      -24.249       12.263       32.168       22.616       18.365     1034.798      511.487      337.258        0.132        0.094       24.799       13.003        0.275      345.509       23.090      859.634
06/21/2013  15:50:00      -11.090       79.428      -13.762       27.747       61.927       20.234      769.875     3834.941      409.421        0.582        0.251       80.199       20.165        0.063      345.406       22.913      859.625
06/21/2013  15:51:00      -19.477      111.935       -9.835       47.464       36.113       27.112     2252.838     1304.172      735.053        0.865        0.215      113.617       18.615        0.027      345.434       22.962      859.620
06/21/2013  15:52:00       27.929       66.305        2.394       41.216       64.605       30.314     1698.778     4173.797      918.953        0.599        0.340       71.947       26.568        0.136      345.441       22.972      859.612
06/21/2013  15:53:00       76.279       55.257       42.365       71.647       61.443       46.928     5133.231     3775.289     2202.223        1.089        0.556       94.190       37.019        0.154      345.356       22.827      859.596
06/21/2013  15:54:00       20.353       33.917       21.735       60.686       35.302       43.234     3682.745     1246.248     1869.208        0.442        0.340       39.555       37.889        0.918      345.569       23.193      859.578
06/21/2013  15:55:00      103.263       27.488       57.907       81.113       55.524       54.554     6579.307     3082.935     2976.141        1.370        0.632      106.859       43.381        0.165      345.583       23.217      859.570
06/21/2013  15:56:00       33.652       34.529       52.832       89.118       82.563       59.091     7942.042     6816.568     3491.760        1.168        0.913       48.215       46.612        0.935      345.661       23.348      859.549
06/21/2013  15:57:00       55.928       90.379       94.111       79.627       54.601       49.887     6340.457     2981.257     2488.682        1.598        0.591      106.284       33.867        0.102      345.904       23.768      859.546
06/21/2013  15:58:00      120.416       86.837       75.347       91.456       61.240       67.568     8364.160     3750.315     4565.386        2.220        0.834      148.461       61.780        0.173      345.566       23.186      859.540
06/21/2013  15:59:00      182.933      106.298       15.072       71.513       58.092       49.561     5114.068     3374.662     2456.296        2.797        0.547      211.574       44.745        0.045      345.204       22.562      859.521
06/21/2013  16:00:00       58.379       49.386       72.522       64.434       72.512       59.703     4151.756     5258.025     3564.454        1.204        0.649       76.466       61.667        0.650      345.418       22.935      859.500
06/21/2013  16:01:00       89.367      109.981      130.097       96.300       93.184       75.276     9273.784     8683.229     5666.524        3.031        1.181      141.712       66.036        0.217      345.563       23.180      859.467
06/21/2013  16:02:00      212.344      107.970       38.887      104.926       78.301       74.356    11009.422     6130.998     5528.823        4.046        1.133      238.218       51.049        0.046      345.368       22.845      859.488
06/21/2013  16:03:00       70.914       44.738       22.984       57.535       50.114       35.400     3310.315     2511.423     1253.178        0.732        0.354       83.847       28.009        0.112      345.491       23.059      859.499
06/21/2013  16:04:00       39.074      182.480      -25.297       55.287      105.037       36.558     3056.682    11032.721     1336.518        2.544        0.771      186.616       43.085        0.053      345.191       22.544      859.482
06/21/2013  16:05:00       59.815      271.887      -41.872       52.596       72.691       41.869     2766.370     5284.018     1753.053        4.453        0.490      278.389       33.836        0.015      345.133       22.442      859.469
06/21/2013  16:06:00       -8.240      218.479      -32.493       47.314       41.977       23.035     2238.620     1762.107      530.595        2.669        0.227      218.634       19.412        0.008      345.077       22.347      859.466
06/21/2013  16:07:00       -1.447      138.273      -12.150       31.390       37.321       29.887      985.318     1392.827      893.208        1.127        0.164      138.281       18.641        0.018      345.231       22.615      859.458
06/21/2013  16:08:00        8.329       62.633        2.450       27.749       45.097       32.801      770.027     2033.749     1075.883        0.394        0.194       63.185       30.856        0.238      345.302       22.737      859.447
06/21/2013  16:09:00       -0.382        5.900       13.625       26.954       36.385       19.167      726.537     1323.837      367.378        0.132        0.121        5.912       14.025        5.628      345.588       23.225      859.436
06/21/2013  16:10:00       26.428      113.234      -13.038       39.059       41.824       22.843     1525.589     1749.245      521.811        0.874        0.190      116.277        7.552        0.004      345.232       22.615      859.418
06/21/2013  16:11:00       35.474       60.566        3.140       32.643       37.509       28.601     1065.597     1406.930      818.007        0.411        0.165       70.190       16.702        0.057      345.266       22.673      859.418
06/21/2013  16:12:00       10.630       54.704      -20.367       33.907       28.925       23.566     1149.688      836.677      555.374        0.303        0.127       55.727       15.600        0.078      345.213       22.583      859.408
06/21/2013  16:13:00      -37.149       48.682      -16.049       26.580       22.688       16.184      706.492      514.736      261.921        0.275        0.074       61.237       13.326        0.047      345.289       22.713      859.388
06/21/2013  16:14:00      -33.364       76.176      -17.162       29.437       23.838       22.095      866.564      568.257      488.180        0.457        0.096       83.162        8.685        0.011      345.327       22.778      859.375
06/21/2013  16:15:00      -18.435       33.572      -18.682       35.056       31.926       26.824     1228.918     1019.273      719.522        0.239        0.148       38.300       16.979        0.197      345.415       22.929      859.378
06/21/2013  16:16:00     -107.456      118.265      -35.195      106.132       95.971       33.878    11264.088     9210.397     1147.724        2.419        1.081      159.792       19.831        0.015      345.351       22.816      859.362
06/21/2013  16:17:00        4.997      112.832      -14.198       34.524       34.356       27.851     1191.899     1180.320      775.691        0.805        0.157      112.943       16.715        0.022      345.369       22.848      859.372
06/21/2013  16:18:00      -49.857       41.584      -15.814       55.794       72.651       36.414     3112.978     5278.219     1325.965        0.709        0.486       64.922       41.872        0.416      345.458       23.002      859.352
06/21/2013  16:19:00       70.812       13.195       37.782       69.811       58.327       39.316     4873.610     3402.061     1545.769        0.822        0.491       72.031       27.739        0.148      345.693       23.405      859.345
06/21/2013  16:20:00      107.858       96.050       12.099       85.294       53.664       40.115     7275.050     2879.837     1609.248        1.638        0.588      144.426       42.373        0.086      345.328       22.778      859.341
06/21/2013  16:21:00       51.828       66.340       -9.302       40.757       26.788       23.869     1661.094      717.583      569.740        0.506        0.147       84.185       24.595        0.085      345.297       22.726      859.325
06/21/2013  16:22:00       62.725       58.080       74.344       59.111       54.222       59.753     3494.063     2940.066     3570.417        1.142        0.500       85.485       46.707        0.299      345.508       23.089      859.331
06/21/2013  16:23:00      137.152      121.480      126.452      101.117       84.745       76.719    10224.566     7181.675     5885.785        3.642        1.165      183.215       64.050        0.122      345.385       22.874      859.319
06/21/2013  16:24:00       89.236      120.275       90.705       76.090       67.704       59.120     5789.694     4583.800     3495.212        2.226        0.693      149.764       53.880        0.129      345.471       23.023      859.325
06/21/2013  16:25:00      113.417       78.105       74.926       92.274       67.807       67.430     8514.417     4597.786     4546.791        2.111        0.883      137.709       57.689        0.175      345.503       23.077      859.331
06/21/2013  16:26:00       72.611       77.764       80.649       70.808       56.499       45.149     5013.783     3192.148     2038.474        1.403        0.512      106.394       45.026        0.179      345.518       23.106      859.318
06/21/2013  16:27:00       33.878      -12.835       64.310       43.571       94.208       53.574     1898.420     8875.090     2870.184        0.954        0.682       36.228       65.942        3.313      345.561       23.179      859.303
06/21/2013  16:28:00       37.849      -68.666       22.253       45.882       60.493       45.284     2105.164     3659.350     2050.601        0.723        0.391       78.407       28.282        0.130      345.749       23.503      859.292
06/21/2013  16:29:00       47.072      -12.216       51.028       67.850      104.562       53.820     4603.663    10933.123     2896.613        1.170        0.922       48.631       66.986        1.897      345.677       23.377      859.292
06/21/2013  16:30:00       60.108      -71.749        7.866       41.950       50.650       28.297     1759.804     2565.441      800.743        0.697        0.256       93.599       26.580        0.081      345.556       23.171      859.288
06/21/2013  16:31:00       61.406     -126.096       -3.450       40.337       37.822       35.002     1627.058     1430.488     1225.153        1.198        0.214      140.253       32.680        0.054      345.443       22.975      859.256
06/21/2013  16:32:00       22.954     -140.456      -31.707       62.172       50.188       42.787     3865.318     2518.876     1830.740        1.474        0.411      142.320       31.121        0.048      345.646       23.327      859.224
06/21/2013  16:33:00        0.113     -121.169       -0.222       68.924       62.564       46.626     4750.542     3914.233     2174.016        1.276        0.542      121.169       43.542        0.129      345.795       23.580      859.210
06/21/2013  16:34:00       34.603     -114.192       -3.317       67.268       43.462       35.861     4524.996     1888.954     1286.006        1.097        0.385      119.319       14.755        0.015      345.731       23.472      859.194
06/21/2013  16:35:00       60.040      -73.123       19.139       73.995       85.254       42.087     5475.323     7268.322     1771.279        1.191        0.726       94.613       43.563        0.212      345.834       23.646      859.190
06/21/2013  16:36:00       18.736      -38.533       18.111       72.861       60.578       36.813     5308.721     3669.651     1355.206        0.625        0.517       42.847       30.358        0.502      345.931       23.814      859.178
06/21/2013  16:37:00      -99.369      -76.951        9.191       64.199       62.652       37.462     4121.534     3925.333     1403.420        1.266        0.473      125.681       37.182        0.088      345.888       23.739      859.175
06/21/2013  16:38:00      -53.737      -39.755       18.252       74.025       42.011       39.860     5479.734     1764.948     1588.796        0.682        0.442       66.844       27.090        0.164      345.881       23.729      859.178
06/21/2013  16:39:00      -41.211      -57.152        1.044       62.203       45.227       32.612     3869.154     2045.471     1063.538        0.597        0.349       70.460       24.996        0.126      345.882       23.731      859.198
06/21/2013  16:40:00      -60.960      -50.836        0.030       41.836       40.956       26.386     1750.280     1677.392      696.217        0.521        0.206       79.375       25.019        0.099      345.787       23.569      859.197
06/21/2013  16:41:00     -123.424      -84.064       -4.599       59.940       30.156       30.607     3592.758      909.363      936.816        1.388        0.272      149.333       20.260        0.018      345.656       23.341      859.208
06/21/2013  16:42:00      -82.984      -55.450       -7.923       33.831       39.772       20.450     1144.551     1581.848      418.221        0.658        0.157       99.805       13.277        0.018      345.605       23.256      859.227
06/21/2013  16:43:00     -111.599       -0.256       -7.366       35.244       29.656       17.591     1242.143      879.478      309.434        0.747        0.122      111.599        8.309        0.006      345.702       23.421      859.218
06/21/2013  16:44:00      -94.185       43.818       -1.764       29.962       32.248       21.511      897.703     1039.951      462.731        0.660        0.120      103.879       14.644        0.020      345.568       23.190      859.214
06/21/2013  16:45:00      -37.138       -7.760       -1.633       28.005       19.175       11.693      784.260      367.677      136.723        0.137        0.064       37.940        9.780        0.066      345.712       23.441      859.212
06/21/2013  16:46:00      -91.270      -14.499       -1.658       57.265       39.663       20.757     3279.252     1573.134      430.845        0.691        0.264       92.414       22.458        0.059      345.748       23.501      859.208
06/21/2013  16:47:00     -176.330      -39.118       -8.079       42.609       40.298       25.282     1815.550     1623.951      639.170        1.838        0.204      180.617       26.349        0.021      345.601       23.246      859.203
06/21/2013  16:48:00     -159.622      -57.058       -7.026       29.531       41.722       24.662      872.079     1740.729      608.194        1.600        0.161      169.513       19.068        0.013      345.557       23.173      859.204
06/21/2013  16:49:00     -139.726      -59.461       -5.705       46.788       43.725       27.400     2189.140     1911.851      750.757        1.397        0.243      151.852       20.975        0.019      345.652       23.334      859.219
06/21/2013  16:50:00     -163.303     -153.923       -3.117       81.027       91.627       46.765     6565.303     8395.524     2186.944        3.376        0.857      224.410       42.965        0.037      345.642       23.315      859.223
06/21/2013  16:51:00     -216.266     -164.752      -18.375      101.203       84.139       48.133    10241.962     7079.375     2316.744        4.694        0.982      271.872       53.958        0.039      345.583       23.212      859.232
06/21/2013  16:52:00     -160.735     -149.009        6.054      120.161      105.470       53.618    14438.778    11123.931     2874.876        3.825        1.422      219.179       73.013        0.111      345.629       23.294      859.248
06/21/2013  16:53:00     -211.216     -185.942      -17.838       75.336       76.343       45.264     5675.583     5828.210     2048.799        4.653        0.678      281.401       35.372        0.016      345.504       23.075      859.245
06/21/2013  16:54:00       13.793     -107.920        6.122       89.744       56.426       39.633     8053.998     3183.890     1570.772        1.234        0.640      108.798       26.379        0.059      345.516       23.101      859.250
06/21/2013  16:55:00       -2.444      -54.884       18.381       50.883       83.936       39.111     2589.102     7045.228     1529.699        0.726        0.558       54.939       43.910        0.639      345.595       23.237      859.219
06/21/2013  16:56:00      -15.508      -74.210       -1.726       38.119       58.923       39.490     1453.074     3471.867     1559.424        0.612        0.324       75.813       36.879        0.237      345.694       23.408      859.221
06/21/2013  16:57:00     -101.894     -135.100       11.508      130.657       96.787       60.272    17071.251     9367.676     3632.730        2.941        1.504      169.218       55.232        0.107      345.877       23.720      859.217
06/21/2013  16:58:00     -135.948      -44.744       10.608       95.519       94.270       59.107     9123.921     8886.832     3493.608        2.105        1.075      143.122       65.288        0.208      346.096       24.096      859.203
06/21/2013  16:59:00     -137.522       26.675      -18.014      106.566      124.102       42.800    11356.306    15401.314     1831.813        2.426        1.429      140.086       45.206        0.104      346.115       24.131      859.221
06/21/2013  17:00:00     -182.561      -68.186      -18.782      118.137       64.174       48.564    13956.309     4118.299     2358.470        2.938        1.022      194.879       36.018        0.034      345.931       23.811      859.208
06/21/2013  17:01:00     -303.620      -26.960      -30.694       71.892       74.016       47.613     5168.392     5478.416     2267.035        5.338        0.646      304.815       32.937        0.012      345.686       23.391      859.212
06/21/2013  17:02:00     -165.395      -33.208       -5.736       83.573       40.459       35.273     6984.428     1636.900     1244.208        1.918        0.493      168.696       43.234        0.066      345.674       23.371      859.210
06/21/2013  17:03:00     -165.487      -56.148       -8.814       38.264       36.176       25.714     1464.133     1308.671      661.191        1.702        0.172      174.753       22.321        0.016      345.596       23.238      859.196
06/21/2013  17:04:00      -45.071       29.706        8.811       71.345       75.551       36.974     5090.115     5707.926     1367.074        0.758        0.608       53.980       37.854        0.492      345.818       23.619      859.195
06/21/2013  17:05:00      -23.009      156.027      -17.949       51.670       76.953       33.878     2669.804     5921.799     1147.746        1.747        0.487      157.714       39.857        0.064      345.671       23.366      859.199
06/21/2013  17:06:00      -44.931      170.469      -18.672       42.647       48.943       26.383     1818.797     2395.457      696.088        1.817        0.246      176.291       23.839        0.018      345.551       23.162      859.193
06/21/2013  17:07:00      -21.320      136.756      -11.372       27.957       44.793       26.952      781.607     2006.381      726.435        1.140        0.176      138.408       26.899        0.038      345.541       23.146      859.172
06/21/2013  17:08:00       -9.627       50.276       -0.585       15.821       34.475       18.117      250.310     1188.540      328.225        0.219        0.088       51.189       12.743        0.062      345.761       23.522      859.166
06/21/2013  17:09:00       50.979       35.235       18.729       63.915       33.275       35.079     4085.154     1107.246     1230.542        0.531        0.321       61.971       26.130        0.178      345.582       23.215      859.152
06/21/2013  17:10:00       87.274      112.954      -22.966       42.687       66.091       25.847     1822.172     4368.068      668.092        1.388        0.343      142.742       20.620        0.021      345.563       23.181      859.142
06/21/2013  17:11:00       29.165       40.353      -14.986       34.225       36.551       22.630     1171.346     1335.969      512.125        0.286        0.151       49.789       20.296        0.166      345.584       23.218      859.150
06/21/2013  17:12:00       11.392       13.949       20.900       22.543       15.744       14.367      508.191      247.861      206.413        0.086        0.048       18.010        9.618        0.285      345.430       22.955      859.127
06/21/2013  17:13:00       13.469       72.180        4.168       41.625      100.799       33.305     1732.642    10160.386     1109.244        0.920        0.650       73.426       36.644        0.249      344.782       21.845      859.115
06/21/2013  17:14:00       56.464      138.847       -6.636       63.372       69.896       46.978     4016.015     4885.421     2206.914        1.681        0.555      149.888       44.397        0.088      345.557       23.173      859.096
06/21/2013  17:15:00       68.103      103.281       -0.869       74.076      102.954       38.985     5487.268    10599.423     1519.854        1.645        0.880      123.714       42.671        0.119      345.536       23.136      859.089
06/21/2013  17:16:00       74.936      137.698       -1.093       68.615       86.770       48.210     4708.019     7529.025     2324.216        1.957        0.728      156.768       46.923        0.090      345.537       23.136      859.089
06/21/2013  17:17:00       20.036      203.525      -23.883       61.828       61.826       42.644     3822.700     3822.406     1818.480        2.593        0.473      204.508       38.732        0.036      345.533       23.130      859.092
06/21/2013  17:18:00      118.703       59.964       29.671       78.638       59.292       50.723     6183.863     3515.549     2572.859        1.542        0.614      132.989       24.839        0.035      345.596       23.238      859.055
06/21/2013  17:19:00       -2.770      219.226       -3.274       77.054      150.654       60.276     5937.295    22696.556     3633.228        4.017        1.613      219.244       75.878        0.120      345.660       23.346      859.056
06/21/2013  17:20:00       86.064       93.923       34.401       97.786       98.995       73.787     9562.185     9800.099     5444.514        2.110        1.240      127.391       56.626        0.198      345.544       23.150      859.036
06/21/2013  17:21:00       75.872       87.267       13.706       96.448       83.535       64.131     9302.299     6978.069     4112.828        1.697        1.020      115.637       54.808        0.225      345.600       23.245      859.023
06/21/2013  17:22:00       61.941       79.290       10.222       79.185       95.416       50.707     6270.309     9104.196     2571.150        1.408        0.897      100.616       57.364        0.325      345.605       23.253      859.004
06/21/2013  17:23:00       42.952      173.198       -4.639       75.179       98.868       58.839     5651.947     9774.980     3462.085        2.537        0.944      178.444       59.047        0.109      345.594       23.234      858.982
06/21/2013  17:24:00       -1.006      247.440      -30.383       60.314      120.701       51.575     3637.761    14568.700     2659.980        4.150        1.043      247.442       59.457        0.058      345.611       23.263      858.978
06/21/2013  17:25:00       34.984      316.651      -40.147       99.857      148.000       63.493     9971.409    21904.007     4031.313        6.950        1.795      318.578       76.445        0.058      345.624       23.284      859.008
06/21/2013  17:26:00      -46.227      291.258      -37.047       83.545       84.000       54.791     6979.818     7056.075     3002.087        5.269        0.852      294.904       46.611        0.025      345.672       23.366      859.015
06/21/2013  17:27:00      -68.568      279.045      -35.228       67.996       83.307       42.872     4623.423     6940.007     1838.045        4.860        0.670      287.346       38.691        0.018      345.608       23.256      859.034
06/21/2013  17:28:00      -15.362      195.481      -15.115       82.321       66.890       41.482     6776.685     4474.273     1720.743        2.582        0.649      196.083       37.183        0.036      345.645       23.320      859.017
06/21/2013  17:29:00      132.075      146.471       22.468      126.764      101.218       81.099    16069.227    10244.986     6577.024        3.614        1.645      197.224       69.420        0.124      345.690       23.398      858.982
06/21/2013  17:30:00      -23.598      214.680      -16.334       67.233      120.580       58.754     4520.285    14539.580     3452.087        3.471        1.126      215.973       65.439        0.092      345.575       23.201      858.981
06/21/2013  17:31:00       45.149      211.262       -9.508       82.969      126.207       57.296     6883.820    15928.214     3282.835        3.642        1.305      216.033       76.018        0.124      345.574       23.198      858.956
06/21/2013  17:32:00       38.983      136.749       -5.133       60.497       87.690       42.005     3659.878     7689.500     1764.411        1.668        0.656      142.197       45.066        0.100      345.617       23.273      858.937
06/21/2013  17:33:00       78.739       88.354        1.199       69.260       55.847       40.503     4797.010     3118.855     1640.498        1.178        0.478      118.348       37.343        0.100      345.559       23.174      858.911
06/21/2013  17:34:00       14.909      230.914      -37.324       49.749      124.377       35.307     2474.991    15469.675     1246.594        3.706        0.960      231.394       49.635        0.046      345.502       23.074      858.890
06/21/2013  17:35:00        2.763      235.306      -26.725       77.690      133.458       47.486     6035.699    17810.971     2254.952        4.109        1.305      235.323       60.416        0.066      345.587       23.221      858.957
06/21/2013  17:36:00       61.897       96.878       35.584       88.800       66.139       45.839     7885.468     4374.375     2101.233        1.442        0.718      114.963       36.663        0.102      345.548       23.156      858.941
06/21/2013  17:37:00       -4.843      162.997       -8.478       91.142       91.334       48.469     8306.892     8341.970     2349.230        2.283        0.950      163.069       59.183        0.132      345.738       23.482      858.968
06/21/2013  17:38:00       45.738      194.626       -0.083       75.745      117.171       70.603     5737.268    13729.079     4984.803        3.221        1.223      199.928       70.728        0.125      345.731       23.469      858.923
06/21/2013  17:39:00       72.421      190.242       -9.242       69.717      115.441       58.327     4860.416    13326.662     3402.044        3.155        1.079      203.560       70.038        0.118      345.675       23.372      858.891
06/21/2013  17:40:00        7.207      112.762       -4.779       51.515       76.656       41.541     2653.789     5876.168     1725.694        1.152        0.513      112.992       46.726        0.171      345.809       23.604      858.901
06/21/2013  17:41:00      -89.220      190.463      -24.572       90.880       99.870       56.241     8259.155     9974.105     3163.055        3.311        1.070      210.325       41.348        0.039      345.920       23.794      858.926
06/21/2013  17:42:00       20.919      218.931       -6.206      119.659      136.369       69.712    14318.350    18596.617     4859.756        4.308        1.889      219.928       72.776        0.109      346.033       23.987      858.940
06/21/2013  17:43:00       24.252      210.084      -27.966      119.215      154.460       68.620    14212.198    23857.782     4708.671        4.413        2.139      211.479       67.172        0.101      346.002       23.933      858.914
06/21/2013  17:44:00      -56.902      418.608      -54.698      119.797      176.845       60.204    14351.277    31274.249     3624.539       11.535        2.463      422.458       71.759        0.029      345.949       23.842      858.933
06/21/2013  17:45:00     -188.075      254.533      -45.779      128.067      228.967       60.492    16401.206    52425.893     3659.286        8.736        3.624      316.480       70.007        0.049      345.972       23.882      858.950
06/21/2013  17:46:00      -43.917      146.413       -2.931       91.363      127.226       53.768     8347.201    16186.397     2890.973        2.539        1.371      152.858       57.627        0.142      346.012       23.952      858.938
06/21/2013  17:47:00      -60.701      261.155      -32.174       65.918      112.341       51.596     4345.177    12620.560     2662.119        4.627        0.981      268.117       51.817        0.037      345.884       23.731      858.915
06/21/2013  17:48:00      -90.352      194.169      -24.777       59.635      117.074       46.012     3556.342    13706.245     2117.069        3.293        0.969      214.162       49.237        0.053      346.067       24.045      858.901
06/21/2013  17:49:00      -28.817       88.623        5.650       49.332       86.400       37.214     2433.597     7464.887     1384.900        1.000        0.564       93.190       41.383        0.197      346.229       24.324      858.907
06/21/2013  17:50:00      -25.413      126.858       -5.673       52.055       81.146       30.990     2709.709     6584.722      960.358        1.351        0.513      129.379       33.983        0.069      346.122       24.141      858.898
06/21/2013  17:51:00     -100.219      240.735      -22.112      216.343      143.924       79.571    46804.419    20714.095     6331.476        7.115        3.692      260.762       66.301        0.065      346.052       24.020      858.894
06/21/2013  17:52:00      -62.513      338.208      -18.066      111.241      176.056       83.866    12374.481    30995.546     7033.528        8.450        2.520      343.936       96.724        0.079      345.928       23.806      858.914
06/21/2013  17:53:00      -68.678      477.464      -53.764       81.529      117.746       52.400     6646.931    13864.066     2745.711       12.941        1.163      482.378       56.746        0.014      345.959       23.858      858.931
06/21/2013  17:54:00     -107.094      332.745      -28.901       76.308      195.613       61.673     5822.930    38264.584     3803.509        8.545        2.395      349.555       82.425        0.056      345.948       23.841      858.944
06/21/2013  17:55:00      -71.307      541.596      -66.113       86.802       97.432       48.928     7534.623     9493.042     2393.947       16.110        0.971      546.270       47.822        0.008      345.707       23.427      858.942
06/21/2013  17:56:00     -128.316      439.567      -53.774      125.358      105.436       55.734    15714.533    11116.691     3106.292       12.125        1.497      457.913       53.623        0.014      345.801       23.589      858.944
06/21/2013  17:57:00     -113.658      313.429      -31.301       93.894      143.158       65.619     8816.152    20494.211     4305.848        7.287        1.681      333.401       71.747        0.046      345.951       23.845      858.940
06/21/2013  17:58:00      -98.584      287.497      -24.086       94.622      116.973       66.234     8953.322    13682.761     4386.964        5.998        1.351      303.930       60.190        0.039      345.966       23.870      858.961
06/21/2013  17:59:00     -146.312      333.693      -52.982       69.769      111.805       48.548     4867.761    12500.457     2356.918        7.764        0.986      364.360       48.409        0.018      345.786       23.561      858.965
06/21/2013  18:00:00      -52.803      210.278      -24.208       84.547      113.854       50.398     7148.112    12962.803     2539.952        3.512        1.133      216.806       58.069        0.072      345.833       23.642      858.938
06/21/2013  18:01:00      -20.638      317.864      -57.055       81.361       96.094       44.852     6619.689     9234.041     2011.710        6.129        0.893      318.534       40.893        0.016      345.892       23.744      858.915
06/21/2013  18:02:00      -43.395      306.495      -29.515       83.324      101.215       54.038     6942.885    10244.545     2920.068        5.840        1.005      309.552       54.639        0.031      345.820       23.622      858.931
06/21/2013  18:03:00      -48.573      304.368      -21.701      116.261      148.785       67.169    13516.525    22136.928     4511.713        6.781        2.008      308.220       70.777        0.053      345.813       23.610      858.940
06/21/2013  18:04:00      -32.832      253.518       -6.132       79.244      155.654       68.701     6279.668    24228.139     4719.859        5.030        1.761      255.635       84.722        0.110      345.938       23.824      858.923
06/21/2013  18:05:00      -70.462      390.940      -49.587       89.741      116.972       52.954     8053.423    13682.467     2804.113        9.239        1.227      397.239       46.484        0.014      345.927       23.804      858.936
06/21/2013  18:06:00      -28.101      292.561      -32.958       94.818      135.017       69.483     8990.447    18229.712     4827.822        5.975        1.602      293.907       69.198        0.055      345.955       23.851      858.936
06/21/2013  18:07:00      -11.597      232.604      -26.201       64.011       88.175       49.010     4097.382     7774.795     2401.978        3.460        0.714      232.893       51.770        0.049      346.102       24.106      858.929
06/21/2013  18:08:00      -35.162      246.853      -16.993       87.641      106.781       53.335     7680.939    11402.231     2844.584        4.219        1.096      249.345       52.683        0.045      346.082       24.069      858.929
06/21/2013  18:09:00     -158.749      348.386      -54.308      143.628      115.234       76.675    20628.882    13278.884     5879.131        9.465        1.989      382.850       75.068        0.038      345.943       23.831      858.947
06/21/2013  18:10:00     -100.003      222.236      -18.119       72.978       75.164       43.841     5325.776     5649.647     1922.045        3.631        0.645      243.700       45.910        0.035      345.819       23.619      858.947
06/21/2013  18:11:00      -98.181      164.727       -9.516       96.385      111.504       61.804     9290.003    12433.212     3819.683        3.120        1.277      191.767       62.029        0.105      345.951       23.848      858.963
06/21/2013  18:12:00       -4.520      202.327      -13.767       79.629      126.459       57.716     6340.745    15991.925     3331.141        3.340        1.283      202.377       62.447        0.095      345.798       23.583      858.941
06/21/2013  18:13:00      -63.595      233.167      -21.584       77.018       91.992       50.468     5931.831     8462.476     2547.022        3.791        0.847      241.684       55.809        0.053      345.862       23.693      858.937
06/21/2013  18:14:00       32.550      234.789      -12.256       84.393      163.272       72.429     7122.143    26657.866     5246.007        4.767        1.951      237.035       81.634        0.119      345.977       23.892      858.929
06/21/2013  18:15:00      -21.865      266.627      -19.634      127.108      161.276       65.160    16156.329    26009.793     4245.797        5.917        2.321      267.522       81.821        0.094      346.020       23.965      858.921
06/21/2013  18:16:00       37.684      318.817      -34.800       79.005      105.736       58.821     6241.769    11180.107     3459.878        6.257        1.044      321.036       57.745        0.032      346.007       23.942      858.921
06/21/2013  18:17:00       19.498      441.625      -51.121      121.783      202.399       77.982    14831.027    40965.391     6081.166       12.994        3.094      442.056       87.680        0.039      345.952       23.848      858.933
06/21/2013  18:18:00      -59.077      362.629      -50.623       87.224      133.192       64.306     7608.019    17739.981     4135.248        8.351        1.474      367.409       65.399        0.032      346.076       24.060      858.975
06/21/2013  18:19:00      -14.317      478.335      -57.717       90.162      146.538       57.770     8129.163    21473.483     3337.426       13.263        1.647      478.549       67.142        0.020      346.045       24.006      859.031
06/21/2013  18:20:00      -58.795      454.054      -52.019       59.176       98.415       40.953     3501.780     9685.493     1677.127       11.359        0.743      457.845       40.919        0.008      345.727       23.461      859.017
06/21/2013  18:21:00      -57.771      184.846      -25.401       58.034      133.876       49.867     3367.982    17922.908     2486.718        3.096        1.189      193.663       40.319        0.043      345.843       23.662      859.038
06/21/2013  18:22:00      -87.114       95.010      -25.666       48.460       53.969       28.858     2348.396     2912.697      832.811        1.168        0.305      128.902       29.126        0.051      345.848       23.672      859.024
06/21/2013  18:23:00      -15.462       83.735       11.981       65.607       45.745       28.704     4304.325     2092.591      823.892        0.731        0.361       85.150       25.671        0.091      346.024       23.975      859.007
06/21/2013  18:24:00       86.785      100.354       -0.763       65.770       79.043       47.787     4325.627     6247.725     2283.553        1.523        0.643      132.675       43.616        0.108      345.987       23.909      859.039
06/21/2013  18:25:00       58.295      169.473       -8.132       75.954      102.844       59.533     5768.981    10576.819     3544.163        2.603        0.994      179.219       53.374        0.089      346.004       23.936      859.059
06/21/2013  18:26:00       68.089      149.535       18.207       85.393      106.660       60.405     7291.938    11376.349     3648.719        2.482        1.116      164.307       68.286        0.173      345.804       23.596      859.046
06/21/2013  18:27:00      113.630      117.305        6.186      106.779      105.922       56.372    11401.742    11219.456     3177.848        2.625        1.290      163.316       51.015        0.098      345.826       23.634      859.008
06/21/2013  18:28:00      -35.451      328.869      -47.297      103.134      116.611       48.565    10636.609    13598.021     2358.532        6.912        1.330      330.774       45.532        0.019      345.687       23.393      859.027
06/21/2013  18:29:00      -11.435      158.217       -9.408       90.163      138.433       54.183     8129.420    19163.758     2935.783        2.773        1.511      158.630       59.869        0.142      345.804       23.596      859.030
06/21/2013  18:30:00      -12.707      109.318       -1.660      129.494      101.698       58.191    16768.623    10342.567     3386.239        2.130        1.525      110.054       57.826        0.276      345.882       23.730      859.024
06/21/2013  18:31:00       26.501      187.588      -22.406       86.788      150.349       53.134     7532.181    22604.823     2823.236        3.467        1.648      189.450       72.489        0.146      345.704       23.422      859.050
06/21/2013  18:32:00      -62.786      197.427      -15.753       81.057       95.770       50.959     6570.198     9171.912     2596.821        3.075        0.917      207.170       54.514        0.069      345.763       23.525      859.063
06/21/2013  18:33:00       88.738      111.570       -1.329       61.319       60.643       42.354     3760.044     3677.581     1793.828        1.478        0.462      142.556       37.818        0.070      345.655       23.341      859.051
06/21/2013  18:34:00      114.782       78.129        8.923       65.505       47.143       41.537     4290.852     2222.470     1725.306        1.380        0.412      138.849       25.405        0.033      345.655       23.339      859.019
06/21/2013  18:35:00      177.510      101.519       27.518       90.347       77.803       55.968     8162.592     6053.312     3132.382        2.996        0.867      204.490       50.260        0.060      345.398       22.896      858.986
06/21/2013  18:36:00       52.407       78.984        4.773       55.517       56.086       40.965     3082.104     3145.629     1678.145        0.846        0.395       94.789       31.107        0.108      345.541       23.146      858.990
06/21/2013  18:37:00      -54.461      295.040      -30.370       71.654       96.618       51.548     5134.242     9335.045     2657.243        5.403        0.856      300.024       50.952        0.029      345.740       23.482      859.024
06/21/2013  18:38:00     -108.895      188.128      -24.225      102.597       82.685       56.503    10526.094     6836.754     3192.626        3.419        1.028      217.371       59.980        0.076      345.705       23.423      859.024
06/21/2013  18:39:00       -3.044       94.794       27.658      115.706      104.070       67.007    13387.962    10830.550     4489.979        1.923        1.435       94.843       78.273        0.681      345.894       23.750      859.046
06/21/2013  18:40:00      120.007      189.544      -13.649       99.465      143.833       80.563     9893.309    20687.866     6490.344        4.379        1.854      224.341       84.217        0.141      345.735       23.474      859.050
06/21/2013  18:41:00       99.911      149.034        8.312      123.945      131.788       85.483    15362.288    17368.021     7307.313        3.614        2.002      179.425       82.190        0.210      345.767       23.532      859.056
06/21/2013  18:42:00     -112.112      217.033      -34.508       86.200       96.183       48.099     7430.396     9251.262     2313.561        3.993        0.950      244.279       44.446        0.033      345.782       23.555      859.089
06/21/2013  18:43:00     -160.430      185.049      -30.807       82.420       83.615       43.212     6793.044     6991.456     1867.237        3.829        0.783      244.910       44.187        0.033      345.768       23.532      859.082
06/21/2013  18:44:00      -26.956      114.013       -7.870       39.620       68.275       34.063     1569.740     4661.513     1160.305        1.059        0.370      117.156       36.769        0.098      345.829       23.639      859.113
06/21/2013  18:45:00       53.282      187.851      -18.414       80.005      112.460       56.447     6400.758    12647.200     3186.268        3.035        1.112      195.261       58.465        0.090      345.668       23.360      859.102
06/21/2013  18:46:00       13.977       86.072        3.779       58.362       81.932       41.091     3406.151     6712.834     1688.453        0.971        0.590       87.199       40.016        0.211      345.792       23.576      859.079
06/21/2013  18:47:00     -193.105      290.497      -57.241       84.803       89.404       57.395     7191.565     7993.103     3294.243        7.171        0.924      348.824       52.455        0.023      345.619       23.275      859.105
06/21/2013  18:48:00     -252.174      279.610      -73.659       68.499       81.678       44.531     4692.116     6671.366     1982.988        8.027        0.667      376.528       41.138        0.012      345.715       23.440      859.076
06/21/2013  18:49:00      -34.686      155.229        0.939      115.793      119.911       53.342    13408.131    14378.662     2845.378        2.796        1.532      159.057       68.802        0.187      345.840       23.657      859.082
06/21/2013  18:50:00       23.829       88.647        6.864       70.059       82.811       54.736     4908.296     6857.734     2995.978        1.161        0.738       91.793       50.729        0.305      345.855       23.684      859.111
06/21/2013  18:51:00      -17.775      325.332      -37.836       77.833      109.125       48.323     6057.947    11908.361     2335.075        6.394        1.015      325.817       48.180        0.022      345.509       23.086      859.133
06/21/2013  18:52:00      -18.331      372.925      -42.230       80.387      119.159       52.439     6461.995    14198.785     2749.898        8.230        1.171      373.375       54.213        0.021      345.562       23.176      859.139
06/21/2013  18:53:00       21.199      212.446      -16.822      108.773      122.222       64.339    11831.491    14938.267     4139.563        3.838        1.545      213.501       64.893        0.092      345.593       23.231      859.149
06/21/2013  18:54:00       16.098      146.783        8.921       78.260       96.590       64.221     6124.581     9329.592     4124.399        2.073        0.979      147.663       65.628        0.198      345.635       23.304      859.168
06/21/2013  18:55:00      -98.905      244.570      -34.939       81.015       74.439       42.846     6563.393     5541.130     1835.755        4.238        0.697      263.812       42.762        0.026      345.626       23.286      859.198
06/21/2013  18:56:00      -51.812      215.336      -29.187      105.517       76.986       37.901    11133.941     5926.904     1436.520        3.420        0.925      221.481       35.934        0.026      345.624       23.284      859.210
06/21/2013  18:57:00       11.094      179.150       -1.871       74.389       97.960       72.935     5533.778     9596.181     5319.518        2.633        1.022      179.493       62.197        0.120      345.711       23.433      859.214
06/21/2013  18:58:00      -56.917      224.356      -24.646       69.851       96.939       39.417     4879.203     9397.218     1553.730        3.500        0.792      231.463       31.439        0.018      345.654       23.337      859.242
06/21/2013  18:59:00      -42.450      229.224      -22.331       62.034       92.922       41.764     3848.256     8634.423     1744.193        3.453        0.711      233.122       44.079        0.036      345.495       23.064      859.248
06/21/2013  19:00:00       72.739      136.318       -7.131       82.160      100.477       58.460     6750.211    10095.530     3417.523        2.209        1.013      154.511       54.048        0.122      345.513       23.093      859.243
06/21/2013  19:01:00       55.333      282.014      -28.492       99.293      114.797       65.272     9859.092    13178.311     4260.414        5.535        1.365      287.391       68.109        0.056      345.404       22.906      859.253
06/21/2013  19:02:00       38.443      157.255        9.918       94.964      119.142       63.618     9018.251    14194.813     4047.254        2.678        1.363      161.886       63.050        0.152      345.467       23.016      859.257
06/21/2013  19:03:00      145.603      175.118       -2.572       98.243       95.517       64.340     9651.785     9123.507     4139.656        3.739        1.146      227.742       59.042        0.067      345.367       22.844      859.248
06/21/2013  19:04:00       18.090      393.958      -49.624       79.745      162.141       64.891     6359.316    26289.659     4210.852        9.742        1.843      394.373       85.153        0.047      345.307       22.739      859.259
06/21/2013  19:05:00      -30.103      410.135      -48.961       53.399       85.325       37.142     2851.406     7280.311     1379.510        9.151        0.576      411.238       30.908        0.006      345.335       22.788      859.279
06/21/2013  19:06:00       59.123      154.756       -0.635       73.863       82.595       47.900     5455.737     6821.915     2294.389        2.101        0.729      165.665       44.199        0.071      345.417       22.929      859.304
06/21/2013  19:07:00      171.567      143.573       28.070      152.382      101.615       71.835    23220.286    10325.561     5160.333        4.476        1.935      223.715       43.653        0.038      345.382       22.871      859.309
06/21/2013  19:08:00       59.756      100.519       11.184       84.792       83.027       63.150     7189.646     6893.428     3987.942        1.593        0.904      116.940       53.388        0.208      345.461       23.007      859.322
06/21/2013  19:09:00       35.798      173.452       -2.466       87.400      109.355       60.389     7638.733    11958.467     3646.820        2.730        1.162      177.108       57.101        0.104      345.440       22.969      859.340
06/21/2013  19:10:00       40.897      211.126      -12.624       76.527      141.301       61.972     5856.427    19965.852     3840.547        3.803        1.483      215.050       73.753        0.118      345.425       22.942      859.343
06/21/2013  19:11:00       85.275      121.693        4.991       98.191      105.298       57.161     9641.520    11087.765     3267.408        2.305        1.200      148.597       56.251        0.143      345.440       22.969      859.336
06/21/2013  19:12:00       60.719      230.745      -11.198       90.869      122.492       77.575     8257.087    15004.307     6017.924        4.316        1.464      238.601       76.490        0.103      345.493       23.060      859.382
06/21/2013  19:13:00       66.927      239.670       -6.814       91.578      149.599       80.081     8386.527    22379.997     6412.939        4.957        1.859      248.839       89.636        0.130      345.434       22.958      859.404
06/21/2013  19:14:00      101.087      171.768        8.054      116.000       97.739       76.768    13456.023     9552.880     5893.280        3.434        1.445      199.306       65.631        0.108      345.417       22.931      859.413
06/21/2013  19:15:00       49.995      171.858      -10.221       65.294      121.997       65.139     4263.359    14883.174     4243.151        2.776        1.169      178.983       70.892        0.157      345.484       23.044      859.420
06/21/2013  19:16:00       32.059      129.495       -3.353       57.506       84.245       42.721     3306.995     7097.250     1825.072        1.502        0.611      133.404       44.223        0.110      345.550       23.158      859.424
06/21/2013  19:17:00       62.117      123.417        8.535       75.521      115.600       62.670     5703.358    13363.248     3927.470        2.107        1.150      138.168       58.346        0.178      345.493       23.063      859.438
06/21/2013  19:18:00       75.670      189.028       -4.803       77.666      125.851       63.798     6032.005    15838.522     4070.175        3.371        1.297      203.612       75.828        0.139      345.400       22.900      859.449
06/21/2013  19:19:00       37.116      105.990       -1.299       44.866       81.973       53.415     2012.947     6719.597     2853.159        1.210        0.579      112.301       47.455        0.179      345.419       22.935      859.430
06/21/2013  19:20:00      103.905      137.536        1.227      104.341       68.584       58.752    10887.017     4703.746     3451.746        2.437        0.952      172.373       50.229        0.085      345.393       22.890      859.427
06/21/2013  19:21:00      135.904      132.001       11.227      100.249       75.292       62.870    10049.932     5668.874     3952.666        2.784        0.984      189.458       48.724        0.066      345.390       22.882      859.419
06/21/2013  19:22:00      113.372      176.145       -8.850       89.583       94.237       67.377     8025.101     8880.657     4539.718        3.270        1.072      209.476       59.546        0.081      345.340       22.796      859.431
06/21/2013  19:23:00       73.467      256.822      -16.044       97.584      134.016       69.868     9522.733    17960.221     4881.486        5.198        1.618      267.123       79.150        0.088      345.284       22.700      859.429
06/21/2013  19:24:00      107.249      162.094       12.934      103.092      112.809       78.915    10627.927    12725.761     6227.630        3.376        1.479      194.363       61.096        0.099      345.291       22.714      859.435
06/21/2013  19:25:00      184.352      146.555       26.530      146.867       92.385       62.045    21570.005     8535.009     3849.560        4.505        1.698      235.507       37.638        0.026      345.355       22.824      859.444
06/21/2013  19:26:00        5.543      140.655       -5.066       85.541      111.564       46.698     7317.335    12446.603     2180.684        2.089        1.097      140.764       45.217        0.103      345.395       22.891      859.459
06/21/2013  19:27:00       70.038      138.835       -9.261       87.958       99.048       60.875     7736.537     9810.555     3705.774        2.276        1.063      155.501       56.748        0.133      345.309       22.746      859.465
06/21/2013  19:28:00       20.657      179.692      -15.258       74.832       83.410       45.430     5599.810     6957.192     2063.845        2.378        0.731      180.876       39.220        0.047      345.434       22.961      859.512
06/21/2013  19:29:00     -109.280      140.778      -10.643       62.248       62.551       43.465     3874.790     3912.686     1889.204        2.077        0.484      178.215       35.987        0.041      345.606       23.254      859.524
06/21/2013  19:30:00     -137.045      204.376      -27.208       70.922       83.792       48.234     5029.995     7021.082     2326.563        3.783        0.719      246.071       41.749        0.029      345.562       23.179      859.549
06/21/2013  19:31:00      -64.577      144.933      -12.437       50.216       50.620       28.503     2521.692     2562.360      812.404        1.561        0.295      158.669       26.765        0.028      345.574       23.200      859.549
06/21/2013  19:32:00      -71.599       90.930       -5.044       50.302       49.586       30.415     2530.302     2458.749      925.064        0.967        0.296      115.736       23.616        0.042      345.658       23.345      859.545
06/21/2013  19:33:00      -87.460       28.630       -9.921       56.412       72.372       34.183     3182.309     5237.701     1168.503        0.908        0.479       92.026       23.906        0.067      345.718       23.449      859.536
06/21/2013  19:34:00      -75.934      136.688      -12.319       92.131       95.469       42.157     8488.176     9114.323     1777.196        2.199        0.969      156.363       43.562        0.078      345.503       23.078      859.542
06/21/2013  19:35:00      -88.735      201.160      -14.074       89.087       89.356       60.391     7936.409     7984.461     3647.049        3.405        0.978      219.862       56.468        0.066      345.492       23.057      859.530
06/21/2013  19:36:00     -179.011      154.457      -31.527       69.259       75.355       39.277     4796.771     5678.380     1542.703        3.445        0.601      236.436       29.123        0.015      345.580       23.208      859.548
06/21/2013  19:37:00     -157.958      154.263      -27.515      115.019       91.090       57.527    13229.426     8297.453     3309.301        3.717        1.242      220.789       52.911        0.057      345.515       23.097      859.549
06/21/2013  19:38:00      -85.061      165.657       -8.905       48.755       81.796       41.614     2377.012     6690.583     1731.686        2.278        0.540      186.219       36.129        0.038      345.482       23.042      859.557
06/21/2013  19:39:00      -35.365       90.660       -2.384       37.041       66.881       33.223     1372.021     4473.053     1103.762        0.821        0.347       97.313       36.709        0.142      345.511       23.093      859.552
06/21/2013  19:40:00      -80.303      122.450      -12.640       65.781       83.305       37.011     4327.122     6939.760     1369.804        1.712        0.632      146.433       24.590        0.028      345.511       23.092      859.568
06/21/2013  19:41:00      -77.209      251.071      -11.381       82.174      160.829       65.065     6752.531    25865.948     4233.406        5.298        1.843      262.674       79.346        0.091      345.377       22.861      859.564
06/21/2013  19:42:00     -118.021      303.262      -35.252       71.446      118.627       46.460     5104.599    14072.447     2158.506        6.423        1.067      325.418       38.658        0.014      345.349       22.811      859.568
06/21/2013  19:43:00     -111.088      192.222      -18.116      103.278      109.847       59.083    10666.260    12066.365     3490.821        3.792        1.311      222.013       55.939        0.063      345.395       22.891      859.570
06/21/2013  19:44:00     -109.675      281.735      -31.960       79.827      113.540       48.853     6372.356    12891.339     2386.632        5.703        1.083      302.329       34.266        0.013      345.368       22.844      859.571
06/21/2013  19:45:00      -65.952      208.452      -29.052       83.979       71.350       41.150     7052.508     5090.853     1693.311        3.124        0.692      218.636       44.389        0.041      345.419       22.932      859.589
06/21/2013  19:46:00      -37.348      310.240      -47.466       72.548       84.194       47.580     5263.248     7088.572     2263.828        5.725        0.731      312.480       40.055        0.016      345.331       22.780      859.588
06/21/2013  19:47:00      -35.821      353.228      -34.034       97.084      144.394       61.640     9425.355    20849.680     3799.457        8.064        1.704      355.040       65.957        0.035      345.274       22.683      859.595
06/21/2013  19:48:00     -112.530      218.244      -32.462       73.690      107.739       52.146     5430.220    11607.627     2719.196        4.055        0.988      245.547       53.550        0.048      345.338       22.792      859.598
06/21/2013  19:49:00     -136.352      221.594      -26.585       98.570      113.556       59.352     9716.108    12894.918     3522.650        4.726        1.307      260.185       71.715        0.076      345.343       22.801      859.632
06/21/2013  19:50:00     -159.895      211.452      -46.877      105.458      135.426       62.743    11121.315    18340.085     3936.670        5.293        1.670      265.100       71.985        0.074      345.321       22.764      859.642
06/21/2013  19:51:00      -77.154      339.278      -46.654       69.341      115.993       42.977     4808.136    13454.327     1847.035        7.167        1.005      347.940       35.885        0.011      345.246       22.635      859.655
06/21/2013  19:52:00     -246.070      198.522      -46.270      116.374      127.216       61.096    13542.854    16183.815     3732.754        6.777        1.673      316.167       58.564        0.034      345.338       22.792      859.687
06/21/2013  19:53:00     -170.162      137.728      -36.519      101.865       88.911       53.124    10376.503     7905.153     2822.159        3.518        1.055      218.916       65.539        0.090      345.294       22.719      859.713
06/21/2013  19:54:00     -111.014      217.862      -22.681       84.004      110.504       56.316     7056.728    12211.077     3171.538        4.137        1.122      244.516       39.345        0.026      345.200       22.555      859.702
06/21/2013  19:55:00     -106.558      163.030      -18.225       68.906      110.672       43.525     4748.047    12248.390     1894.407        2.857        0.945      194.765       57.083        0.086      345.189       22.539      859.710
06/21/2013  19:56:00     -177.013      141.358      -44.623      147.328      128.337       59.176    21705.534    16470.500     3501.746        4.748        2.084      226.530       73.313        0.105      345.257       22.658      859.727
06/21/2013  19:57:00     -184.720      218.736      -38.296       93.016      119.387       57.776     8651.909    14253.355     3338.066        5.483        1.312      286.298       50.538        0.031      345.230       22.606      859.739
06/21/2013  19:58:00     -213.762      186.460      -35.361      104.601       95.568       50.661    10941.391     9133.315     2566.574        5.217        1.132      283.658       50.927        0.032      345.231       22.609      859.769
06/21/2013  19:59:00     -208.145      275.834      -57.046      150.427      121.656       62.449    22628.268    14800.241     3899.835        8.199        2.066      345.556       87.181        0.064      345.124       22.428      859.800
06/21/2013  20:00:00     -131.855      177.083      -27.335       94.716       74.500       51.842     8971.182     5550.202     2687.633        3.335        0.860      220.781       50.965        0.053      345.132       22.442      859.797
06/21/2013  20:01:00     -180.994      260.339      -46.025       83.859      103.304       51.149     7032.391    10671.739     2616.238        6.148        1.016      317.073       42.562        0.018      345.132       22.440      859.793
06/21/2013  20:02:00     -185.343      176.255      -45.970       69.893       72.524       43.346     4885.007     5259.664     1878.860        3.977        0.601      255.769       30.472        0.014      345.122       22.425      859.801
06/21/2013  20:03:00     -177.491      222.130      -25.001      130.649       95.935       69.482    17069.057     9203.597     4827.709        5.628        1.555      284.332       63.910        0.051      345.114       22.411      859.822
06/21/2013  20:04:00     -142.103      249.936      -31.853       79.449      107.750       55.415     6312.151    11610.022     3070.852        5.233        1.050      287.509       57.009        0.039      345.092       22.372      859.839
06/21/2013  20:05:00      -84.358      184.543      -21.682       50.852       76.193       36.471     2585.952     5805.330     1330.155        2.568        0.486      202.910       32.130        0.025      345.094       22.378      859.842
06/21/2013  20:06:00      -94.421      225.748      -28.138       84.958       63.079       38.955     7217.808     3979.006     1517.468        3.669        0.636      244.699       31.309        0.016      345.090       22.369      859.851
06/21/2013  20:07:00      -48.051      263.255      -19.871       60.471       88.444       43.845     3656.802     7822.300     1922.371        4.270        0.670      267.604       47.132        0.031      345.071       22.337      859.870
06/21/2013  20:08:00       20.846      218.815       -6.664       75.243      124.681       58.169     5661.537    15545.461     3383.658        3.647        1.230      219.806       65.884        0.090      345.046       22.297      859.878
06/21/2013  20:09:00      -48.177      193.859      -12.663       95.060      107.563       49.599     9036.349    11569.859     2460.039        3.156        1.153      199.756       49.751        0.062      345.085       22.362      859.881
06/21/2013  20:10:00      -36.010      155.899      -10.990       63.609       99.029       38.030     4046.100     9806.655     1446.252        2.051        0.765      160.004       44.077        0.076      345.093       22.373      859.888
06/21/2013  20:11:00     -125.643      195.972      -24.826       94.269       96.289       59.304     8886.618     9271.494     3516.906        3.824        1.084      232.790       57.158        0.060      345.055       22.310      859.894
06/21/2013  20:12:00     -109.878      154.386      -25.504      114.259      112.188       48.067    13055.202    12586.183     2310.400        3.225        1.398      189.495       72.067        0.145      345.053       22.310      859.891
06/21/2013  20:13:00       -6.434       80.487       -2.370       69.717       66.835       35.076     4860.436     4466.957     1230.314        0.854        0.528       80.743       37.483        0.216      345.039       22.286      859.904
06/21/2013  20:14:00      -70.874      271.991      -23.149       53.447       79.330       38.159     2856.608     6293.216     1456.106        4.507        0.530      281.074       36.770        0.017      345.011       22.232      859.916
06/21/2013  20:15:00      -36.624      303.136      -28.922       63.640      112.540       55.785     4050.022    12665.330     3111.968        5.694        0.991      305.340       63.258        0.043      344.986       22.190      859.929
06/21/2013  20:16:00      -19.032      211.636      -19.336       66.006       82.474       53.605     4356.772     6802.014     2873.544        2.978        0.702      212.490       47.623        0.050      344.988       22.194      859.920
06/21/2013  20:17:00      -34.264      168.825      -15.035       38.714       82.688       34.051     1498.761     6837.366     1159.449        1.970        0.475      172.267       42.270        0.060      345.012       22.237      859.936
06/21/2013  20:18:00      -49.586       54.975        3.652       40.709       42.448       27.415     1657.226     1801.815      751.607        0.485        0.211       74.034       18.714        0.064      345.032       22.272      859.936
06/21/2013  20:19:00       13.869       41.433        7.553       66.469       31.048       29.498     4418.171      963.980      870.127        0.411        0.313       43.692       16.543        0.143      344.964       22.156      859.950
06/21/2013  20:20:00      -69.411       43.610        4.519       62.461       22.795       28.619     3901.380      519.592      819.033        0.599        0.262       81.974       34.472        0.177      345.014       22.243      859.961
06/21/2013  20:21:00      -39.725       49.938       -5.373       41.906       32.705       23.104     1756.107     1069.616      533.772        0.373        0.168       63.811       22.618        0.126      345.006       22.228      859.985
06/21/2013  20:22:00     -189.905       85.397      -40.782      105.326       58.889       40.346    11093.491     3467.876     1627.823        3.060        0.809      208.222       30.386        0.021      345.034       22.274      859.990
06/21/2013  20:23:00      -99.401       86.937      -24.280       98.527      100.679       42.397     9707.566    10136.232     1797.472        1.983        1.082      132.055       32.577        0.061      344.992       22.205      860.004
06/21/2013  20:24:00     -158.435      270.654      -43.919      112.384       79.809       55.611    12630.069     6369.429     3092.576        6.118        1.105      313.616       61.519        0.038      344.904       22.050      860.007
06/21/2013  20:25:00     -142.919      293.682      -41.415       69.192      101.294       40.053     4787.521    10260.491     1604.223        6.252        0.833      326.612       36.338        0.012      344.886       22.019      860.025
06/21/2013  20:26:00      -77.002      157.766      -19.958       77.020      156.313       36.010     5932.026    24433.680     1296.708        3.143        1.583      175.555       31.135        0.031      344.883       22.016      860.030
06/21/2013  20:27:00      -57.929       42.249       10.740       76.148       77.269       51.801     5798.570     5970.538     2683.355        0.985        0.723       71.699       40.343        0.317      344.915       22.072      860.048
06/21/2013  20:28:00      -41.902       99.728       -8.590       43.804       55.719       33.895     1918.822     3104.583     1148.883        0.897        0.309      108.174       26.905        0.062      344.893       22.035      860.070
06/21/2013  20:29:00      -25.766       63.472       -3.956       36.859       35.218       26.444     1358.602     1240.337      699.301        0.400        0.165       68.503       21.426        0.098      344.877       22.008      860.080
06/21/2013  20:30:00      -37.911       73.454       -1.123       52.566       64.119       28.906     2763.222     4111.272      835.547        0.727        0.386       82.660       26.670        0.104      344.869       21.993      860.088
06/21/2013  20:31:00      -23.414      107.976       -0.661       32.501       51.859       25.598     1056.330     2689.379      655.258        0.830        0.220      110.485       23.014        0.043      344.819       21.908      860.084
06/21/2013  20:32:00      -53.121       88.522       -6.585       56.986       67.515       53.675     3247.415     4558.254     2881.021        1.069        0.534      103.237       40.504        0.154      344.838       21.939      860.103
06/21/2013  20:33:00     -144.939      112.735      -32.342       76.389       83.755       58.948     5835.265     7014.960     3474.920        2.554        0.816      183.620       37.686        0.042      344.847       21.954      860.111
06/21/2013  20:34:00     -164.697      204.447      -26.208       84.640      101.755       62.313     7164.013    10354.003     3882.914        4.550        1.070      262.534       53.613        0.042      344.772       21.824      860.108
06/21/2013  20:35:00     -106.581      107.776      -35.925       55.970       57.457       39.333     3132.695     3301.252     1547.057        1.612        0.399      151.576       19.738        0.017      344.816       21.900      860.113
06/21/2013  20:36:00      -82.561       82.835      -10.271       65.648       93.985       42.160     4309.639     8833.193     1777.495        1.435        0.746      116.953       37.657        0.104      344.810       21.893      860.133
06/21/2013  20:37:00     -180.368      134.771      -44.520       68.603       94.647       44.961     4706.315     8958.006     2021.535        3.418        0.784      225.158       22.612        0.010      344.805       21.879      860.167
06/21/2013  20:38:00      -86.469      114.513       -8.338       54.746       93.051       43.268     2997.108     8658.524     1872.097        1.709        0.676      143.492       31.099        0.047      344.739       21.770      860.176
06/21/2013  20:39:00      -73.145       -7.982        4.046       45.456       38.065       32.206     2066.271     1448.944     1037.200        0.499        0.228       73.579       19.590        0.071      344.796       21.869      860.179
06/21/2013  20:40:00     -117.788      -54.398       -7.494       65.514       52.461       29.570     4292.022     2752.107      874.407        1.240        0.396      129.743       31.029        0.057      344.695       21.695      860.196
06/21/2013  20:41:00     -140.726       11.330       -9.365       39.549       58.556       30.735     1564.122     3428.748      944.631        1.298        0.297      141.181       21.284        0.023      344.670       21.653      860.198
06/21/2013  20:42:00     -164.953      -34.523      -14.217       49.523       45.854       31.665     2452.520     2102.589     1002.644        1.708        0.278      168.527       29.198        0.030      344.599       21.531      860.206
06/21/2013  20:43:00     -203.576      -82.590        1.329       75.306       59.682       35.028     5670.970     3561.984     1226.944        2.936        0.523      219.691       29.906        0.019      344.539       21.426      860.205
06/21/2013  20:44:00     -229.804      -54.862       -2.668       96.482       70.576       47.723     9308.724     4981.002     2277.439        3.619        0.828      236.262       51.837        0.048      344.464       21.297      860.206
06/21/2013  20:45:00     -224.771      -69.446       -8.062       85.160       57.646       28.078     7252.301     3323.093      788.391        3.338        0.568      235.255       23.139        0.010      344.489       21.339      860.217
06/21/2013  20:46:00     -155.581      -15.307      -18.656       60.296       62.012       36.799     3635.608     3845.539     1354.133        1.681        0.442      156.332       39.552        0.064      344.499       21.360      860.214
06/21/2013  20:47:00     -199.303      -15.663      -14.183      107.911       73.567       41.103    11644.805     5412.173     1689.426        2.945        0.937      199.917       32.801        0.027      344.465       21.300      860.230
06/21/2013  20:48:00     -258.228      -58.711      -26.897       71.611       70.424       34.710     5128.131     4959.479     1204.758        4.107        0.565      264.818       25.438        0.009      344.425       21.230      860.242
06/21/2013  20:49:00     -169.500       -9.965       -5.363       59.794       55.378       31.538     3575.338     3066.742      994.650        1.825        0.382      169.792       31.222        0.034      344.393       21.178      860.258
06/21/2013  20:50:00     -172.373       -8.682      -10.575       56.403       37.595       31.744     3181.346     1413.410     1007.658        1.775        0.280      172.592       27.439        0.025      344.364       21.132      860.279
06/21/2013  20:51:00      -98.844        7.829      -14.733       52.396       60.938       26.144     2745.377     3713.497      683.525        0.859        0.357       99.153       20.845        0.044      344.343       21.093      860.281
06/21/2013  20:52:00      -86.289      -26.022       -3.334       49.149       52.304       30.217     2415.638     2735.678      913.067        0.710        0.303       90.128       27.126        0.091      344.355       21.115      860.296
06/21/2013  20:53:00     -185.429      -17.589      -21.667       70.173       50.044       37.457     4924.218     2504.364     1403.008        2.200        0.442      186.261       34.090        0.033      344.375       21.145      860.294
06/21/2013  20:54:00     -108.152       -0.182       -6.669       47.661       51.839       27.109     2271.576     2687.271      734.909        0.872        0.285      108.152       21.410        0.039      344.297       21.018      860.296
06/21/2013  20:55:00     -170.833      -40.197      -12.655       58.109       71.777       32.359     3376.648     5151.914     1047.126        2.027        0.479      175.499       22.313        0.016      344.265       20.961      860.304
06/21/2013  20:56:00     -212.401      -60.864       -1.598       74.632       71.342       40.804     5569.988     5089.655     1664.971        3.057        0.616      220.949       43.754        0.039      344.235       20.906      860.310
06/21/2013  20:57:00     -230.282      -49.807      -20.442       80.301       55.989       38.396     6448.314     3134.747     1474.241        3.349        0.553      235.606       35.327        0.022      344.258       20.947      860.322
06/21/2013  20:58:00     -188.354      -42.123       -0.552       61.934       63.825       37.243     3835.794     4073.617     1387.034        2.327        0.465      193.007       33.025        0.029      344.244       20.922      860.325
06/21/2013  20:59:00     -141.311      -18.859      -20.587       54.284       56.686       32.713     2946.698     3213.305     1070.153        1.399        0.362      142.564       21.691        0.023      344.250       20.934      860.337
06/21/2013  21:00:00     -152.411       -9.167      -23.251       62.066       56.405       28.060     3852.232     3181.547      787.369        1.584        0.391      152.686       20.783        0.019      344.213       20.869      860.360
06/21/2013  21:01:00     -135.970       17.244      -16.582       61.230       34.792       29.313     3749.089     1210.457      859.264        1.244        0.291      137.059       24.294        0.031      344.241       20.919      860.370
06/21/2013  21:02:00     -156.398      -48.820      -18.095       83.039       70.155       37.739     6895.434     4921.702     1424.218        2.020        0.662      163.840       33.170        0.041      344.194       20.839      860.386
06/21/2013  21:03:00     -167.165      -56.473       -8.595       70.602       51.786       30.750     4984.580     2681.804      945.579        1.991        0.431      176.446       32.947        0.035      344.165       20.788      860.396
06/21/2013  21:04:00     -137.866      -14.618      -11.825       44.775       61.921       22.494     2004.831     3834.257      505.964        1.285        0.317      138.639       19.709        0.020      344.183       20.820      860.396
06/21/2013  21:05:00     -166.005      -21.640       -8.016       68.577       72.158       31.592     4702.808     5206.745      998.061        1.950        0.545      167.410       37.568        0.050      344.176       20.808      860.421
06/21/2013  21:06:00     -128.450      -28.931       -2.421       62.797       49.649       28.756     3943.453     2465.061      826.936        1.229        0.362      131.668       25.672        0.038      344.121       20.717      860.433
06/21/2013  21:07:00     -162.014      -52.377      -14.441      103.139       63.330       35.491    10637.652     4010.628     1259.642        2.255        0.795      170.270       33.791        0.039      344.111       20.698      860.440
06/21/2013  21:08:00     -150.093        7.690      -15.005       56.805       51.570       35.774     3226.860     2659.418     1279.770        1.499        0.358      150.290       34.075        0.051      344.102       20.682      860.449
06/21/2013  21:09:00     -134.439       49.995       -9.170       59.268       51.865       38.057     3512.735     2689.935     1448.309        1.415        0.383      143.434       31.565        0.048      344.102       20.681      860.469
06/21/2013  21:10:00      -91.288      -12.510       -2.884       51.701       62.223       33.263     2672.984     3871.698     1106.398        0.807        0.383       92.141       24.816        0.073      344.068       20.624      860.488
06/21/2013  21:11:00     -139.243      -25.186      -21.225       68.708       56.097       33.416     4720.748     3146.819     1116.656        1.473        0.449      141.503       27.323        0.037      344.070       20.627      860.501
06/21/2013  21:12:00     -142.258       26.625      -24.287       66.499       79.727       32.776     4422.180     6356.378     1074.243        1.669        0.593      144.728       28.489        0.039      344.068       20.623      860.524
06/21/2013  21:13:00     -133.491       22.568      -12.558       78.191       73.778       54.144     6113.831     5443.185     2931.624        1.648        0.724      135.385       45.851        0.115      344.087       20.656      860.546
06/21/2013  21:14:00     -192.761      128.299      -39.107       68.726       81.152       44.973     4723.262     6585.595     2022.549        3.424        0.667      231.555       45.993        0.039      344.118       20.708      860.570
06/21/2013  21:15:00     -113.041        5.217      -11.716       64.430       70.527       31.745     4151.175     4974.061     1007.717        1.154        0.507      113.161       30.723        0.074      344.067       20.623      860.586
06/21/2013  21:16:00      -96.590        3.640       -0.374       51.703       69.685       29.662     2673.211     4855.977      879.836        0.887        0.420       96.658       25.024        0.067      344.031       20.562      860.605
06/21/2013  21:17:00      -41.341      -13.000       -2.030       69.183       40.588       36.200     4786.248     1647.369     1310.435        0.481        0.387       43.337       41.790        0.930      344.013       20.531      860.619
06/21/2013  21:18:00     -155.626      -23.836       -4.784      102.985       42.799       37.753    10605.872     1831.774     1425.296        1.933        0.693      157.441       51.099        0.105      343.972       20.458      860.637
06/21/2013  21:19:00     -200.630      -44.529      -13.667       68.702       44.965       34.469     4719.983     2021.895     1188.101        2.517        0.396      205.512       33.187        0.026      343.932       20.390      860.664
06/21/2013  21:20:00     -160.688      -17.747       -7.984       88.415       58.114       37.163     7817.244     3377.251     1381.100        1.939        0.629      161.665       39.576        0.060      343.896       20.329      860.671
06/21/2013  21:21:00     -161.966       22.388      -12.053       73.840       49.239       25.804     5452.360     2424.457      665.856        1.771        0.427      163.506       13.922        0.007      343.878       20.298      860.691
06/21/2013  21:22:00     -155.581      -62.170      -19.567       83.437       73.219       40.499     6961.717     5360.958     1640.204        2.121        0.698      167.543       39.147        0.055      343.879       20.300      860.696
06/21/2013  21:23:00     -272.276      -22.081      -20.901       97.291      135.484       46.292     9465.485    18355.805     2142.972        5.251        1.498      273.170       53.381        0.038      343.871       20.286      860.709
06/21/2013  21:24:00     -300.978       25.179      -42.283      101.950       76.300       44.896    10393.773     5821.618     2015.647        5.562        0.912      302.029       41.249        0.019      343.864       20.274      860.719
06/21/2013  21:25:00     -316.888      -48.519      -12.586       84.120       83.894       54.274     7076.135     7038.150     2945.652        5.999        0.853      320.581       43.478        0.018      343.878       20.297      860.731
06/21/2013  21:26:00     -155.784      -24.522       -0.911       63.017       77.238       36.535     3971.171     5965.761     1334.780        1.807        0.564      157.702       35.479        0.051      343.826       20.210      860.728
06/21/2013  21:27:00     -201.861      -14.351      -17.396       70.861       62.690       40.619     5021.232     3929.980     1649.868        2.593        0.530      202.370       27.619        0.019      343.818       20.195      860.734
06/21/2013  21:28:00     -164.771      -77.340       -2.822       78.485       71.933       44.159     6159.835     5174.368     1950.031        2.321        0.664      182.019       43.023        0.056      343.852       20.254      860.738
06/21/2013  21:29:00     -250.741      -63.524      -17.612      100.514       66.164       45.629    10103.145     4377.690     2082.011        4.189        0.828      258.662       48.384        0.035      343.880       20.301      860.760
06/21/2013  21:30:00     -230.845      -47.098      -12.037      112.500       71.795       55.128    12656.172     5154.470     3039.072        3.825        1.042      235.600       64.275        0.074      343.866       20.278      860.769
06/21/2013  21:31:00     -206.014      -94.031      -18.600      124.909       83.480       47.241    15602.204     6968.959     2231.668        3.821        1.240      226.459       31.414        0.019      343.895       20.326      860.769
06/21/2013  21:32:00     -277.775      -66.835      -12.440      125.739      115.952       55.660    15810.198    13444.800     3097.995        5.706        1.618      285.702       50.778        0.032      343.919       20.366      860.775
06/21/2013  21:33:00     -243.418      -97.830      -13.438       93.838       72.312       40.948     8805.612     5229.082     1676.723        4.235        0.786      262.342       44.933        0.029      343.913       20.355      860.792
06/21/2013  21:34:00     -222.946      -40.480      -17.749      121.081       83.943       43.336    14660.658     7046.428     1878.023        3.762        1.179      226.591       54.992        0.059      343.915       20.360      860.803
06/21/2013  21:35:00     -200.710      -44.038        1.861      103.556       73.504       49.992    10723.937     5402.850     2499.192        3.042        0.931      205.485       50.061        0.059      343.900       20.335      860.813
06/21/2013  21:36:00     -308.113        2.731      -30.238      107.100       81.497       40.167    11470.345     6641.722     1613.403        5.779        0.986      308.125       44.924        0.021      343.925       20.377      860.829
06/21/2013  21:37:00     -225.426      -75.370       -3.668      114.382       88.426       49.443    13083.271     7819.194     2444.612        3.992        1.167      237.692       56.010        0.056      343.883       20.304      860.846
06/21/2013  21:38:00     -240.225      -41.316       -6.771      112.449       74.301       47.172    12644.828     5520.683     2225.168        3.992        1.020      243.752       49.527        0.041      343.894       20.324      860.851
06/21/2013  21:39:00     -223.053      -18.281      -12.975      100.261       56.905       37.379    10052.205     3238.231     1397.154        3.247        0.734      223.801       40.529        0.033      343.888       20.317      860.859
06/21/2013  21:40:00     -284.667      -89.959       -5.060      110.043       85.529       47.895    12109.480     7315.171     2293.888        5.543        1.086      298.543       53.340        0.032      343.950       20.420      860.875
06/21/2013  21:41:00     -226.087      -86.690      -10.045       81.894       70.693       42.313     6706.692     4997.530     1790.426        3.611        0.675      242.138       44.278        0.033      343.909       20.351      860.899
06/21/2013  21:42:00     -177.310      -31.631        6.477       75.042       56.891       37.084     5631.371     3236.603     1375.252        2.136        0.512      180.110       41.352        0.053      343.885       20.311      860.918
06/21/2013  21:43:00     -214.235      -40.342       -5.713       67.503       47.897       37.300     4556.644     2294.150     1391.254        2.790        0.412      218.001       30.964        0.020      343.906       20.344      860.933
06/21/2013  21:44:00     -146.450       -8.241       -2.185       73.649       41.476       36.543     5424.180     1720.235     1335.382        1.500        0.424      146.682       37.867        0.067      343.881       20.304      860.943
06/21/2013  21:45:00     -110.031      -27.117        8.895       51.809       58.056       33.782     2684.208     3370.548     1141.224        1.006        0.360      113.323       32.762        0.084      343.850       20.251      860.956
06/21/2013  21:46:00     -215.694      -63.360       -6.371       76.042       63.214       37.896     5782.389     3996.037     1436.073        3.089        0.561      224.807       31.519        0.020      343.877       20.296      860.973
06/21/2013  21:47:00     -205.740      -20.133      -16.136       78.830       44.941       40.959     6214.138     2019.702     1677.606        2.645        0.496      206.723       44.167        0.046      343.838       20.229      860.996
06/21/2013  21:48:00     -277.229      -40.237      -17.408       83.144       52.288       37.064     6912.884     2733.983     1373.756        4.490        0.551      280.134       40.020        0.020      343.853       20.256      861.017
06/21/2013  21:49:00     -261.438     -121.336       -9.915       72.460       54.097       40.078     5250.478     2926.510     1606.252        4.647        0.489      288.223       38.820        0.018      343.841       20.234      861.041
06/21/2013  21:50:00     -165.094      -56.164       10.595       96.993       66.698       41.480     9407.616     4448.642     1720.594        2.305        0.779      174.386       45.104        0.067      343.797       20.161      861.065
06/21/2013  21:51:00     -219.518      -33.623        1.233      111.301       61.800       46.900    12387.853     3819.254     2199.631        3.386        0.920      222.078       57.094        0.066      343.820       20.197      861.093
06/21/2013  21:52:00     -237.621       -7.263      -13.380       83.738       52.572       35.633     7012.033     2763.827     1269.716        3.387        0.552      237.732       30.762        0.017      343.830       20.215      861.111
06/21/2013  21:53:00     -219.585      -55.289      -11.367       71.084       45.254       33.759     5052.918     2047.881     1139.679        2.982        0.412      226.438       30.135        0.018      343.820       20.198      861.134
06/21/2013  21:54:00     -197.601      -55.911       -7.734       61.607       44.227       31.609     3795.447     1956.001      999.110        2.449        0.338      205.359       26.824        0.017      343.803       20.169      861.160
06/21/2013  21:55:00     -164.411      -78.308        0.838       44.596       50.658       34.484     1988.803     2566.283     1189.132        1.945        0.287      182.107       28.087        0.024      343.791       20.150      861.168
06/21/2013  21:56:00     -189.404      -12.314        2.112       84.445       65.879       39.387     7130.986     4339.988     1551.305        2.452        0.651      189.804       44.685        0.055      343.762       20.100      861.198
06/21/2013  21:57:00     -258.259      -63.853       -7.328       89.772       56.957       40.831     8058.937     3244.150     1667.170        4.190        0.649      266.036       43.261        0.026      343.788       20.145      861.214
06/21/2013  21:58:00     -184.387      -11.572       -6.011      105.430       97.757       54.682    11115.554     9556.486     2990.117        2.891        1.183      184.750       53.761        0.085      343.767       20.108      861.230
06/21/2013  21:59:00     -148.941      -50.388       -9.313       98.539       63.803       38.126     9709.902     4070.885     1453.556        2.002        0.762      157.233       42.136        0.072      343.756       20.090      861.245
06/21/2013  22:00:00      -90.700        6.380       10.428       98.423       59.308       38.926     9687.164     3517.398     1515.220        1.155        0.736       90.924       46.559        0.262      343.720       20.029      861.250
06/21/2013  22:01:00     -229.110      -38.460      -10.540       93.550       61.281       35.590     8751.582     3755.370     1266.634        3.392        0.689      232.315       44.809        0.037      343.756       20.088      861.289
06/21/2013  22:02:00     -216.793      -23.551      -13.307       90.146       73.088       40.771     8126.325     5341.819     1662.251        3.143        0.757      218.068       40.958        0.035      343.741       20.062      861.312
06/21/2013  22:03:00     -100.171        0.872       -8.031       72.491       87.639       41.540     5254.948     7680.641     1725.536        1.238        0.733      100.175       35.085        0.123      343.714       20.020      861.320
06/21/2013  22:04:00     -128.271      -40.088      -18.364       80.391       49.473       32.046     6462.784     2447.602     1026.940        1.417        0.497      134.389       27.926        0.043      343.718       20.026      861.336
06/21/2013  22:05:00      -76.675      -31.349       -0.212       98.967       44.326       27.980     9794.423     1964.789      782.862        0.970        0.627       82.836       29.864        0.130      343.750       20.081      861.343
06/21/2013  22:06:00     -154.228      -25.923       -9.007       97.182       54.290       31.161     9444.345     2947.355      971.038        1.895        0.668      156.391       35.176        0.051      343.657       19.921      861.355
06/21/2013  22:07:00     -209.228        4.261      -18.956       72.271       52.967       33.971     5223.125     2805.469     1154.011        2.667        0.459      209.271       35.898        0.029      343.621       19.859      861.361
06/21/2013  22:08:00     -210.692      -41.261      -10.067       61.732       42.256       30.082     3810.838     1785.587      904.910        2.635        0.325      214.695       27.576        0.016      343.633       19.881      861.373
06/21/2013  22:09:00     -175.010      -26.475      -14.397       87.692       68.569       39.721     7689.829     4701.766     1577.728        2.275        0.698      177.001       33.623        0.036      343.574       19.779      861.379
06/21/2013  22:10:00      -87.330      -21.368        7.735       53.077       42.132       31.217     2817.204     1775.142      974.486        0.685        0.278       89.906       28.619        0.101      343.549       19.739      861.388
06/21/2013  22:11:00     -126.865       17.608       -9.368       56.972       71.315       33.973     3245.805     5085.892     1154.179        1.299        0.474      128.081       24.301        0.036      343.547       19.735      861.405
06/21/2013  22:12:00     -164.402        4.021      -19.078       51.727       60.531       27.552     2675.655     3663.975      759.111        1.725        0.355      164.451       24.007        0.021      343.545       19.730      861.405
06/21/2013  22:13:00     -161.905      -53.048        5.038      102.194       69.774       41.854    10443.604     4868.453     1751.747        2.305        0.853      170.374       48.067        0.080      343.477       19.615      861.421
06/21/2013  22:14:00      -63.102       12.951       10.158       64.321       46.114       33.866     4137.136     2126.511     1146.927        0.583        0.371       64.417       34.134        0.281      343.368       19.430      861.435
06/21/2013  22:15:00     -106.600      -46.923        2.343       70.247       51.015       33.955     4934.656     2602.570     1152.974        1.113        0.435      116.471       32.885        0.080      343.420       19.520      861.434
06/21/2013  22:16:00     -167.965      -34.881      -11.576       73.875       46.922       39.302     5457.522     2201.678     1544.663        1.938        0.460      171.548       38.953        0.052      343.384       19.455      861.447
06/21/2013  22:17:00     -113.459       28.357       -5.416       64.199       59.783       35.193     4121.472     3574.060     1238.531        1.132        0.447      116.949       39.146        0.112      343.343       19.389      861.452
06/21/2013  22:18:00      -13.463      -29.216        4.348       65.869       51.746       28.137     4338.673     2677.642      791.695        0.443        0.390       32.168       33.019        1.054      343.403       19.490      861.445
06/21/2013  22:19:00     -108.795      -45.773       -0.671       60.288       45.480       26.452     3634.609     2068.403      699.732        1.017        0.320      118.032       21.842        0.034      343.344       19.389      861.469
06/21/2013  22:20:00      -59.982      -18.509        3.051       42.421       35.217       21.770     1799.562     1240.228      473.949        0.373        0.176       62.772       22.765        0.132      343.269       19.261      861.466
06/21/2013  22:21:00     -120.126       -0.004      -24.766       49.551       65.149       26.859     2455.256     4244.439      721.413        1.123        0.371      120.126       18.404        0.023      343.432       19.539      861.490
06/21/2013  22:22:00     -163.069      -40.667      -14.465       44.953       51.667       22.325     2020.792     2669.460      498.401        1.682        0.259      168.063       19.341        0.013      343.311       19.331      861.504
06/21/2013  22:23:00      -92.225       -8.394       -0.532       40.913       32.218       21.026     1673.854     1038.012      442.099        0.586        0.158       92.606       21.719        0.055      343.256       19.241      861.510
06/21/2013  22:24:00      -91.417      -68.819        5.945       42.925       36.998       25.316     1842.572     1368.863      640.883        0.849        0.193      114.425       15.282        0.018      343.355       19.408      861.528
06/21/2013  22:25:00      -81.242      -52.143       -0.876       68.975       53.259       34.075     4757.497     2836.504     1161.099        0.904        0.438       96.536       38.941        0.163      343.360       19.417      861.530
06/21/2013  22:26:00      -26.779      -29.087       10.926       62.042       30.228       28.692     3849.182      913.702      823.216        0.363        0.279       39.537       27.491        0.483      343.240       19.212      861.536
06/21/2013  22:27:00      -36.501      -21.004       13.774       47.554       48.650       30.004     2261.417     2366.819      900.237        0.374        0.276       42.113       31.140        0.547      343.152       19.063      861.547
06/21/2013  22:28:00     -109.553      -78.767       -0.360       48.399       32.594       27.951     2342.499     1062.363      781.242        1.120        0.209      134.930       27.590        0.042      343.221       19.180      861.546
06/21/2013  22:29:00      -55.191      -30.130        8.041       25.430       35.729       19.282      646.680     1276.552      371.801        0.316        0.115       62.879       12.101        0.037      343.168       19.090      861.536
06/21/2013  22:30:00     -115.872       -9.002       -2.556       57.283       34.905       25.396     3281.341     1218.359      644.946        0.933        0.257      116.222       25.742        0.049      343.164       19.083      861.557
06/21/2013  22:31:00      -90.890       -7.368      -15.519       31.801       23.964       18.191     1011.299      574.251      330.911        0.524        0.096       91.188       12.704        0.019      343.200       19.144      861.543
06/21/2013  22:32:00      -90.915      -27.273       -1.729       43.673       31.219       18.385     1907.356      974.620      338.021        0.612        0.161       94.918       14.947        0.025      343.209       19.160      861.545
06/21/2013  22:33:00      -91.702      -30.022      -18.606       38.373       47.232       31.746     1472.474     2230.853     1007.822        0.718        0.236       96.491       20.660        0.046      343.267       19.259      861.551
06/21/2013  22:34:00     -107.101       -0.633      -31.095       59.814       49.296       41.439     3577.679     2430.099     1717.202        1.008        0.386      107.103       32.600        0.093      343.253       19.233      861.532
06/21/2013  22:35:00      -99.739      -26.903       -7.976       41.250       50.227       23.553     1701.531     2522.795      554.754        0.776        0.239      103.303       15.676        0.023      343.214       19.169      861.547
06/21/2013  22:36:00      -41.228      -31.504       -7.857       60.403       29.978       23.453     3648.474      898.660      550.039        0.392        0.255       51.887       23.025        0.197      343.204       19.153      861.544
06/21/2013  22:37:00      -89.700        3.964       14.616       74.463       50.089       40.354     5544.789     2508.893     1628.444        0.898        0.484       89.787       48.579        0.293      343.206       19.153      861.537
06/21/2013  22:38:00      -37.778       40.097        0.543       30.980       35.062       23.585      959.780     1229.316      556.258        0.289        0.137       55.091       25.613        0.216      343.076       18.933      861.563
06/21/2013  22:39:00       -5.954        6.767        7.107       45.895       26.221       24.090     2106.310      687.533      580.342        0.175        0.169        9.013       24.893        7.628      343.144       19.051      861.566
06/21/2013  22:40:00       16.571       34.433        7.744       16.696       24.200       17.270      278.744      585.640      298.257        0.134        0.058       38.213       13.745        0.129      343.077       18.934      861.574
06/21/2013  22:41:00       28.656       19.216       16.158       33.467       20.570       16.770     1120.064      423.143      281.233        0.164        0.091       34.503       17.429        0.255      343.116       19.002      861.581
06/21/2013  22:42:00        5.389       30.837       -5.412       42.569       28.894       22.918     1812.081      834.852      525.223        0.209        0.159       31.304       19.387        0.384      343.149       19.059      861.594
06/21/2013  22:43:00       -7.011       18.489        4.758       61.096       31.334       18.052     3732.772      981.802      325.879        0.273        0.252       19.774       21.681        1.202      343.224       19.185      861.593
06/21/2013  22:44:00        4.942       83.457       -9.172       31.281       29.996       25.820      978.512      899.732      666.675        0.481        0.127       83.603       19.045        0.052      343.086       18.951      861.603
06/21/2013  22:45:00       -3.299       70.971        1.949       26.675       52.953       27.877      711.572     2803.978      777.106        0.467        0.215       71.048       32.014        0.203      343.046       18.882      861.611
06/21/2013  22:46:00      -55.779      -11.562        8.200       34.826       46.160       25.076     1212.859     2130.709      628.818        0.364        0.199       56.964       21.975        0.149      343.135       19.034      861.609
06/21/2013  22:47:00      -46.212       51.352       -9.901       34.978       43.624       28.933     1223.468     1903.042      837.119        0.442        0.198       69.084       28.610        0.172      343.080       18.939      861.625
06/21/2013  22:48:00      -74.877       79.104      -11.285       52.218       61.747       31.711     2726.731     3812.693     1005.563        0.977        0.377      108.922       29.919        0.075      343.153       19.064      861.629
06/21/2013  22:49:00      -74.218       54.811       -6.519       68.280       76.451       47.851     4662.093     5844.704     2289.704        1.067        0.640       92.263       47.835        0.269      343.049       18.886      861.627
06/21/2013  22:50:00      -10.735      114.678       -8.964       50.064       43.643       30.681     2506.419     1904.714      941.323        0.935        0.268      115.179       28.291        0.060      343.031       18.856      861.635
06/21/2013  22:51:00      -33.621      166.079       -9.263       58.939       68.288       36.015     3473.803     4663.249     1297.053        1.911        0.472      169.448       38.450        0.051      342.986       18.779      861.638
06/21/2013  22:52:00      -52.102       21.678      -11.035       37.307       31.112       26.418     1391.801      967.946      697.914        0.318        0.153       56.432       20.683        0.134      343.063       18.911      861.643
06/21/2013  22:53:00      -97.299       91.145      -17.261       72.795       94.468       42.662     5299.161     8924.265     1820.067        1.705        0.802      133.321       35.737        0.072      343.130       19.025      861.650
06/21/2013  22:54:00      -80.297      161.710      -26.444       81.212       57.421       41.680     6595.453     3297.143     1737.182        2.246        0.581      180.549       36.254        0.040      343.088       18.952      861.645
06/21/2013  22:55:00      -43.356      108.918        1.870       47.648       77.354       36.123     2270.376     5983.567     1304.863        1.165        0.478      117.230       32.690        0.078      342.953       18.722      861.637
06/21/2013  22:56:00      -58.494      171.174      -27.502       47.827       68.728       33.232     2287.415     4723.558     1104.354        2.080        0.406      180.892       14.924        0.007      343.037       18.864      861.649
06/21/2013  22:57:00     -104.271      209.640      -25.110       83.292       88.595       52.698     6937.546     7849.103     2777.086        3.650        0.878      234.140       55.126        0.055      343.000       18.802      861.655
06/21/2013  22:58:00      -74.351      181.893      -23.811       71.561       85.682       42.096     5120.981     7341.419     1772.051        2.670        0.712      196.502       42.594        0.047      343.018       18.831      861.659
06/21/2013  22:59:00      -53.685      169.281      -25.363       71.975       83.445       31.966     5180.414     6963.066     1021.820        2.267        0.658      177.590       33.111        0.035      343.026       18.846      861.658
06/21/2013  23:00:00      -50.397      228.033      -23.997       55.087      105.713       36.309     3034.566    11175.226     1318.349        3.532        0.776      233.535       36.123        0.024      342.953       18.720      861.658
06/21/2013  23:01:00     -123.521      240.820      -27.486       98.948      157.111       60.254     9790.772    24683.750     3630.601        5.605        1.905      270.651       55.650        0.042      342.992       18.788      861.657
06/21/2013  23:02:00      -83.810      201.546      -17.893       68.377      130.675       41.227     4675.356    17075.915     1699.657        3.570        1.173      218.277       39.627        0.033      342.962       18.736      861.667
06/21/2013  23:03:00      -62.581      212.249      -18.679       59.696       76.572       50.128     3563.643     5863.222     2512.780        3.062        0.597      221.283       50.629        0.052      342.918       18.662      861.661
06/21/2013  23:04:00     -142.415      178.951      -35.853      105.922       79.274       54.334    11219.487     6284.323     2952.142        3.702        1.023      228.704       46.545        0.041      342.963       18.738      861.659
06/21/2013  23:05:00     -137.920      182.725      -24.475      102.466      101.235       62.251    10499.312    10248.544     3875.201        3.881        1.231      228.933       72.163        0.099      342.956       18.726      861.669
06/21/2013  23:06:00      -96.271      198.796      -29.544       92.308       83.162       35.646     8520.845     6915.979     1270.622        3.318        0.835      220.880       32.218        0.021      342.961       18.733      861.674
06/21/2013  23:07:00      -34.346      154.363      -12.951       44.367       63.810       30.929     1968.396     4071.720      956.606        1.608        0.350      158.138       33.660        0.045      342.881       18.600      861.675
06/21/2013  23:08:00      -47.112      189.601      -12.592       46.311       69.597       25.031     2144.729     4843.803      626.555        2.297        0.381      195.366       24.498        0.016      342.893       18.619      861.692
06/21/2013  23:09:00      -94.807      173.368      -23.170       43.636       66.843       36.577     1904.120     4468.049     1337.899        2.364        0.386      197.597       29.568        0.022      342.869       18.579      861.693
06/21/2013  23:10:00       -4.086      118.323       -6.817       23.889       49.413       22.050      570.663     2441.670      486.185        0.878        0.175      118.394       22.594        0.036      342.802       18.467      861.698
06/21/2013  23:11:00        4.316      131.787      -15.931       36.852       40.647       21.168     1358.044     1652.192      448.099        1.055        0.173      131.857       19.698        0.022      342.723       18.332      861.708
06/21/2013  23:12:00      -13.079      125.684      -10.873       46.123       74.797       31.258     2127.365     5594.651      977.055        1.239        0.435      126.363       39.226        0.096      342.699       18.291      861.705
06/21/2013  23:13:00       25.357       31.019       19.903       39.343       47.024       33.622     1547.883     2211.268     1130.422        0.344        0.244       40.064       23.157        0.334      342.592       18.109      861.721
06/21/2013  23:14:00        5.433       40.369        6.023       28.726       34.871       22.060      825.171     1216.018      486.631        0.211        0.126       40.733       13.245        0.106      342.588       18.104      861.723
06/21/2013  23:15:00       24.269      167.320      -13.945       49.614       84.905       45.298     2461.508     7208.929     2051.908        2.025        0.586      169.071       44.594        0.070      342.667       18.235      861.715
06/21/2013  23:16:00       25.620      255.846      -34.307       61.000       63.256       40.888     3720.988     4001.304     1671.791        3.834        0.470      257.126       35.459        0.019      342.711       18.307      861.726
06/21/2013  23:17:00        3.114      130.669        0.572       51.429      111.661       54.579     2644.925    12468.203     2978.920        1.758        0.905      130.706       67.395        0.266      342.547       18.031      861.744
06/21/2013  23:18:00       -6.947      194.851      -25.963       36.138       64.012       25.704     1305.973     4097.557      660.684        2.238        0.303      194.975       27.688        0.020      342.602       18.124      861.747
06/21/2013  23:19:00      -40.492      154.257      -16.647       73.698       82.570       41.874     5431.357     6817.775     1753.464        1.985        0.700      159.483       43.615        0.075      342.553       18.042      861.759
06/21/2013  23:20:00      -55.148      187.589      -19.183       54.211       58.487       31.745     2938.808     3420.755     1007.759        2.298        0.368      195.528       13.453        0.005      342.601       18.124      861.780
06/21/2013  23:21:00      -93.601      165.047      -15.170       69.756       90.228       50.292     4865.921     8141.009     2529.243        2.588        0.777      189.741       47.485        0.063      342.631       18.174      861.774
06/21/2013  23:22:00      -35.933      178.138      -17.024       69.081       67.217       41.187     4772.124     4518.166     1696.389        2.215        0.549      181.726       38.450        0.045      342.643       18.193      861.787
06/21/2013  23:23:00      -56.531      208.628      -32.309       61.997       65.249       30.934     3843.665     4257.420      956.895        2.841        0.453      216.151       32.329        0.022      342.656       18.217      861.790
06/21/2013  23:24:00      -99.517      203.727      -25.083       64.138       83.786       40.795     4113.650     7020.152     1664.243        3.242        0.640      226.734       32.355        0.020      342.642       18.190      861.781
06/21/2013  23:25:00      -40.778      163.693      -16.312       46.517       62.338       39.617     2163.821     3885.983     1569.539        1.817        0.381      168.696       36.653        0.047      342.631       18.173      861.801
06/21/2013  23:26:00      -28.157      148.448       -0.631       41.190       74.457       36.970     1696.624     5543.918     1366.771        1.572        0.430      151.095       41.252        0.075      342.586       18.098      861.801
06/21/2013  23:27:00      -76.328      172.355      -16.476       33.970       56.191       31.834     1153.931     3157.418     1013.406        2.056        0.266      188.500       28.132        0.022      342.593       18.109      861.797
06/21/2013  23:28:00      -27.096      186.314      -29.613       67.344       65.236       25.933     4535.177     4255.737      672.513        2.289        0.473      188.274       28.292        0.023      342.605       18.129      861.818
06/21/2013  23:29:00       -7.338      210.423      -25.358       56.485       62.427       38.194     3190.533     3897.137     1458.815        2.676        0.427      210.551       35.814        0.029      342.552       18.037      861.817
06/21/2013  23:30:00      -71.551      199.757      -18.172       49.583      110.743       37.610     2458.460    12263.978     1414.523        3.074        0.807      212.185       48.760        0.053      342.523       17.990      861.816
06/21/2013  23:31:00      -56.137      187.248      -21.256       41.124       53.214       28.525     1691.154     2831.765      813.671        2.200        0.267      195.482       24.856        0.016      342.486       17.929      861.814
06/21/2013  23:32:00      -69.132      120.420       -8.692       65.162       74.778       38.311     4246.090     5591.721     1467.714        1.533        0.565      138.853       33.983        0.060      342.495       17.944      861.824
06/21/2013  23:33:00     -114.542      178.590      -30.472       52.229       78.443       41.571     2727.828     6153.316     1728.170        2.827        0.530      212.165       43.672        0.042      342.517       17.979      861.827
06/21/2013  23:34:00      -96.250      154.344      -29.080       53.840       57.908       30.154     2898.761     3353.307      909.240        2.055        0.358      181.896       27.868        0.023      342.498       17.947      861.834
06/21/2013  23:35:00     -108.909      174.065      -34.180       69.743      119.459       42.342     4864.111    14270.561     1792.836        3.212        1.046      205.329       46.155        0.051      342.525       17.995      861.832
06/21/2013  23:36:00     -117.346      190.045      -23.982       61.758       70.982       33.187     3814.074     5038.397     1101.384        3.021        0.498      223.354       29.926        0.018      342.480       17.916      861.834
06/21/2013  23:37:00     -118.677      102.859      -25.961       44.634       49.760       29.358     1992.170     2476.069      861.912        1.533        0.267      157.049       21.317        0.018      342.490       17.935      861.828
06/21/2013  23:38:00     -114.140       92.598      -21.547       57.084       57.378       35.421     3258.592     3292.224     1254.637        1.493        0.390      146.977       34.918        0.056      342.478       17.915      861.836
06/21/2013  23:39:00     -173.240      154.067      -27.958       60.802      144.631       37.447     3696.881    20918.267     1402.277        4.027        1.301      231.838       41.123        0.031      342.554       18.043      861.833
06/21/2013  23:40:00     -160.995      150.428      -28.178       60.909       71.124       36.794     3709.850     5058.652     1353.771        2.973        0.506      220.337       25.358        0.013      342.513       17.972      861.822
06/21/2013  23:41:00     -164.093      110.392      -31.249       60.513       59.858       29.397     3661.819     3583.016      864.164        2.410        0.405      197.770       29.629        0.022      342.483       17.923      861.820
06/21/2013  23:42:00     -178.889      143.005      -32.346       78.433       91.719       40.642     6151.810     8412.440     1651.733        3.485        0.811      229.023       41.526        0.033      342.489       17.930      861.824
06/21/2013  23:43:00     -120.837      163.104      -20.901       66.214       76.335       51.479     4384.339     5826.990     2650.097        2.725        0.643      202.989       44.525        0.048      342.424       17.821      861.816
06/21/2013  23:44:00      -82.965       24.662        4.674       58.628       87.215       34.863     3437.293     7606.507     1215.409        0.988        0.613       86.553       35.464        0.168      342.411       17.801      861.808
06/21/2013  23:45:00     -140.925       79.950      -27.657       59.555       83.880       34.218     3546.745     7035.904     1170.855        1.938        0.588      162.024       28.717        0.031      342.476       17.909      861.800
06/21/2013  23:46:00      -91.808       30.119        4.212       80.095       94.506       48.266     6415.251     8931.462     2329.606        1.351        0.884       96.622       50.705        0.275      342.403       17.787      861.786
06/21/2013  23:47:00     -129.351       70.498      -17.866       54.081       57.571       30.682     2924.720     3314.413      941.392        1.460        0.359      147.315       33.490        0.052      342.349       17.695      861.782
06/21/2013  23:48:00     -117.837       38.316      -23.281       64.838       58.866       39.495     4204.029     3465.205     1559.839        1.256        0.461      123.909       42.366        0.117      342.368       17.726      861.759
06/21/2013  23:49:00     -118.490       49.292      -21.632       81.000      106.176       56.064     6561.007    11273.395     3143.227        1.895        1.049      128.334       57.616        0.202      342.351       17.698      861.750
06/21/2013  23:50:00     -145.898        4.377       -9.647       81.996       46.028       37.601     6723.351     2118.582     1413.805        1.583        0.513      145.964       35.414        0.059      342.324       17.650      861.754
06/21/2013  23:51:00     -147.180       49.693      -18.639       88.145       68.967       38.244     7769.560     4756.434     1462.568        1.923        0.699      155.343       42.875        0.076      342.324       17.653      861.745
06/21/2013  23:52:00     -143.692       52.473      -30.332       61.587       78.128       51.423     3792.900     6104.014     2644.332        1.843        0.627      152.973       31.550        0.043      342.296       17.604      861.753
06/21/2013  23:53:00     -128.561      125.281      -20.458       61.675       99.732       47.580     3803.787     9946.440     2263.874        2.432        0.801      179.508       40.623        0.051      342.270       17.559      861.748
06/21/2013  23:54:00     -128.130        2.579       -5.618       82.744       98.137       45.266     6846.546     9630.905     2049.037        1.749        0.926      128.156       44.458        0.120      342.297       17.605      861.737
06/21/2013  23:55:00     -118.070       32.112       -9.357       62.522       67.004       38.754     3908.938     4489.570     1501.835        1.248        0.495      122.359       34.681        0.080      342.254       17.533      861.735
06/21/2013  23:56:00      -73.950       11.591       -4.329       62.991       39.836       34.078     3967.808     1586.941     1161.279        0.617        0.336       74.853       34.454        0.212      342.229       17.493      861.740
06/21/2013  23:57:00     -107.049       28.320      -23.884       51.787       85.967       29.609     2681.889     7390.250      876.697        1.189        0.547      110.732       15.715        0.020      342.260       17.545      861.731
06/21/2013  23:58:00      -82.248       23.013       -4.458       51.686       37.966       35.345     2671.471     1441.398     1249.247        0.634        0.268       85.407       20.398        0.057      342.199       17.443      861.725
06/21/2013  23:59:00      -81.648       24.250      -14.658       36.739       43.732       24.678     1349.747     1912.518      608.983        0.567        0.194       85.173       18.530        0.047      342.228       17.491      861.720
